[[{"header":{"parameterUnit":"m.s-1","parameterCategory":1,"la1":31.0,"la2":29.5877,"lo1":-88.7671,"lo2":-86.6584,"dy":0.0162,"dx":0.0185,"nx":115,"ny":88,"refTime":"2023-08-27T06:00:00:Z","depth":0,"parameterNumber":2,"parameterNumberName":"U-component_of_WINDS"},"data":[0.0,0.0,0.0,0.0,0.0,0.0,0.0,0.0,0.0,0.0,0.0,0.0,0.0,0.0,0.0,0.0,0.0,0.0,0.0,0.0,0.0,0.0,0.0,0.0,0.0,0.0,0.0,0.0,0.0,0.0,0.0,0.0,0.0,0.0,0.0,0.0,0.0,0.0,0.0,0.0,0.0,0.0,0.0,0.0,0.0,0.0,0.0,0.0,0.0,0.0,0.0,0.0,0.0,0.0,0.0,0.0,0.0,0.0,0.0,0.0,0.0,0.0,0.0,0.0,0.0,0.0,0.0,0.0,0.0,0.0,0.0,0.0,0.0,0.0,0.0,0.0,0.0,0.0,0.0,0.0,0.0,0.0,0.0,0.0,0.0,0.0,0.0,0.0,0.0,0.0,0.0,0.0,0.0,0.0,0.0,0.0,0.0,0.0,0.0,0.0,0.0,0.0,0.0,0.0,0.0,0.0,0.0,0.0,0.0,0.0,0.0,0.0,0.0,0.0,0.0,0.0,0.0,0.0,0.0,0.0,0.0,0.0,0.0,0.0,0.0,0.0,0.0,0.0,0.0,0.0,0.0,0.0,0.0,0.0,0.0,0.0,0.0,0.0,0.0,0.0,0.0,0.0,0.0,0.0,0.0,0.0,0.0,0.0,0.0,0.0,0.0,0.0,0.0,0.0,0.0,0.0,0.0,0.0,0.0,0.0,0.0,0.0,0.0,0.0,0.0,0.0,0.0,0.0,0.0,0.0,0.0,0.0,0.0,0.0,0.0,0.0,0.0,0.0,0.0,0.0,0.0,0.0,0.0,0.0,0.0,0.0,0.0,0.0,0.0,0.0,0.0,0.0,0.0,0.0,0.0,0.0,0.0,0.0,0.0,0.0,0.0,0.0,0.0,0.0,0.0,0.0,0.0,0.0,0.0,0.0,0.0,0.0,0.0,0.0,0.0,0.0,0.0,0.0,0.0,0.0,0.0,0.0,0.0,0.0,0.0,0.0,0.0,0.0,0.0,0.0,0.0,0.0,0.0,0.0,0.0,0.0,0.0,0.0,0.0,0.0,0.0,0.0,0.0,0.0,0.0,0.0,0.0,0.0,0.0,0.0,0.0,0.0,0.0,0.0,0.0,0.0,0.0,0.0,0.0,0.0,0.0,0.0,0.0,0.0,0.0,0.0,0.0,0.0,0.0,0.0,0.0,0.0,0.0,0.0,0.0,0.0,0.0,0.0,0.0,0.0,0.0,0.0,0.0,0.0,0.0,0.0,0.0,0.0,0.0,0.0,0.0,0.0,0.0,0.0,0.0,0.0,0.0,0.0,0.0,0.0,0.0,0.0,0.0,0.0,0.0,0.0,0.0,0.0,0.0,0.0,0.0,0.0,0.0,0.0,0.0,0.0,0.0,0.0,0.0,0.0,0.0,0.0,0.0,0.0,0.0,0.0,0.0,0.0,0.0,0.0,0.0,0.0,0.0,0.0,0.0,0.0,0.0,0.0,0.0,0.0,0.0,0.0,0.0,0.0,0.0,0.0,0.0,0.0,0.0,0.0,0.0,0.0,0.0,0.0,0.0,0.0,0.0,0.0,0.0,0.0,0.0,0.0,0.0,0.0,0.0,0.0,0.0,0.0,0.0,0.0,0.0,0.0,0.0,0.0,0.0,0.0,0.0,0.0,0.0,0.0,0.0,0.0,0.0,0.0,0.0,0.0,0.0,0.0,0.0,0.0,0.0,0.0,0.0,0.0,0.0,0.0,0.0,0.0,0.0,0.0,0.0,0.0,0.0,0.0,0.0,0.0,0.0,0.0,0.0,0.0,0.0,0.0,0.0,0.0,0.0,0.0,0.0,0.0,0.0,0.0,0.0,0.0,0.0,0.0,0.0,0.0,0.0,0.0,0.0,0.0,0.0,0.0,0.0,0.0,0.0,0.0,0.0,0.0,0.0,0.0,0.0,0.0,0.0,0.0,0.0,0.0,0.0,0.0,0.0,0.0,0.0,0.0,0.0,0.0,0.0,0.0,0.0,0.0,0.0,0.0,0.0,0.0,0.0,0.0,0.0,0.0,0.0,0.0,0.0,0.0,0.0,0.0,0.0,0.0,0.0,0.0,0.0,0.0,0.0,0.0,0.0,0.0,0.0,0.0,0.0,0.0,0.0,0.0,0.0,0.0,0.0,0.0,0.0,0.0,0.0,0.0,0.0,0.0,0.0,0.0,0.0,0.0,0.0,0.0,0.0,0.0,0.0,0.0,0.0,0.0,0.0,0.0,0.0,0.0,0.0,0.0,0.0,0.0,0.0,0.0,0.0,0.0,0.0,0.0,0.0,0.0,0.0,0.0,0.0,0.0,0.0,0.0,0.0,0.0,0.0,0.0,0.0,0.0,0.0,0.0,0.0,0.0,0.0,0.0,0.0,0.0,0.0,0.0,0.0,0.0,0.0,0.0,0.0,0.0,0.0,0.0,0.0,0.0,0.0,0.0,0.0,0.0,0.0,0.0,0.0,0.0,0.0,0.0,0.0,0.0,0.0,0.0,0.0,0.0,0.0,0.0,0.0,0.0,0.0,0.0,0.0,0.0,0.0,0.0,0.0,0.0,0.0,0.0,0.0,0.0,0.0,0.0,0.0,0.0,0.0,0.0,0.0,0.0,0.0,0.0,0.0,0.0,0.0,0.0,0.0,0.0,0.0,0.0,0.0,0.0,0.0,0.0,0.0,0.0,0.0,0.0,0.0,0.0,0.0,0.0,0.0,0.0,0.0,0.0,0.0,0.0,0.0,0.0,0.0,0.0,0.0,0.0,0.0,0.0,0.0,0.0,0.0,0.0,0.0,0.0,0.0,0.0,0.0,0.0,0.0,0.0,0.0,0.0,0.0,0.0,0.0,0.0,0.0,0.0,0.0,0.0,0.0,0.0,0.0,0.0,0.0,0.0,0.0,0.0,0.0,0.0,0.0,0.0,0.0,0.0,0.0,0.0,0.0,0.0,0.0,0.0,0.0,0.0,0.0,0.0,0.0,0.0,0.0,0.0,0.0,0.0,0.0,0.0,0.0,0.0,0.0,0.0,0.0,0.0,0.0,0.0,0.0,0.0,0.0,0.0,0.0,0.0,0.0,0.0,0.0,0.0,0.0,0.0,0.0,0.0,0.0,0.0,0.0,0.0,0.0,0.0,0.0,0.0,0.0,0.0,0.0,0.0,0.0,0.0,0.0,0.0,0.0,0.0,0.0,0.0,0.0,0.0,0.0,0.0,0.0,0.0,0.0,0.0,0.0,0.0,0.0,0.0,0.0,0.0,0.0,0.0,0.0,0.0,0.0,0.0,0.0,0.0,0.0,0.0,0.0,0.0,0.0,0.0,0.0,0.0,0.0,0.0,0.0,0.0,0.0,0.0,0.0,0.0,0.0,0.0,0.0,0.0,0.0,0.0,0.0,0.0,0.0,0.0,0.0,0.0,0.0,0.0,0.0,0.0,0.0,0.0,0.0,0.0,0.0,0.0,0.0,0.0,0.0,0.0,0.0,0.0,0.0,0.0,0.0,0.0,0.0,0.0,0.0,0.0,0.0,0.0,0.0,0.0,0.0,0.0,0.0,0.0,0.0,0.0,0.0,0.0,0.0,0.0,0.0,0.0,0.0,0.0,0.0,0.0,0.0,0.0,0.0,0.0,0.0,0.0,0.0,0.0,0.0,0.0,0.0,0.0,0.0,0.0,0.0,0.0,0.0,0.0,0.0,0.0,0.0,0.0,0.0,0.0,0.0,0.0,0.0,0.0,0.0,0.0,0.0,0.0,0.0,0.0,0.0,0.0,0.0,0.0,0.0,0.0,0.0,0.0,0.0,0.0,0.0,0.0,0.0,0.0,0.0,0.0,0.0,0.0,0.0,0.0,0.0,0.0,0.0,0.0,0.0,0.0,0.0,0.0,0.0,0.0,0.0,0.0,0.0,0.0,0.0,0.0,0.0,0.0,0.0,0.0,0.0,0.0,0.0,0.0,0.0,0.0,0.0,0.0,0.0,0.0,0.0,0.0,0.0,0.0,0.0,0.0,0.0,0.0,0.0,0.0,0.0,0.0,0.0,0.0,0.0,0.0,0.0,0.0,0.0,0.0,0.0,0.0,0.0,0.0,0.0,0.0,0.0,0.0,0.0,0.0,0.0,0.0,0.0,0.0,0.0,0.0,0.0,0.0,0.0,0.0,0.0,0.0,0.0,0.0,0.0,0.0,0.0,0.0,0.0,0.0,0.0,0.0,0.0,0.0,0.0,0.0,0.0,0.0,0.7578,0.0,0.0,0.0,0.0,0.0,0.0,0.0,0.0,0.0,0.0,0.0,0.0,0.0,0.0,0.0,0.0,0.0,0.0,0.0,0.0,0.0,0.0,0.0,0.0,0.0,0.0,0.0,0.0,0.0,0.0,0.0,0.0,0.0,0.0,0.0,0.0,0.0,0.0,0.0,0.0,0.0,0.0,0.0,0.0,0.0,0.0,0.0,0.0,0.0,0.0,0.0,0.0,0.0,0.0,0.0,0.0,0.0,0.0,0.0,0.0,0.0,0.0,0.0,0.0,0.0,0.0,0.0,0.0,0.0,0.0,0.0,0.0,0.0,0.0,0.0,0.0,0.0,0.0,0.0,0.0,0.0,0.0,0.0,0.0,0.0,0.0,0.0,0.0,0.0,0.0,0.0,0.0,0.0,0.0,0.0,0.0,0.0,0.0,0.0,0.0,0.0,0.0,0.0,0.0,0.0,0.0,0.0,0.0,0.0,0.0,0.9788,1.0197,1.0183,0.9575,0.827,0.0,0.0,0.0,0.0,0.0,0.0,0.0,0.0,0.0,0.0,0.0,0.0,0.0,0.0,0.0,0.0,0.0,0.0,0.0,0.0,0.0,0.0,0.0,0.0,0.0,0.0,0.0,0.0,0.0,0.0,0.0,0.0,0.0,0.0,0.0,0.0,0.0,0.0,0.0,0.0,0.0,0.0,0.0,0.0,0.0,0.0,0.0,0.0,0.0,0.0,0.0,0.0,0.0,0.0,0.0,0.0,0.0,0.0,0.0,0.0,0.0,0.0,0.0,0.0,0.0,0.0,0.0,0.0,0.0,0.0,0.0,0.0,0.0,0.0,0.0,0.0,0.0,0.0,0.0,0.0,0.0,0.0,0.0,0.0,0.0,0.0,0.0,0.0,0.0,0.0,0.0,0.0,0.0,0.0,0.0,0.0,0.0,0.0,0.0,0.0,0.0,0.0,0.0,0.0,0.0,0.0,0.0,0.0,0.0,0.0,0.0,0.0,1.0304,0.9657,0.8534,0.0,0.0,0.0,0.0,0.0,0.0,0.0,0.0,0.0,0.0,0.0,0.0,0.0,0.0,0.0,0.0,0.0,0.0,0.0,0.0,0.0,0.0,0.0,0.0,0.0,0.0,0.0,0.0,0.0,0.0,0.0,0.0,0.0,0.0,0.0,0.0,0.0,0.0,0.0,0.0,0.0,0.0,0.0,0.0,0.0,0.0,0.0,0.0,0.0,0.0,0.0,0.0,0.0,0.0,0.0,0.0,0.0,0.0,0.0,0.0,0.0,0.0,0.0,0.0,0.0,0.0,0.0,0.0,0.0,0.0,0.0,0.0,0.0,0.0,0.0,0.0,0.0,0.0,0.0,0.0,0.0,0.0,0.0,0.0,0.0,0.0,0.0,0.0,0.0,0.0,0.0,0.0,0.0,0.0,0.0,0.0,0.0,0.0,0.0,0.0,0.0,0.0,0.0,0.0,0.0,0.0,0.0,0.0,0.0,0.0,1.0633,1.1341,1.0608,0.0,0.7711,0.0,0.0,0.0,0.0,0.0,0.0,0.0,0.0,0.0,0.0,0.0,0.0,0.0,0.0,0.0,0.0,0.0,0.0,0.0,0.0,0.0,0.0,0.0,0.0,0.0,0.0,0.0,0.0,0.0,0.0,0.0,0.0,0.0,0.0,0.0,0.0,0.0,0.0,0.0,0.0,0.0,0.0,0.0,0.0,0.0,0.0,0.0,0.0,0.0,0.0,0.0,0.0,0.0,0.0,0.0,0.0,0.0,0.0,0.0,0.0,0.0,0.0,0.0,0.0,0.0,0.0,0.0,0.0,0.0,0.0,0.0,0.0,0.0,0.0,0.0,0.0,0.0,0.0,0.0,0.0,0.0,0.0,0.0,0.0,0.0,0.0,0.0,0.0,0.0,0.0,0.0,0.0,0.0,0.0,0.0,0.0,0.0,0.0,0.0,0.0,0.0,0.0,0.0,0.0,0.0,0.0,0.0,0.0,0.0,0.0,1.0639,1.1482,1.1083,0.98,0.0,0.0,0.0,0.0,0.0,0.0,0.0,0.0,0.0,0.0,0.0,0.0,0.0,0.0,0.0,0.0,0.0,0.0,0.0,0.0,0.0,0.0,0.0,0.0,0.0,0.0,0.0,0.0,0.0,0.0,0.0,0.0,0.0,0.0,0.0,0.0,0.0,0.0,0.0,0.0,0.0,0.0,0.0,0.0,0.0,0.0,0.0,0.0,0.0,0.0,0.0,0.0,0.0,0.0,0.0,0.0,0.0,0.0,0.0,0.0,0.0,0.0,0.0,0.0,0.0,0.0,0.0,0.0,0.0,0.0,0.0,0.0,0.0,0.0,0.0,0.0,0.0,0.0,0.0,0.0,0.0,0.0,0.0,0.0,0.0,0.0,0.0,0.0,0.0,0.0,0.0,0.0,0.0,0.0,0.0,0.0,0.0,0.0,0.0,0.0,0.0,0.0,0.0,0.0,0.0,0.0,0.0,0.0,0.0,0.0,1.0349,1.0498,1.1094,1.105,0.9893,0.7611,0.0,0.0,0.0,0.0,0.0,0.0,0.0,0.0,0.0,0.0,0.0,0.0,0.0,0.0,0.0,0.0,0.0,0.0,0.0,0.0,0.0,0.0,0.0,0.0,0.0,0.0,0.0,0.0,0.0,0.0,0.0,0.0,0.0,0.0,0.0,0.0,0.0,0.0,0.0,0.0,0.0,0.0,0.0,0.0,0.0,0.0,0.0,0.0,0.0,0.0,0.0,0.0,0.0,0.0,0.0,0.0,0.0,0.0,0.0,0.0,0.0,0.0,0.0,0.0,0.0,0.0,0.0,0.0,0.0,0.0,0.0,0.0,0.0,0.0,0.0,0.0,0.0,0.0,0.0,0.0,0.0,0.0,0.0,0.0,0.0,0.0,0.0,0.0,0.0,0.0,0.0,0.0,0.0,0.0,0.0,0.0,0.0,0.0,0.0,0.0,0.0,0.0,0.0,0.0,0.0,0.0,0.0,0.0,1.1381,1.0634,1.0226,1.0272,1.0255,0.9414,0.0,0.0,0.0,0.0,0.0,0.0,0.0,0.0,0.0,0.0,0.0,0.0,0.0,0.0,0.0,0.0,0.0,0.0,0.0,0.0,0.0,0.0,0.0,0.0,0.0,0.0,0.0,0.0,0.0,0.0,0.0,0.0,0.0,0.0,0.0,0.0,0.0,0.0,0.0,0.0,0.0,0.0,0.0,0.0,0.0,0.0,0.0,0.0,0.0,0.0,0.0,0.0,0.0,0.0,0.0,0.0,0.0,0.0,0.0,0.0,0.0,0.0,0.0,0.0,0.0,0.0,0.0,0.0,0.0,0.0,0.0,0.0,0.0,0.0,0.0,0.0,0.0,0.0,0.0,0.0,0.0,0.0,0.0,0.0,0.0,0.0,0.0,0.0,0.0,0.0,0.0,0.0,0.0,0.0,0.0,0.0,0.0,0.0,0.0,0.0,0.0,0.0,0.0,0.0,0.0,0.0,0.0,0.0,0.0,1.0723,1.0926,1.0774,1.0243,1.0746,1.0216,0.0,0.0,0.0,0.0,0.0,0.0,0.0,0.0,0.0,0.0,0.0,0.0,0.0,0.0,0.0,0.0,0.0,0.0,0.0,0.0,0.0,0.0,0.0,0.0,0.0,0.0,0.0,0.0,0.0,0.0,0.0,0.0,0.0,0.0,0.0,0.0,0.0,0.0,0.0,0.0,0.0,0.0,0.0,0.0,0.0,0.0,0.0,0.0,0.0,0.0,0.0,0.0,0.0,0.0,0.0,0.0,0.0,0.0,0.0,0.0,0.0,0.0,0.0,0.0,0.0,0.0,0.0,0.0,0.0,0.0,0.0,0.0,0.0,0.0,0.0,0.0,0.0,0.0,0.0,0.0,0.0,0.0,0.0,0.0,0.0,0.0,0.0,0.0,0.0,0.0,0.0,0.0,0.0,0.0,0.0,0.0,0.0,0.0,0.0,0.0,0.0,0.0,0.0,0.0,0.0,0.0,0.0,0.0,0.0,1.0292,0.0,1.0821,1.0262,1.0764,1.0351,0.0,0.0,0.0,0.0,0.0,0.0,0.0,0.0,0.0,0.0,0.0,0.0,0.0,0.0,0.0,0.0,0.0,0.0,0.0,0.0,0.0,0.0,0.0,0.0,0.0,0.0,0.0,0.0,0.0,0.0,0.0,0.0,0.0,0.0,0.0,0.0,0.0,0.0,0.0,0.0,0.0,0.0,0.0,0.0,0.0,0.0,0.0,0.0,0.0,0.0,0.0,0.0,0.0,0.0,0.0,0.0,0.0,0.0,0.0,0.0,0.0,0.0,0.0,0.0,0.0,0.0,0.0,0.0,0.0,0.0,0.0,0.0,0.0,0.0,0.0,0.0,0.0,0.0,0.0,0.0,0.0,0.0,0.0,0.0,0.0,0.0,0.0,0.0,0.0,0.0,0.0,0.0,0.0,0.0,0.0,0.0,0.0,0.0,0.0,0.0,0.0,0.0,0.0,0.0,0.0,0.0,0.0,0.0,1.0318,1.0195,1.027,1.0323,1.0226,1.0248,0.97,0.0,0.0,0.0,0.0,0.0,0.0,0.0,0.0,0.0,0.0,0.0,0.0,0.0,0.0,0.0,0.0,0.0,0.0,0.0,0.0,0.0,0.0,0.0,0.0,0.0,0.0,0.0,0.0,0.0,0.0,0.0,0.0,0.0,0.0,0.0,0.0,0.0,0.0,0.0,0.0,0.0,0.0,0.0,0.0,0.0,0.0,0.0,0.0,0.0,0.0,0.0,0.0,0.0,0.0,0.0,0.0,0.0,0.0,0.0,0.0,0.0,0.0,0.0,0.0,0.0,0.0,0.0,0.0,0.0,0.0,0.0,0.0,0.0,0.0,0.0,0.0,0.0,0.0,0.0,0.0,0.0,0.0,0.0,0.0,0.0,0.0,0.0,0.0,0.0,0.0,0.0,0.0,0.0,0.0,0.0,0.0,0.0,0.0,0.0,0.0,0.0,0.0,0.0,0.0,0.0,0.0,0.0,0.0,0.0,1.0243,1.0273,1.056,1.1057,1.052,1.0295,0.0,0.0,0.0,0.0,0.0,0.0,0.0,0.0,0.0,0.0,0.0,0.0,0.0,0.0,0.0,0.0,0.0,0.0,0.0,0.0,0.0,0.0,0.0,0.0,0.0,0.0,0.0,0.0,0.0,0.0,0.0,0.0,0.0,0.0,0.0,0.0,0.0,0.0,0.0,0.0,0.0,0.0,0.0,0.0,0.0,0.0,0.0,0.0,0.0,0.0,0.0,0.0,0.0,0.0,0.0,0.0,0.0,0.0,0.0,0.0,0.0,0.0,0.0,0.0,0.0,0.0,0.0,0.0,0.0,0.0,0.0,0.0,0.0,0.0,0.0,0.0,0.0,0.0,0.0,0.0,0.0,0.0,0.0,0.0,0.0,0.0,0.0,0.0,0.0,0.0,0.0,0.0,0.0,0.0,0.0,0.0,0.0,0.0,0.0,0.0,0.0,0.0,0.0,0.0,0.0,0.0,0.0,0.0,0.0,1.1571,1.1284,1.1261,1.1502,1.0888,1.0691,1.0864,0.0,0.0,0.0,0.0,0.0,0.0,0.0,0.0,0.0,0.0,0.0,0.0,0.0,0.0,0.0,0.0,0.0,0.0,0.0,0.0,0.0,0.0,0.0,0.0,0.0,0.0,0.0,0.0,0.0,0.0,0.0,0.0,0.0,0.0,0.0,0.0,0.0,0.0,0.0,0.0,0.0,0.0,0.0,0.0,0.0,0.0,0.0,0.0,0.0,0.0,0.0,0.0,0.0,0.0,0.0,0.0,0.0,0.0,0.0,0.0,0.0,0.0,0.0,0.0,0.0,0.0,0.0,0.0,0.0,0.0,0.0,0.0,0.0,0.0,0.0,0.0,0.0,0.0,0.0,0.0,0.0,0.0,0.0,0.0,0.0,0.0,0.0,0.0,0.0,0.0,0.0,0.0,0.0,0.0,0.0,0.0,0.0,0.0,0.0,0.0,0.0,0.0,0.0,0.0,0.0,0.0,0.0,0.0,1.3857,1.3171,1.2451,1.1753,1.1422,1.094,0.0,0.0,0.0,0.0,0.0,0.0,0.0,0.0,0.0,0.0,0.0,0.0,0.0,0.0,0.0,0.0,0.0,0.0,0.0,0.0,0.0,0.0,0.0,0.0,0.0,0.0,0.0,0.0,0.0,0.0,0.0,0.0,0.0,0.0,0.0,0.0,0.0,0.0,0.0,0.0,0.0,0.0,0.0,0.0,0.0,0.0,0.0,0.0,0.0,0.0,0.0,0.0,0.0,0.0,0.0,0.0,0.0,0.0,0.0,0.0,0.0,0.0,0.0,0.0,0.0,0.0,0.0,0.0,0.0,0.0,0.0,0.0,0.0,0.0,0.0,0.0,0.0,0.0,0.0,0.0,0.0,0.0,0.0,0.0,0.0,0.0,0.0,0.0,0.0,0.0,0.0,0.0,0.0,0.0,0.0,0.0,0.0,0.0,0.0,0.0,0.0,0.0,0.0,0.0,0.0,0.0,0.0,0.0,0.0,1.4745,1.4935,1.4668,1.3934,1.2692,1.1932,0.0,0.0,0.0,0.0,0.0,0.0,0.0,0.0,0.0,0.0,0.0,0.0,0.0,0.0,0.0,0.0,0.0,0.0,0.0,0.0,0.0,0.0,0.0,0.0,0.0,0.0,0.0,0.0,0.0,0.0,0.0,0.0,0.0,0.0,0.0,0.0,0.0,0.0,0.0,0.0,0.0,0.0,0.0,0.0,0.0,0.0,0.0,0.0,0.0,0.0,0.0,0.0,0.0,0.0,0.0,0.0,0.0,0.0,0.0,0.0,0.0,0.0,0.0,0.0,0.0,0.0,0.0,0.0,0.0,0.0,0.0,0.0,0.0,0.0,0.0,0.0,0.0,0.0,0.0,0.0,0.0,0.0,0.0,0.0,0.0,0.0,0.0,0.0,0.0,0.0,0.0,0.0,0.0,0.0,0.0,0.0,0.0,0.0,0.0,0.0,0.0,0.0,0.0,0.0,0.0,0.0,0.0,0.0,1.4929,1.5556,1.5788,1.5623,1.5075,1.3879,1.2786,0.0,0.0,0.0,0.0,0.0,0.0,0.0,0.0,0.0,0.0,0.0,0.0,0.0,0.0,0.0,0.0,0.0,0.0,0.0,0.0,0.0,0.0,0.0,0.0,0.0,0.0,0.0,0.0,0.0,0.0,0.0,0.0,0.0,0.0,0.0,0.0,0.0,0.0,0.0,0.0,0.0,0.0,0.0,0.0,0.0,0.0,0.0,0.0,0.0,0.0,0.0,0.0,0.0,0.0,0.0,0.0,0.0,0.0,0.0,0.0,0.0,0.0,0.0,0.0,0.0,0.0,0.0,0.0,0.0,0.0,0.0,0.0,0.0,0.0,0.0,0.0,0.0,0.0,0.0,0.0,0.0,0.0,0.0,0.0,0.0,0.0,0.0,0.0,0.0,0.0,0.0,0.0,0.0,0.0,0.0,0.0,0.0,0.0,0.0,0.0,0.0,0.0,0.0,0.0,0.0,0.0,0.0,0.0,1.4511,1.6006,1.594,1.5729,1.5397,1.4812,1.3437,0.0,0.0,0.0,0.0,0.0,0.0,0.0,0.0,0.0,0.0,0.0,0.0,0.0,0.0,0.0,0.0,0.0,0.0,0.0,0.0,0.0,0.0,0.0,0.0,0.0,0.0,0.0,0.0,0.0,0.0,0.0,0.0,0.0,0.0,0.0,0.0,0.0,0.0,0.0,0.0,0.0,0.0,0.0,0.0,0.0,0.0,0.0,0.0,0.0,0.0,0.0,0.0,0.0,0.0,0.0,0.0,0.0,0.0,0.0,0.0,0.0,0.0,0.0,0.0,0.0,0.0,0.0,0.0,0.0,0.0,0.0,0.0,0.0,0.0,0.0,0.0,0.0,0.0,0.0,0.0,0.0,0.0,0.0,0.0,0.0,0.0,0.0,0.0,0.0,0.0,0.0,0.0,0.0,0.0,0.0,0.0,0.0,0.0,0.0,0.0,0.0,0.0,0.0,0.0,0.0,0.0,0.0,0.0,1.4142,1.501,1.5491,1.5625,1.5397,1.4818,1.3607,0.0,0.0,0.0,0.0,0.0,0.0,0.0,0.0,0.0,0.0,0.0,0.0,0.0,0.0,0.0,0.0,0.0,0.0,0.0,0.0,0.0,0.0,0.0,0.0,0.0,0.0,0.0,0.0,0.0,0.0,0.0,0.0,0.0,0.0,0.0,0.0,0.0,0.0,0.0,0.0,0.0,0.0,0.0,0.0,0.0,0.0,0.0,0.0,0.5283,0.0,0.0,0.0,0.0,0.0,0.0,0.0,0.0,0.0,0.0,0.0,0.0,0.0,0.0,0.0,0.0,0.0,0.0,0.0,0.0,0.0,0.0,0.0,0.0,0.0,0.0,0.0,0.0,0.0,0.0,0.0,0.0,0.0,0.0,0.0,0.0,0.0,0.0,0.0,0.0,0.0,0.0,0.0,0.0,0.0,0.0,0.0,0.0,0.0,0.0,0.0,0.0,0.0,0.0,0.0,0.0,0.0,0.0,0.0,1.4201,1.4017,1.4301,1.4332,1.4033,1.3478,1.2721,0.0,0.0,0.0,0.0,0.0,0.0,0.0,0.0,0.0,0.0,0.0,0.0,0.0,0.0,0.0,0.0,0.0,0.0,0.0,0.0,0.0,0.0,0.0,0.0,0.0,0.0,0.0,0.0,0.0,0.0,0.0,0.0,0.0,0.0,0.0,0.0,0.0,0.0,0.0,0.0,0.0,0.0,0.0,0.0,0.0,0.0,0.0,0.0,0.0,0.0,0.0,0.0,0.0,0.0,0.0,0.0,0.0,0.0,0.0,0.0,0.0,0.0,0.0,0.0,0.0,0.0,0.0,0.0,0.0,0.0,0.0,0.0,0.0,0.0,0.0,0.0,0.0,0.0,0.0,0.0,0.0,0.0,0.0,0.0,0.0,0.0,0.0,0.0,0.0,0.0,0.0,0.0,0.0,0.0,0.0,0.0,0.0,0.0,0.0,0.0,0.0,0.0,0.0,0.0,0.0,0.0,0.0,1.4269,1.4037,1.2872,1.2876,1.2735,1.2346,1.1786,1.1423,1.1335,0.0,0.0,0.0,0.0,0.0,0.0,0.0,0.0,0.0,0.0,0.0,0.0,0.0,0.0,0.0,0.0,0.0,0.0,0.0,0.0,0.0,0.0,0.0,0.0,0.0,0.0,0.0,0.0,0.0,0.0,0.0,0.0,0.0,0.0,0.0,0.0,0.0,0.0,0.4959,0.4059,0.0,0.0,0.0,0.0,0.0,0.0,0.0,0.0,0.5988,0.0,0.0,0.0,0.0,0.0,0.0,0.0,0.0,0.0,0.0,0.0,0.0,0.0,0.0,0.0,0.0,0.0,0.0,0.0,0.0,0.0,0.0,0.0,0.0,0.0,0.0,0.0,0.0,0.0,0.0,0.0,0.0,0.0,0.0,0.0,0.0,0.0,0.0,0.0,0.0,0.0,0.0,0.0,0.0,0.0,0.0,0.0,0.0,0.0,0.0,0.0,0.0,0.0,0.0,0.0,0.0,1.1772,1.2505,1.2336,1.1149,1.1773,1.1947,1.1568,1.0895,1.0388,1.0127,0.0,0.0,0.0,0.0,0.0,0.0,0.0,0.0,0.0,0.0,0.0,0.0,0.0,0.0,0.0,0.0,0.0,0.0,0.0,0.0,0.0,0.0,0.0,0.0,0.0,0.0,0.0,0.0,0.0,0.0,0.0,0.0,0.0,0.0,0.0,0.0,0.0,0.0,0.0,0.4747,0.3193,0.0,0.0,0.0,0.0,0.0,0.0,0.0,0.0,0.3994,0.0,0.0,0.0,0.0,0.0,0.0,0.0,0.0,0.0,0.0,0.0,0.0,0.0,0.0,0.0,0.0,0.0,0.0,0.0,0.0,0.0,0.0,0.0,0.0,0.0,0.0,0.0,0.0,0.0,0.0,0.0,0.0,0.0,0.0,0.0,0.0,0.0,0.0,0.0,0.0,0.0,0.0,0.0,0.0,0.0,0.0,0.0,0.0,0.0,0.0,0.0,0.0,0.0,0.0,0.0,1.201,1.2154,1.1716,1.0609,1.0881,1.0936,1.0672,0.992,0.9409,0.0,0.0,0.0,0.0,0.0,0.0,0.0,0.0,0.0,0.0,0.0,0.0,0.0,0.0,0.0,0.0,0.0,0.0,0.0,0.0,0.0,0.0,0.0,0.0,0.0,0.0,0.0,0.0,0.0,0.0,0.0,0.0,0.0,0.0,0.0,0.0,0.0,0.0,0.0,0.0,0.5394,0.4483,0.5372,0.0,0.0,0.0,0.0,0.0,0.0,0.3262,0.3552,0.0,0.0,0.0,0.0,0.0,0.0,0.0,0.0,0.0,0.0,0.0,0.0,0.0,0.0,0.0,0.0,0.0,0.0,0.0,0.0,0.0,0.0,0.0,0.0,0.0,0.0,0.0,0.0,0.0,0.0,0.0,0.0,0.0,0.0,0.0,0.0,0.0,0.0,0.0,0.0,0.0,0.0,0.0,0.0,0.0,0.0,0.0,0.0,0.0,0.0,0.0,0.0,0.0,0.0,0.0,1.2532,1.2061,1.132,1.0235,1.0096,0.9962,0.9789,0.9177,0.8781,0.0,0.0,0.0,0.0,0.0,0.0,0.0,0.0,0.0,0.0,0.0,0.0,0.0,0.0,0.0,0.0,0.0,0.0,0.0,0.0,0.0,0.0,0.0,0.0,0.0,0.0,0.0,0.0,0.0,0.0,0.0,0.0,0.0,0.0,0.0,0.0,0.0,0.0,0.0,0.0,0.0,0.5549,0.5883,0.2043,0.0,0.0,0.0,0.0,0.2638,0.4452,0.0,0.0,0.0,0.0,0.0,0.0,0.0,0.0,0.0,0.0,0.0,0.0,0.0,0.0,0.0,0.0,0.0,0.0,0.0,0.0,0.0,0.0,0.0,0.0,0.0,0.0,0.0,0.0,0.0,0.0,0.0,0.0,0.0,0.0,0.0,0.0,0.0,0.0,0.0,0.0,0.0,0.0,0.0,0.0,0.0,0.0,0.0,0.0,0.0,0.0,0.0,0.0,0.0,0.0,0.0,0.0,1.2505,1.1535,1.0506,0.9481,0.9309,0.9181,0.9038,0.8993,0.8869,0.0,0.0,0.0,0.0,0.0,0.0,0.0,0.0,0.0,0.0,0.0,0.0,0.0,0.0,0.0,0.0,0.0,0.0,0.0,0.0,0.0,0.0,0.0,0.0,0.0,0.0,0.0,0.0,0.0,0.0,0.0,0.0,0.0,0.0,0.0,0.0,0.0,0.0,0.0,0.0,0.0,0.4587,0.4254,0.2512,0.0419,0.0,0.0,0.541,1.0398,1.0269,0.0,0.0,0.0,0.0,0.0,0.0,0.0,0.0,0.0,0.0,0.0,0.0,0.0,0.0,0.0,0.0,0.0,0.0,0.0,0.0,0.0,0.0,0.0,0.0,0.0,0.0,0.0,0.0,0.0,0.0,0.0,0.0,0.0,0.0,0.0,0.0,0.0,0.0,0.0,0.0,0.0,0.0,0.0,0.0,0.0,0.0,0.0,0.0,0.0,0.0,0.0,0.0,0.0,0.0,0.0,1.2881,1.2391,1.083,0.9726,0.9206,0.9064,0.8957,0.8919,0.8913,0.8835,0.0,0.0,0.0,0.0,0.0,0.0,0.0,0.0,0.0,0.0,0.0,0.0,0.0,0.0,0.0,0.0,0.0,0.0,0.0,0.0,0.0,0.0,0.0,0.0,0.0,0.0,0.0,0.0,0.0,0.0,0.0,0.0,0.0,0.0,0.0,0.0,0.0,0.0,0.0,0.0,0.0,0.0,0.6024,0.5304,0.0,0.0,0.0,0.4092,0.5741,0.0,0.0,0.0,0.0,0.0,0.0,0.0,0.0,0.0,0.0,0.0,0.0,0.0,0.0,0.0,0.0,0.0,0.0,0.0,0.0,0.0,0.0,0.0,0.0,0.0,0.0,0.0,0.0,0.0,0.0,0.0,0.0,0.0,0.0,0.0,0.0,0.0,0.0,0.0,0.0,0.0,0.0,0.0,0.0,0.0,0.0,0.0,0.0,0.0,0.0,0.0,0.0,0.0,0.0,0.0,0.0,0.0,1.2361,1.0359,0.9245,0.9099,0.8979,0.8919,0.8919,0.8913,0.0,0.0,0.0,0.0,0.0,0.0,0.0,0.0,0.0,0.0,0.0,0.0,0.0,0.0,0.0,0.0,0.0,0.0,0.0,0.0,0.0,0.0,0.0,0.0,0.0,0.0,0.0,0.4009,0.0,0.0,0.0,0.0,0.0,0.0,0.0,0.0,0.0,0.0,0.0,0.0,0.0,0.0,0.8608,0.8543,0.7546,0.5247,0.0,0.0,0.4365,0.4472,0.8102,0.9095,0.0,0.0,0.0,0.0,0.0,0.0,0.0,0.0,0.0,0.0,0.0,0.0,0.0,0.0,0.0,0.0,0.0,0.0,0.0,0.0,0.0,0.0,0.0,0.0,0.0,0.0,0.0,0.0,0.0,0.0,0.0,0.0,0.0,0.0,0.0,0.0,0.0,0.0,0.0,0.0,0.0,0.0,0.0,0.0,0.0,0.0,0.0,0.0,0.0,0.0,0.0,0.0,0.0,0.0,1.2465,1.2345,1.0357,0.9228,0.9099,0.8979,0.8919,0.8919,0.8968,0.8925,0.0,0.0,0.0,0.0,0.0,0.0,0.0,0.0,0.0,0.0,0.0,0.0,0.0,0.0,0.0,0.0,0.0,0.0,0.0,0.0,0.0,0.0,0.0,0.0,0.0,0.0,0.0,0.0,0.0,0.0,0.0,0.0,0.0,0.0,0.0,0.0,0.0,0.0,0.0,0.0,0.0,0.912,1.1061,0.7944,0.5827,0.0,0.6578,0.8123,1.3364,1.5112,1.4211,0.8976,0.0,0.0,0.0,0.0,0.0,0.0,0.0,0.0,0.0,0.0,0.0,0.0,0.0,0.0,0.0,0.0,0.0,0.0,0.0,0.0,0.0,0.0,0.0,0.0,0.0,0.0,0.0,0.0,0.0,0.0,0.0,0.0,0.0,0.0,0.0,0.0,0.0,0.0,0.0,0.0,0.0,0.0,0.0,0.0,0.0,0.0,0.0,0.0,0.0,0.0,0.0,0.0,0.0,1.2432,1.2263,1.0322,0.9206,0.8973,0.8925,0.8919,0.8919,0.897,0.8719,0.0,0.0,0.0,0.0,0.0,0.0,0.0,0.0,0.0,0.0,0.0,0.0,0.0,0.0,0.0,0.0,0.0,0.0,0.0,0.0,0.0,0.0,0.0,0.0,0.0,0.0,0.0,0.0,0.4788,0.395,0.2779,0.0,0.0,0.0,0.0,0.0,0.0,0.0,0.0,0.0,0.0,0.9142,1.0328,1.093,0.0,0.0,0.9395,1.095,0.9695,1.1312,1.0887,0.5608,0.4696,0.0,0.0,0.0,0.0,0.0,0.0,0.0,0.0,0.0,0.0,0.0,0.0,0.0,0.0,0.0,0.0,0.0,0.0,0.0,0.0,0.0,0.0,0.0,0.0,0.0,0.0,0.0,0.0,0.0,0.0,0.0,0.0,0.0,0.0,0.0,0.0,0.0,0.0,0.0,0.0,0.0,0.0,0.0,0.0,0.0,0.0,0.0,0.0,0.0,0.0,0.0,0.0,1.2415,1.2258,1.0322,0.9189,0.8968,0.8913,0.8919,0.8919,0.8947,0.8687,0.0,0.0,0.0,0.0,0.0,0.0,0.0,0.0,0.0,0.0,0.0,0.0,0.0,0.0,0.0,0.0,0.0,0.0,0.0,0.0,0.0,0.0,0.0,0.0,0.0,0.0,0.0,0.0,0.4647,0.3596,0.1813,0.0,0.0,0.0,0.0,0.0,0.0,0.0,0.0,0.0,0.0,1.0321,1.0273,1.1536,1.1224,0.764,0.926,0.9781,0.6629,0.7965,0.808,0.4313,0.0,0.0,0.0,0.0,0.0,0.0,0.0,0.0,0.0,0.0,0.0,0.0,0.0,0.0,0.0,0.0,0.0,0.0,0.0,0.0,0.0,0.0,0.0,0.0,0.0,0.0,0.0,1.0341,0.0,0.0,1.031,0.0,0.0,0.0,0.0,0.0,0.0,0.0,0.0,0.0,0.0,0.0,0.0,0.0,0.0,0.0,0.0,0.0,0.0,0.0,0.0,0.0,0.0,1.2452,1.2368,1.0364,0.9245,0.9088,0.8968,0.8919,0.8919,0.8919,0.8913,0.8957,0.0,0.0,0.0,0.0,0.0,0.0,0.0,0.0,0.0,0.0,0.0,0.0,0.0,0.0,0.0,0.0,0.0,0.0,0.0,0.0,0.0,0.0,0.0,0.0,0.0,0.0,0.3474,0.3621,0.343,0.0,0.0,0.0,0.0,0.0,0.0,0.0,0.0,0.0,0.6103,1.0348,1.2972,1.1536,0.8752,0.749,0.889,0.5636,0.3725,0.6119,0.6882,0.717,0.0,0.0,0.0,0.0,0.0,0.0,0.0,0.0,0.0,0.0,0.0,0.0,0.0,0.0,0.0,0.0,0.0,0.0,0.0,0.0,0.0,0.0,0.0,0.0,0.0,0.0,0.0,1.3626,1.3634,0.0,0.0,0.0,0.0,0.0,0.0,0.0,0.0,0.0,0.0,0.0,1.4948,1.6354,0.0,0.0,0.0,0.0,0.0,0.0,0.0,0.0,0.0,0.0,0.0,0.0,1.2463,1.2324,1.0356,0.9245,0.9099,0.8968,0.8919,0.8919,0.8919,0.8929,0.9002,0.0,0.0,0.0,0.0,0.0,0.0,0.0,0.0,0.0,0.0,0.0,0.0,0.0,0.0,0.0,0.0,0.0,0.0,0.0,0.0,0.0,0.0,0.0,0.0,0.0,0.4641,0.0,0.0,0.0,0.0,0.0,0.0,0.0,0.0,0.0,0.0,0.5371,0.6982,0.8258,0.7753,0.9316,1.4952,1.0576,0.6827,0.0,0.0,0.0,0.0,0.0,0.0,0.0,0.0,0.0,0.0,0.0,0.0,0.0,0.0,0.2215,-0.054,0.0403,0.1543,0.1221,0.0,0.0,0.0,0.0,0.0,0.0,0.0,0.0,0.0,0.0,0.0,0.0,0.0,0.0,1.5613,1.5399,1.594,0.0,0.0,0.0,0.0,0.0,0.0,0.0,0.0,1.6875,1.6841,1.6319,1.7693,1.803,1.7446,1.7693,1.7181,0.0,0.0,0.0,0.0,0.0,0.0,0.0,0.0,1.2487,1.2351,1.0413,0.9285,0.9169,0.9046,0.8947,0.8919,0.8919,0.888,0.8861,0.7264,0.652,0.0,0.0,0.0,0.0,0.0,0.0,0.0,0.0,0.0,0.0,0.0,0.0,0.0,0.0,0.0,0.0,0.0,0.0,0.0,0.0,0.0,0.0,0.0,0.4431,0.0,0.0,0.0,0.0,0.0,0.0,0.0,0.0,0.0,0.4671,0.6416,0.8065,0.9075,0.82,0.9111,1.3539,0.0,0.0,0.0,0.0,0.0,0.0,0.0,0.1984,0.1491,0.2549,0.4281,0.6892,0.8093,0.8319,0.711,0.0,0.0,0.2204,0.225,0.2764,0.2381,0.2019,0.1108,-0.0916,-0.2427,-0.418,0.0,0.0,0.0,0.0,1.5624,0.0,0.0,0.0,1.6969,1.6546,0.0,1.7449,0.0,0.0,0.0,0.0,1.0904,1.4855,0.0,0.0,1.982,1.9717,1.8199,1.8901,1.9207,1.9048,1.8287,1.7849,1.7732,1.7711,1.7352,0.0,0.0,0.0,0.0,0.0,1.2514,1.2425,1.0517,0.9439,0.9294,0.9171,0.9038,0.8919,0.8919,0.8812,0.8595,0.8042,0.7356,0.6511,0.5572,0.0,0.0,0.0,0.0,0.0,0.0,0.0,0.0,0.0,0.0,0.0,0.0,0.0,0.0,0.0,0.0,0.0,0.0,0.0,0.0,0.2137,0.0,0.0,0.0,0.0,0.0,0.0,0.0,0.0,0.0,0.5692,0.4784,0.7721,0.965,0.8287,0.0,0.0,0.0,0.0,0.5091,-0.0813,-0.2024,-0.2051,-0.1996,0.1278,0.4877,0.7792,0.0,0.0,1.341,1.0759,0.81,0.592,0.7743,0.8468,0.5367,0.2683,0.0843,0.0405,0.0063,-0.0756,-0.1802,-0.4121,-0.6695,2.1889,0.0,0.0,0.0,0.0,1.8973,1.9799,2.1116,2.1211,2.1118,2.0853,2.1323,0.0,0.0,0.0,0.0,0.0,0.0,1.9587,2.1519,2.1398,2.073,1.975,2.0594,2.0338,1.9134,1.941,1.9275,1.8703,1.8649,1.7913,1.6562,0.0,0.0,0.0,0.0,1.2447,1.2243,1.046,0.9483,0.9457,0.9213,0.9038,0.8919,0.8919,0.8766,0.8463,0.8783,0.8557,0.7662,0.7897,0.0,0.0,0.0,0.0,0.0,0.0,0.0,0.0,0.0,0.0,0.0,0.0,0.0,0.0,0.0,0.0,0.0,0.0,0.0,0.3128,0.4678,0.5396,0.0,0.0,0.0,0.0,0.0,0.0,0.0,0.0,0.0,0.7529,0.7106,0.647,0.0,0.0,0.5149,0.9021,0.6984,0.5122,0.5366,0.5694,0.0,0.8227,0.7701,0.7398,0.8212,1.0929,1.2901,1.2655,1.2468,1.2032,1.0949,1.063,0.9505,0.6673,0.5396,0.4086,0.2535,0.1245,-0.0115,-0.186,-0.396,-0.6336,2.4688,2.3682,2.2627,2.1687,2.0966,2.1262,2.2377,2.3998,2.4412,2.4411,2.4082,2.4413,2.3256,2.1045,2.065,0.0,0.0,0.0,2.1546,2.3872,2.2721,2.1734,2.0983,2.1471,2.0981,1.9641,2.0068,2.0054,1.9577,1.8853,1.8003,1.6939,0.0,1.5541,1.5096,1.3633,1.2863,1.2719,1.1302,1.0467,1.0317,0.976,0.9434,0.9343,0.9055,0.8771,0.8489,0.9101,0.9251,0.8847,0.942,0.8251,0.0,0.0,0.0,0.0,0.0,0.0,0.0,0.0,0.0,0.0,0.0,0.5273,0.0275,0.0,0.0,0.0,0.2171,0.2386,0.1612,0.3047,0.0,0.0,0.0,0.0,0.0,0.0,0.0,0.4232,0.7683,1.0038,0.9442,0.8311,0.7609,0.7851,0.6654,0.5883,0.6057,0.0,0.938,1.2721,1.0626,0.9297,1.1059,1.0791,1.0656,1.1687,1.3013,1.3535,1.2627,1.3169,1.3283,1.2089,1.0273,0.7967,0.5071,0.3707,0.2754,0.1797,-0.0453,-0.2713,-0.4295,-0.5517,-0.7126,2.6951,2.6696,2.4373,2.2917,2.2192,2.2901,2.4164,2.5739,2.6523,2.6445,2.5781,2.6541,2.5154,2.2168,2.1296,0.0,2.1029,2.1691,2.3189,2.5245,2.3899,2.2805,2.1927,2.1971,2.1432,2.0408,2.0408,2.0369,2.0215,1.866,1.7817,1.7677,1.6753,1.5846,1.498,1.399,1.3516,1.3476,1.2575,1.1951,1.1577,1.0621,1.0088,1.0043,0.9407,0.8935,0.8698,0.9238,0.9668,0.9941,1.047,1.0142,0.8771,0.0,0.0,0.0,0.0,0.0,0.0,0.0,0.0,0.0,0.0,0.0,0.0,0.0,0.0,0.1828,0.1061,0.0,0.0384,-0.018,0.0,0.0,0.0,0.7502,1.0322,1.0538,1.0511,1.0547,0.0,0.0,1.0966,1.0915,1.1794,1.4278,1.4648,1.1126,0.1383,0.8348,1.5826,1.9419,1.3783,0.9138,1.0811,1.2284,1.4166,1.6289,1.6759,1.5242,1.3284,1.2551,1.2113,0.9994,0.7257,0.441,0.176,-0.0904,-0.2529,-0.1021,-0.4075,-0.721,-0.7866,-0.8468,-0.9067,2.8268,2.7715,2.7661,2.6824,2.5553,2.5726,2.6081,2.6521,2.6776,2.6445,2.5762,2.6601,2.6147,2.4701,2.4485,2.4384,2.4342,2.4476,2.4851,2.5409,2.5034,2.443,2.3694,2.3636,2.2819,2.1355,2.1243,2.0908,2.0265,1.9123,1.8561,1.849,1.6956,1.5727,1.4917,1.4072,1.3613,1.3496,1.2678,1.2037,1.1624,1.119,1.0862,1.0614,1.0445,1.0009,0.934,1.0206,1.0605,1.0426,1.2052,1.2849,1.2499,0.9477,0.0,0.0,0.0,0.0,0.0,0.0,0.0,0.0,0.0,-0.0794,-0.2247,0.0,0.297,0.0,0.3789,0.7839,0.9261,0.7895,0.0,0.0,0.635,1.3074,1.7354,1.5479,1.2891,1.041,1.2515,1.4166,1.4105,1.4143,1.532,1.8333,1.436,1.0051,0.7569,1.1033,1.5877,1.9744,1.846,1.7084,1.7338,1.706,1.6723,1.7463,1.5148,1.3332,1.393,1.1032,0.8092,0.5989,0.2776,0.009,-0.1399,-0.3983,-0.5663,-0.554,-0.688,-0.8447,-0.9481,-1.064,-1.1554,2.9387,2.8664,2.9006,2.8621,2.7802,2.7785,2.7815,2.7874,2.7936,2.7732,2.7325,2.7032,2.6384,2.5534,2.5505,2.5466,2.5428,2.537,2.537,2.5409,2.5421,2.5011,2.4258,2.428,2.356,2.2186,2.1743,2.1309,2.0781,1.9526,1.8885,1.883,1.7454,1.6535,1.6082,1.4849,1.4205,1.4121,1.3481,1.3141,1.3129,1.2228,1.1541,1.1127,1.0389,0.9729,0.9171,0.9197,0.8941,0.837,0.9617,1.0811,1.1649,0.8102,0.4015,0.0,0.0,0.0,0.0,0.0,0.0,0.0,0.0,0.0,0.0,0.0,0.5135,0.2726,0.7735,1.1133,1.1171,1.0075,0.8167,0.5346,1.0278,1.5539,1.993,1.8646,1.6718,1.4882,1.6421,1.7644,1.7576,1.7917,1.8792,2.0618,1.7367,1.4585,1.4247,1.5735,1.7764,1.9996,1.9573,1.894,1.9154,1.7988,1.661,1.5338,1.3688,1.1952,1.0055,0.7373,0.4714,0.2373,-0.0137,-0.2533,-0.4243,-0.5513,-0.6702,-0.7604,-0.8111,-0.8735,-0.9648,-1.1036,-1.2138,3.0243,2.9547,2.9415,2.9366,2.9382,2.9294,2.9239,2.9195,2.9261,2.9259,2.9132,2.7501,2.6287,2.5409,2.539,2.537,2.5313,2.5313,2.5313,2.5341,2.5434,2.5092,2.4384,2.4495,2.4012,2.3053,2.229,2.1768,2.1479,2.0004,1.919,1.8963,1.8164,1.7771,1.7703,1.6103,1.5195,1.5042,1.4508,1.4453,1.4952,1.3188,1.1962,1.1381,0.9935,0.893,0.8489,0.7529,0.6537,0.5606,0.5981,0.7305,0.943,0.5682,0.2644,0.0,0.0359,0.0,0.0,0.0,0.0,0.0,0.0,0.0,0.0,0.7318,0.8801,0.9437,1.179,1.2596,1.0926,1.073,1.1544,1.368,1.4801,1.6721,1.9933,2.0446,2.0462,2.0427,2.0499,2.0586,2.0594,2.1269,2.1512,2.1349,2.0734,1.9746,1.9402,1.9377,1.9509,1.9107,1.8406,1.7784,1.703,1.6166,1.4787,1.284,1.1661,1.004,0.5046,0.3416,0.189,-0.0737,-0.2431,-0.4101,-0.6526,-0.6361,-0.67,-0.8285,-0.8548,-0.8766,-0.9636,-1.072,-1.1607,3.0515,3.0372,3.028,3.026,3.0256,3.0198,2.9802,2.9194,2.9214,2.8879,2.8278,2.7237,2.6265,2.5428,2.539,2.537,2.5313,2.5313,2.537,2.5447,2.5418,2.5356,2.5251,2.5231,2.4767,2.3975,2.3725,2.2887,2.1498,2.1081,2.0584,1.9997,1.9042,1.8653,1.8754,0.0,0.0,0.0,1.4844,1.4299,1.4314,1.2645,1.1487,1.0944,1.0254,0.0,0.7509,0.744,0.6893,0.5688,0.6481,0.0,0.0,0.0,0.0,0.0,0.0,0.0,0.0,0.0,0.0,0.0,1.0631,0.8376,0.8082,0.7769,0.9125,1.2771,1.3874,1.5385,1.7903,1.8106,1.8319,1.8917,1.898,1.9388,2.0238,2.0369,2.0429,2.0405,2.0485,2.0813,2.1455,2.1157,2.0957,2.1365,2.0831,1.9885,1.8753,1.8981,1.8676,1.7543,1.7301,1.6749,1.5542,1.3828,1.2807,1.232,0.8722,0.5846,0.4355,0.225,-0.0233,-0.3266,-0.5189,-0.6053,-0.6379,-0.6568,-0.7133,-0.8464,-0.8856,-0.9503,-1.1002,-1.1271,-1.1525,3.147,3.0681,3.1045,3.0933,0.0,3.0417,3.0167,2.9752,2.9367,2.8775,2.7988,2.7103,2.6438,2.5986,2.5543,2.5332,2.5313,2.5313,2.5332,2.5409,2.539,2.5416,2.5444,2.5446,2.5216,2.4783,2.436,2.3687,2.2784,2.2297,2.1653,2.0885,2.0369,1.9973,1.9687,1.9162,1.837,1.7343,1.6168,1.5716,1.5918,1.4538,1.3524,1.2969,1.2195,0.0,0.0,0.0,0.0,0.0,0.0,0.0,0.0,0.9229,0.9407,1.1422,0.9751,0.8754,0.9063,1.1142,1.4326,1.8659,1.748,1.5267,1.2467,1.3785,1.5808,1.8153,1.85,1.9124,2.0534,2.063,2.0465,2.0249,2.0089,2.0069,2.028,2.0369,2.0588,2.0977,2.0789,2.0878,2.1728,2.1435,2.1147,2.1237,2.0689,2.0045,1.9526,1.925,1.8654,1.7395,1.6805,1.6022,1.4433,1.253,1.0545,0.9209,0.5938,0.3058,0.1624,-0.0229,-0.2342,-0.4556,-0.5826,-0.6477,-0.6999,-0.707,-0.7433,-0.8674,-0.8898,-0.9384,-1.0994,-1.1597,-1.1896,3.2237,3.082,3.1573,3.1379,3.0525,3.059,3.0533,3.034,2.9713,0.0,0.0,2.7379,2.6871,2.6563,2.5841,2.5437,2.5313,2.5313,2.5313,2.5313,2.537,2.539,2.539,2.5447,2.5447,2.539,2.4726,2.4303,2.4101,2.3389,2.2541,2.1609,2.1509,2.1124,2.0342,2.0106,1.9612,1.8802,1.7591,1.7188,1.7581,1.6356,1.5444,1.4888,1.3888,1.3138,1.2674,1.1393,1.0505,1.0133,0.9467,0.9358,0.9838,0.9724,1.0189,1.1381,1.097,1.159,1.3687,1.538,1.8151,2.2443,2.3356,2.1798,1.7195,2.0336,2.256,2.2681,2.2581,2.2193,2.1553,2.1183,2.0708,2.0015,1.995,2.0107,2.0526,2.0481,2.0843,2.17,2.1345,2.1198,2.213,2.1888,2.1574,2.1242,2.0586,2.0112,2.0043,1.9183,1.8285,1.7384,1.6051,1.4619,1.2987,1.1202,0.8816,0.5576,0.309,0.0697,-0.1676,-0.3123,-0.4152,-0.5231,-0.5819,-0.6543,-0.7447,-0.7523,-0.7765,-0.907,-0.9026,-0.9078,-1.0532,-1.1549,-1.1978,3.1797,3.0921,3.1611,3.1395,3.0621,3.1237,3.1102,3.0398,3.0283,2.9744,2.8929,2.8794,2.7948,2.6582,2.6467,2.6024,2.5303,2.5313,2.5313,2.5313,2.5313,2.5351,2.539,2.5409,2.5447,2.5466,2.5293,2.4851,2.4236,2.4053,2.3189,2.178,2.1573,2.1163,2.0361,2.0106,1.9877,1.9598,1.805,1.713,1.6922,1.531,1.421,1.3661,1.3168,1.2617,1.2208,1.1248,1.0481,1.0202,0.9544,1.065,1.3872,1.4033,1.5673,1.9232,1.9272,1.9142,1.9255,2.0643,2.2151,2.3768,2.4369,2.3661,2.1642,2.2106,2.2525,2.2407,2.2547,2.2414,2.2143,2.1519,2.0746,1.9885,1.9763,2.0323,2.1559,2.1204,2.1296,2.263,2.217,2.2213,2.3371,2.2451,2.1574,2.1596,2.0408,1.9281,1.8655,1.7447,1.6679,1.6175,1.4009,1.1725,1.0331,0.8559,0.6322,0.3246,0.0886,-0.132,-0.3595,-0.4316,-0.4884,-0.5879,-0.6428,-0.6852,-0.7238,-0.7938,-0.8382,-0.8878,-0.9325,-0.9964,-1.034,-1.0615,-1.0919,3.2324,3.1621,3.2338,3.2212,3.1501,3.1155,3.1052,3.1102,3.1102,3.0621,2.9794,2.9313,2.8679,2.7948,2.7486,2.7082,2.6717,2.6717,2.6447,2.6043,2.6005,2.5793,2.5428,2.539,2.5416,2.549,2.5459,2.5263,2.4937,2.4909,2.4049,2.2387,2.1443,2.0723,2.0323,2.0205,2.0134,2.006,1.906,1.8366,1.7982,1.7082,1.6401,1.6022,1.5642,1.5378,1.5198,1.4887,1.4584,1.4342,1.4563,1.5441,1.6985,1.7622,1.8886,2.0912,2.0972,2.0927,2.0949,2.1796,2.2697,2.3619,2.4318,2.4454,2.3847,2.385,2.3904,2.3915,2.3904,2.3641,2.3163,2.2647,2.206,2.1299,2.042,2.0389,2.1729,2.2851,2.324,2.3096,2.263,2.2766,2.393,2.2644,2.1535,2.1352,1.979,1.8383,1.7619,1.5811,1.4807,1.5237,1.3252,1.1039,0.9393,0.7026,0.4434,0.164,-0.058,-0.2522,-0.426,-0.4918,-0.5567,-0.6093,-0.6647,-0.7112,-0.7356,-0.7599,-0.8136,-0.9039,-0.9156,-0.9536,-0.98,-0.978,-0.9901,3.3144,3.2402,3.323,3.3269,3.2666,3.1623,3.1462,3.1968,3.1968,3.1487,3.066,2.9967,2.9486,2.9044,2.8448,2.8063,2.7909,2.789,2.7525,2.6928,2.6717,2.6313,2.5746,2.5543,2.5461,2.5554,2.5527,2.5504,2.5524,2.5524,2.4684,2.3002,2.1266,2.0399,2.032,2.0289,2.0389,2.0499,1.9938,1.9457,1.9092,1.877,1.848,1.8202,1.7924,1.7816,1.7922,1.827,1.8399,1.831,1.9178,1.9668,1.9653,2.0391,2.1065,2.1444,2.1505,2.1631,2.1927,2.2407,2.2923,2.3481,2.4264,2.4795,2.4924,2.5022,2.5099,2.5184,2.5011,2.4705,2.4148,2.3727,2.3415,2.2919,2.1502,2.1107,2.2221,2.3702,2.4422,2.348,2.295,2.2811,2.3281,2.2518,2.1253,2.0153,1.876,1.7492,1.639,1.437,1.3345,1.3032,1.1858,0.9787,0.8345,0.5525,0.2595,0.0046,-0.1936,-0.3497,-0.4687,-0.5561,-0.6033,-0.6392,-0.6732,-0.7064,-0.7452,-0.7264,-0.7529,-0.8525,-0.8627,-0.8622,-0.9108,-0.9062,-0.9028,3.4062,3.3437,3.4121,3.436,3.4058,3.3647,3.3186,3.2833,3.2795,3.2333,3.1545,3.1506,3.0564,2.9217,2.9036,2.8621,2.8005,2.7909,2.792,2.7776,2.7044,2.6697,2.6631,2.5948,2.5628,2.5664,2.5605,2.559,2.559,2.5553,2.4749,2.3064,2.1346,2.0486,2.0413,2.036,2.0631,2.1248,2.0302,1.965,1.9354,1.8855,1.8491,1.8203,1.7954,1.7905,1.8228,1.8892,1.9388,1.9661,2.0395,2.1121,2.1675,2.1874,2.2394,2.3303,2.315,2.3132,2.3479,2.4149,2.4356,2.4192,2.4761,2.5072,2.4888,2.5103,2.5203,2.5107,2.5022,2.4991,2.4917,2.4328,2.3965,2.3971,2.3101,2.2906,2.3446,2.2625,2.2461,2.4506,2.2746,2.2388,2.2711,2.1714,2.0183,1.8455,1.7246,1.6103,1.4786,1.2903,1.1025,1.0107,0.8759,0.714,0.516,0.2921,0.0532,-0.1905,-0.3551,-0.4783,-0.5653,-0.6044,-0.6349,-0.6852,-0.6894,-0.6989,-0.6841,-0.6613,-0.6848,-0.7617,-0.7863,-0.7825,-0.8213,-0.8415,-0.8603,3.4492,3.4219,3.4512,3.4888,3.5165,3.4917,3.4397,3.373,3.368,3.2929,3.1929,3.2718,3.1948,2.991,2.9871,2.9679,2.939,2.9429,2.9159,2.8662,2.7892,2.7301,2.6844,2.6006,2.5635,2.5703,2.5664,2.5664,2.5574,2.5156,2.4522,2.3769,2.2168,2.1309,2.1235,2.1148,2.1212,2.1318,2.1308,2.1153,2.0778,1.9392,1.8612,1.8618,1.8692,1.9009,1.9551,2.0244,2.055,2.0583,2.1399,2.1971,2.21,2.27,2.3221,2.3685,2.3771,2.3855,2.3978,2.4284,2.4375,2.4209,2.4697,2.4942,2.4832,2.5084,2.5283,2.5261,2.525,2.5258,2.5231,2.5004,2.4807,2.4687,2.4316,2.3827,2.3116,2.1873,2.1386,2.1617,2.0444,1.9803,2.0231,1.928,1.7865,1.6473,1.5194,1.3634,1.221,1.0495,0.8856,0.7525,0.6458,0.5164,0.3268,0.0795,-0.145,-0.3399,-0.4826,-0.5879,-0.6422,-0.6641,-0.6859,-0.7412,-0.7196,-0.6994,-0.6901,-0.6848,-0.6922,-0.7322,-0.7596,-0.7884,-0.8557,-0.8293,-0.8211,3.5273,3.5078,3.5059,3.5371,3.5879,3.5635,3.52,3.4691,3.457,3.3622,3.2282,3.3603,3.2968,3.1032,3.0975,3.1071,3.1083,3.0929,3.0532,2.9864,2.8946,2.8078,2.7256,2.6403,2.5868,2.5723,2.5703,2.5703,2.5605,2.4824,2.4414,2.4199,2.2949,2.2223,2.2115,2.1889,2.1836,2.2051,2.206,2.2055,2.2006,2.0387,1.944,1.9589,1.9651,2.0027,2.0719,2.1388,2.1673,2.1592,2.245,2.2883,2.2718,2.3407,2.3837,2.3855,2.4054,2.4228,2.4266,2.4303,2.4284,2.4321,2.4639,2.4814,2.4861,2.5122,2.5341,2.538,2.5379,2.5341,2.536,2.5395,2.5233,2.4819,2.4789,2.4134,2.225,2.0135,1.8358,1.849,1.7578,1.6817,1.705,1.6431,1.5509,1.3604,1.1984,1.0284,0.8733,0.7072,0.5638,0.4805,0.3959,0.2961,0.1718,-0.0307,-0.2778,-0.4426,-0.5583,-0.6258,-0.6875,-0.6972,-0.7027,-0.7238,-0.7112,-0.6975,-0.678,-0.6834,-0.6947,-0.7206,-0.7457,-0.7843,-0.848,-0.8083,-0.797,3.6719,3.5976,3.5937,3.5918,3.5879,3.5685,3.5582,3.5468,3.5416,3.4493,3.3173,3.3943,3.3391,3.1968,3.2531,3.2776,3.266,3.1994,3.166,3.146,3.0076,2.9004,2.8221,2.7343,2.6484,2.5742,2.5703,2.5703,2.5644,2.4863,2.4414,2.4375,2.3555,2.3107,2.2939,2.2236,2.2474,2.3391,2.2201,2.1824,2.2828,2.1916,2.1277,2.1231,2.0766,2.078,2.1412,2.2144,2.2641,2.2905,2.3638,2.4041,2.4078,2.4114,2.4151,2.417,2.419,2.4284,2.4426,2.4528,2.4528,2.451,2.4708,2.4877,2.4865,2.5141,2.535,2.538,2.5112,2.5001,2.4978,2.4999,2.4678,2.386,2.4412,2.3547,2.0967,1.6263,1.422,1.5401,1.4685,1.3406,1.3292,1.4189,1.2297,0.9819,0.8255,0.7113,0.5148,0.3261,0.2373,0.1857,0.1092,0.0177,-0.0088,-0.1716,-0.3383,-0.476,-0.5879,-0.6428,-0.6725,-0.7021,-0.7063,-0.7091,-0.7092,-0.6936,-0.668,-0.6625,-0.6737,-0.6939,-0.7129,-0.755,-0.8469,-0.8044,-0.791,3.7109,3.6797,3.623,3.6289,3.6699,3.6044,3.5768,3.5751,3.568,3.5012,3.4231,3.4835,3.4592,3.3591,3.4359,3.4089,3.307,3.2269,3.1934,3.1767,3.0302,2.9116,2.8281,2.7402,2.6543,2.5801,2.5703,2.5703,2.5684,2.5371,2.5234,2.5098,2.4335,2.3829,2.3647,2.338,2.329,2.3216,2.3313,2.3736,2.3926,2.34,2.301,2.2829,2.1992,2.1953,2.2865,2.3353,2.3673,2.3768,2.4061,2.419,2.419,2.419,2.419,2.419,2.419,2.4228,2.4321,2.4578,2.461,2.4375,2.4636,2.4879,2.4999,2.5089,2.5173,2.5019,2.3861,2.317,2.318,2.3742,2.3703,2.259,2.3041,2.2004,1.8093,1.4817,1.3409,1.3148,1.0866,0.8234,0.7448,0.7194,0.6789,0.5389,0.4568,0.3704,0.3037,0.1877,0.0652,-0.0304,-0.1049,-0.2023,-0.3719,-0.4117,-0.5005,-0.5604,-0.6392,-0.6901,-0.7321,-0.7063,-0.707,-0.7335,-0.7279,-0.6956,-0.6705,-0.6791,-0.6876,-0.7436,-0.7561,-0.7749,-0.8554,-0.8172,-0.8069,3.7285,3.7148,3.6367,3.6348,3.6758,3.6152,3.5845,3.5882,3.5742,3.5251,3.4796,3.5387,3.5321,3.4802,3.5425,3.5061,3.368,3.2817,3.2275,3.1885,3.0599,2.9499,2.8645,2.7774,2.6905,2.6113,2.5781,2.5684,2.5664,2.5664,2.5662,2.5605,2.4974,2.4638,2.4482,2.4257,2.389,2.378,2.4301,2.4606,2.462,2.4403,2.4155,2.3852,2.303,2.289,2.3674,2.3917,2.4094,2.419,2.419,2.419,2.419,2.419,2.4246,2.4284,2.4228,2.4284,2.4425,2.4559,2.4559,2.4461,2.4655,2.4896,2.4938,2.4934,2.4716,2.3995,2.2815,2.147,2.0363,2.0606,2.059,1.9762,2.075,1.9672,1.4904,1.1296,0.9204,0.811,0.5864,0.3588,0.2387,0.1843,0.139,0.0894,-0.0047,-0.0647,-0.0361,-0.0756,-0.1413,-0.2461,-0.3026,-0.3959,-0.4995,-0.5399,-0.5572,-0.6136,-0.6513,-0.7154,-0.7405,-0.7154,-0.714,-0.7439,-0.7373,-0.7048,-0.6891,-0.6973,-0.7406,-0.8036,-0.8119,-0.8145,-0.8427,-0.8391,-0.8209,3.7305,3.7168,3.6367,3.6074,3.6191,3.5996,3.5898,3.5898,3.5763,3.5357,3.4913,3.556,3.5503,3.5055,3.5624,3.5483,3.4522,3.3565,3.2742,3.1951,3.104,3.0188,2.9329,2.8411,2.7469,2.6554,2.5927,2.5605,2.5586,2.5576,2.5562,2.558,2.5453,2.5218,2.5382,2.4602,2.4583,2.4837,2.4453,2.4411,2.4966,2.4864,2.4626,2.4405,2.3777,2.3545,2.3753,2.3753,2.3917,2.417,2.419,2.419,2.4228,2.4228,2.4303,2.4445,2.4321,2.4493,2.4842,2.4547,2.4552,2.4727,2.4853,2.4728,2.4453,2.4405,2.3764,2.2185,2.1211,1.9832,1.6728,1.5414,1.5266,1.5541,1.7236,1.6361,1.1556,0.5,0.0439,0.1252,0.06,-0.0,-0.0432,-0.1421,-0.2566,-0.3536,-0.4685,-0.5371,-0.4408,-0.4399,-0.4938,-0.4882,-0.4845,-0.5412,-0.5863,-0.6221,-0.6264,-0.6386,-0.6683,-0.7105,-0.7147,-0.7021,-0.7021,-0.7238,-0.7127,-0.6848,-0.6881,-0.7048,-0.7583,-0.8098,-0.821,-0.8449,-0.8541,-0.8528,-0.8096,3.7773,3.7207,3.6367,3.6348,3.6758,3.625,3.5976,3.5957,3.5911,3.5776,3.5635,3.5845,3.5828,3.5669,3.5886,3.5502,3.4588,3.3717,3.2826,3.1943,3.1091,3.0225,2.9333,2.8483,2.7331,2.6088,2.5664,2.5527,2.549,2.5387,2.5385,2.5456,2.533,2.488,2.4393,2.4669,2.4898,2.4523,2.4763,2.4966,2.5084,2.5039,2.4826,2.4459,2.4215,2.4137,2.4112,2.4074,2.4094,2.4209,2.419,2.4247,2.4356,2.441,2.45,2.4676,2.4642,2.4668,2.4869,2.4837,2.4727,2.4768,2.4606,2.4123,2.3331,2.2585,2.1459,1.9741,1.863,1.6365,1.2246,0.9136,0.9541,1.3371,1.3966,1.1572,0.5741,0.1342,-0.0875,-0.181,-0.303,-0.4155,-0.4647,-0.5315,-0.5153,-0.5444,-0.5893,-0.5868,-0.6065,-0.5743,-0.5738,-0.6099,-0.6276,-0.6488,-0.6904,-0.7231,-0.7273,-0.7224,-0.7308,-0.7349,-0.7308,-0.7105,-0.7105,-0.6987,-0.6915,-0.6854,-0.6919,-0.7364,-0.8008,-0.8268,-0.8468,-0.868,-0.8844,-0.8613,-0.8145,3.7924,3.7187,3.6328,3.6289,3.6758,3.6176,3.5957,3.5948,3.5907,3.5899,3.5879,3.5879,3.5899,3.5899,3.5899,3.5182,3.4107,3.3489,3.2601,3.153,3.0941,3.0129,2.9175,2.8052,2.6871,2.5717,2.5461,2.5413,2.534,2.5234,2.5162,2.5143,2.5029,2.4702,2.4133,2.4716,2.4853,2.458,2.4957,2.5205,2.5221,2.5222,2.5022,2.4673,2.4628,2.4575,2.4512,2.4451,2.4414,2.4429,2.4411,2.4461,2.4547,2.4601,2.4703,2.4832,2.4835,2.4831,2.49,2.4533,2.409,2.3548,2.2632,2.1838,2.0871,1.9592,1.7466,1.5854,1.36,1.0767,0.677,0.4221,0.4397,0.6673,0.8943,0.6047,-0.0369,-0.3089,-0.373,-0.446,-0.5311,-0.6421,-0.6981,-0.713,-0.7006,-0.7002,-0.6773,-0.6303,-0.6734,-0.6461,-0.6893,-0.7196,-0.7208,-0.7539,-0.8017,-0.8193,-0.8316,-0.8185,-0.8054,-0.8013,-0.7889,-0.7607,-0.7447,-0.7217,-0.71,-0.7121,-0.7201,-0.8132,-0.8828,-0.882,-0.8657,-0.8866,-0.8926,-0.8516,-0.8096,3.7849,3.7107,3.625,3.5937,3.6046,3.5997,3.597,3.5888,3.5891,3.5826,3.5748,3.5728,3.5728,3.5709,3.5698,3.49,3.3565,3.328,3.2415,3.1181,3.0529,2.9934,2.8898,2.7486,2.6303,2.5485,2.536,2.5265,2.5099,2.5189,2.4979,2.4893,2.4942,2.4827,2.4771,2.4799,2.4885,2.4965,2.5053,2.5151,2.5286,2.5333,2.5215,2.4952,2.4939,2.4895,2.4767,2.4741,2.4796,2.4791,2.476,2.4714,2.4678,2.4745,2.485,2.4931,2.4845,2.4641,2.4544,2.3555,2.2747,2.1863,1.9512,1.7467,1.634,1.4009,1.2169,1.0588,0.7636,0.4301,0.1591,-0.0158,-0.1058,-0.1994,0.1734,0.0157,-0.6871,-0.7622,-0.6745,-0.6465,-0.6696,-0.6961,-0.77,-0.7747,-0.8053,-0.8364,-0.839,-0.7909,-0.7798,-0.7728,-0.8146,-0.8301,-0.8334,-0.8672,-0.9129,-0.9006,-0.9089,-0.9293,-0.9011,-0.8724,-0.839,-0.8021,-0.7863,-0.7634,-0.7453,-0.7453,-0.7638,-0.8471,-0.8802,-0.8605,-0.8628,-0.891,-0.8848,-0.8496,-0.8135,3.7715,3.6978,3.6106,3.5768,3.5875,3.642,3.6342,3.59,3.6402,3.623,3.5821,3.5693,3.5685,3.5681,3.5473,3.5111,3.4454,3.3691,3.2845,3.1684,3.0513,2.9384,2.8269,2.7159,2.6115,2.531,2.5268,2.5037,2.4936,2.5376,2.554,2.564,2.543,2.5466,2.5574,2.4986,2.4847,2.4872,2.4853,2.4866,2.4962,2.4965,2.4927,2.4872,2.4986,2.4973,2.4848,2.4902,2.4923,2.4883,2.4798,2.4866,2.4913,2.4929,2.4865,2.4715,2.4617,2.3936,2.2675,2.1784,2.1587,2.1771,1.6996,1.2121,0.6894,0.726,0.6707,0.5485,0.2973,0.0205,-0.2469,-0.4343,-0.5561,-0.5972,-0.4481,-0.5116,-0.7712,-0.8115,-0.7568,-0.7402,-0.7396,-0.7777,-0.8262,-0.8533,-0.8639,-0.8745,-0.862,-0.841,-0.8584,-0.8612,-0.8853,-0.94,-0.9616,-0.9928,-1.0074,-0.9897,-0.9938,-1.0255,-1.0034,-0.9475,-0.8967,-0.8341,-0.83,-0.8252,-0.8121,-0.8072,-0.8047,-0.8399,-0.8351,-0.8585,-0.87,-0.9,-0.8882,-0.8623,-0.8232,3.7752,3.6452,3.6624,3.6513,3.6367,3.7102,3.6972,3.6386,3.6636,3.6406,3.5743,3.5484,3.545,3.5423,3.5173,3.4812,3.4358,3.3727,3.2747,3.1468,2.9961,2.8885,2.8055,2.7243,2.6504,2.6005,2.5896,2.5754,2.5609,2.5965,2.5949,2.5525,2.5556,2.5394,2.4893,2.4613,2.4298,2.4278,2.4381,2.4492,2.4605,2.4728,2.4816,2.4817,2.4918,2.4915,2.4825,2.4919,2.4962,2.4974,2.4927,2.4889,2.4883,2.4793,2.4586,2.4245,2.3732,2.2429,2.0763,2.0047,1.9634,1.8073,1.3188,0.8201,0.4196,0.3118,0.2085,-0.026,-0.1908,-0.3776,-0.5763,-0.7553,-0.8131,-0.7984,-0.8472,-0.8805,-0.8804,-0.8427,-0.8209,-0.8156,-0.8209,-0.8421,-0.9106,-0.9211,-0.9361,-0.951,-0.9488,-0.946,-0.9561,-0.9503,-0.9668,-1.0326,-1.058,-1.0687,-1.0884,-1.0767,-1.0581,-1.0906,-1.1112,-1.0564,-0.9623,-0.8921,-0.8781,-0.8781,-0.8716,-0.8618,-0.8553,-0.8642,-0.8954,-0.9124,-0.9113,-0.9013,-0.8919,-0.8848,-0.8428,3.7815,3.5853,3.7329,3.7584,3.7089,3.782,3.7676,3.6935,3.7103,3.6479,3.5609,3.5302,3.5276,3.5053,3.4792,3.4256,3.3576,3.3567,3.246,3.1107,2.9738,2.8896,2.8783,2.7518,2.6975,2.6758,2.7,2.6564,2.6193,2.6507,2.6123,2.5408,2.5327,2.4847,2.4269,2.3804,2.3581,2.3611,2.3814,2.3988,2.4116,2.4325,2.4404,2.4451,2.4467,2.4509,2.4538,2.4632,2.4724,2.4904,2.4919,2.4755,2.4523,2.4337,2.3739,2.2882,2.1656,2.0019,1.8235,1.781,1.6648,1.3097,0.8078,0.4242,0.2323,-0.0053,-0.2479,-0.4372,-0.6308,-0.7105,-0.8247,-0.9386,-0.9415,-0.904,-0.8962,-0.891,-0.8811,-0.8857,-0.8903,-0.9008,-0.9061,-0.9316,-0.9666,-0.9961,-1.0108,-1.0218,-1.0202,-1.0265,-1.0388,-1.0448,-1.0847,-1.146,-1.1517,-1.1313,-1.15,-1.1655,-1.1485,-1.1508,-1.1889,-1.1561,-1.0476,-0.9803,-0.9456,-0.9362,-0.96,-0.9357,-0.8918,-0.9121,-0.9454,-0.9428,-0.9269,-0.9169,-0.9106,-0.9023,-0.873,3.7565,3.6507,3.6834,3.6911,3.7012,3.8334,3.8161,3.6873,3.8161,3.7302,3.572,3.577,3.5495,3.4773,3.4445,3.418,3.3906,3.3623,3.2822,3.136,3.0684,3.0272,2.9698,2.7991,2.6801,2.6661,2.6224,2.5957,2.5926,2.6408,2.6262,2.5426,2.5223,2.5027,2.4195,2.3472,2.3305,2.327,2.3356,2.3365,2.344,2.3539,2.3606,2.3608,2.3583,2.3601,2.3637,2.3732,2.3812,2.3932,2.4116,2.4027,2.3768,2.3158,2.2154,2.068,1.905,1.7004,1.48,1.3701,1.1885,0.8398,0.4654,0.081,-0.2471,-0.3951,-0.5186,-0.6095,-0.723,-0.8455,-0.9474,-1.0195,-1.0254,-0.9865,-0.9614,-0.9361,-0.9061,-0.9256,-0.9658,-1.0064,-1.0261,-1.0415,-1.0568,-1.0618,-1.0712,-1.0813,-1.0965,-1.0965,-1.1173,-1.1411,-1.1809,-1.2353,-1.2242,-1.2033,-1.2097,-1.2168,-1.2031,-1.2069,-1.2467,-1.2536,-1.1439,-1.0935,-1.069,-1.0615,-1.065,-1.0214,-0.9479,-0.9359,-0.9633,-0.9509,-0.9435,-0.9413,-0.9355,-0.9217,-0.8994,3.7379,3.594,3.6991,3.7118,3.6913,3.8692,3.855,3.7252,3.838,3.7572,3.5642,3.5704,3.5367,3.4461,3.3981,3.3723,3.3533,3.2946,3.2491,3.182,3.1105,3.0469,3.019,2.876,2.7656,2.787,2.7575,2.7038,2.6718,2.6506,2.6097,2.4761,2.4941,2.4374,2.3484,2.292,2.2712,2.266,2.2513,2.2548,2.2888,2.294,2.29,2.2906,2.2896,2.2856,2.2678,2.296,2.2933,2.2748,2.2467,2.2484,2.2569,2.1746,2.025,1.8318,1.6351,1.3876,1.1554,1.0339,0.8704,0.4819,0.1539,-0.176,-0.4443,-0.5991,-0.6253,-0.6632,-0.7605,-0.8732,-1.0056,-1.0468,-1.073,-1.1082,-1.032,-0.9821,-0.9762,-0.9814,-0.9909,-1.0312,-1.0517,-1.1107,-1.1358,-1.1366,-1.2043,-1.2473,-1.2434,-1.2444,-1.2227,-1.2425,-1.2541,-1.2852,-1.2822,-1.2783,-1.2754,-1.2656,-1.249,-1.2656,-1.2966,-1.2863,-1.2309,-1.2123,-1.2017,-1.1598,-1.1003,-1.0641,-1.0064,-0.9958,-0.9843,-0.9914,-0.9887,-0.9763,-0.9618,-0.9515,-0.9199,3.7147,3.5071,3.7281,3.7578,3.7034,3.8861,3.8612,3.7124,3.8002,3.7129,3.5439,3.5435,3.5272,3.421,3.3724,3.334,3.2816,3.2277,3.2094,3.2353,3.1232,3.0598,3.0155,2.9472,2.8954,2.9723,2.8514,2.7761,2.719,2.6764,2.5364,2.3939,2.3988,2.3418,2.2247,2.1955,2.1989,2.1982,2.1724,2.1749,2.2221,2.2314,2.2271,2.2275,2.2252,2.2177,2.2012,2.2111,2.2099,2.152,2.0289,2.0178,2.0272,1.9733,1.8096,1.5756,1.3789,1.1504,0.9171,0.8025,0.6373,0.2514,-0.0723,-0.355,-0.5706,-0.6204,-0.647,-0.723,-0.8049,-0.8718,-1.0356,-1.0511,-1.1123,-1.1625,-1.0728,-1.0423,-1.0618,-1.0415,-1.0364,-1.0576,-1.1233,-1.1823,-1.212,-1.2267,-1.3273,-1.3993,-1.3852,-1.3768,-1.3505,-1.3238,-1.318,-1.3055,-1.2929,-1.2891,-1.2861,-1.2842,-1.2725,-1.2887,-1.3219,-1.3145,-1.2974,-1.299,-1.2644,-1.1618,-1.1035,-1.0721,-1.0468,-1.0215,-1.0157,-1.0322,-1.0215,-0.9982,-0.9884,-0.9785,-0.9424,3.6717,3.5786,3.6864,3.7527,3.8002,3.8496,3.8048,3.72,3.7351,3.6295,3.4757,3.5795,3.544,3.4265,3.4164,3.3503,3.2426,3.1861,3.1966,3.2055,3.1324,3.0986,3.0421,2.9742,2.9321,2.8453,2.7431,2.6545,2.6252,2.5256,2.4292,2.3288,2.2881,2.2102,2.1578,2.1209,2.1356,2.1467,2.1182,2.1164,2.136,2.1367,2.1348,2.1359,2.1391,2.1343,2.136,2.124,2.0842,1.9945,1.9206,1.8181,1.7174,1.6305,1.4899,1.3336,1.148,0.9452,0.7335,0.5836,0.5079,0.3021,-0.0835,-0.4401,-0.6046,-0.6529,-0.6853,-0.7557,-0.8321,-0.9054,-0.9814,-1.0084,-1.0171,-1.0501,-1.0821,-1.0821,-1.1283,-1.1434,-1.1584,-1.185,-1.2255,-1.254,-1.2725,-1.3006,-1.3569,-1.4086,-1.4133,-1.4272,-1.4376,-1.3873,-1.342,-1.32,-1.2929,-1.2891,-1.2881,-1.2881,-1.288,-1.2948,-1.3188,-1.3226,-1.3198,-1.3532,-1.3083,-1.1939,-1.126,-1.1025,-1.0742,-1.042,-1.0322,-1.0322,-1.0225,-1.0166,-1.0049,-0.9902,-0.9751,3.6205,3.518,3.5937,3.6581,3.7065,3.7564,3.7285,3.6594,3.6769,3.5918,3.5094,3.5681,3.5377,3.404,3.3854,3.2948,3.1482,3.0886,3.0701,3.0465,3.0473,3.0443,2.9995,2.9318,2.8373,2.719,2.5812,2.5316,2.5643,2.4455,2.3288,2.257,2.2214,2.1853,2.1313,2.1203,2.1254,2.1256,2.0803,2.0565,2.0894,2.078,2.0634,2.0618,2.0574,2.0498,2.0065,1.9929,1.9325,1.8236,1.6835,1.5496,1.4161,1.2749,1.17,1.0919,0.9497,0.7331,0.5045,0.3198,0.28,0.3699,-0.1113,-0.4794,-0.615,-0.6681,-0.7128,-0.8109,-0.8844,-0.9418,-0.9821,-0.9784,-1.0051,-1.0415,-1.072,-1.1292,-1.195,-1.2246,-1.2578,-1.2852,-1.2774,-1.2852,-1.3304,-1.3589,-1.392,-1.4143,-1.4318,-1.4595,-1.496,-1.4329,-1.36,-1.3142,-1.2881,-1.2832,-1.2832,-1.2774,-1.2881,-1.3017,-1.3045,-1.3094,-1.3032,-1.3162,-1.2842,-1.2004,-1.1616,-1.1172,-1.0763,-1.0322,-1.0322,-1.0322,-1.0293,-1.0205,-1.0137,-1.0038,-0.9925,3.5805,3.4473,3.5375,3.5716,3.5806,3.6395,3.6223,3.5665,3.584,3.5274,3.4408,3.5271,3.5066,3.3827,3.3141,3.2115,2.995,2.9581,2.9396,2.9315,2.9412,2.9435,2.8898,2.8077,2.7084,2.6036,2.4747,2.4128,2.4329,2.3383,2.24,2.1695,2.1706,2.1406,2.079,2.0362,2.0988,2.0844,2.032,2.0,2.0431,2.0299,2.0024,1.9913,1.9867,1.9293,1.8576,1.8187,1.7028,1.5712,1.4214,1.2865,1.1601,0.9613,0.8763,0.884,0.7635,0.5085,0.2391,-0.0,-0.0056,0.117,-0.2006,-0.4721,-0.6465,-0.7171,-0.7616,-0.8652,-0.9162,-0.9446,-0.9487,-0.9732,-0.9933,-1.028,-1.0785,-1.1538,-1.2429,-1.2842,-1.2821,-1.2969,-1.291,-1.3065,-1.3324,-1.3684,-1.3909,-1.4154,-1.4329,-1.4514,-1.4744,-1.4272,-1.3589,-1.3094,-1.2774,-1.2715,-1.2666,-1.2559,-1.2725,-1.2929,-1.2939,-1.2909,-1.2732,-1.2555,-1.2129,-1.1768,-1.1484,-1.1064,-1.0645,-1.0322,-1.0322,-1.0322,-1.0322,-1.0293,-1.0234,-1.0262,-1.024,3.5924,3.4835,3.6034,3.5996,3.5098,3.5117,3.467,3.4053,3.4074,3.3888,3.3595,3.4529,3.4781,3.3987,3.2616,3.1183,2.9874,2.9284,2.9087,2.8902,2.8995,2.8779,2.8465,2.7841,2.6125,2.4883,2.3876,2.3385,2.2751,2.1629,2.1115,2.0752,2.0062,1.9308,1.9391,1.9339,1.875,1.9182,1.9101,1.9266,1.9651,1.9332,1.9078,1.8758,1.8159,1.7396,1.684,1.6195,1.4805,1.2272,1.2098,1.104,0.9307,0.8128,0.7317,0.6673,0.5449,0.3437,0.0668,-0.19,-0.3309,-0.2343,-0.3971,-0.5454,-0.6691,-0.7877,-0.8427,-0.8646,-0.8944,-0.9024,-0.9176,-0.9494,-0.9465,-1.0135,-1.1058,-1.1992,-1.2859,-1.2978,-1.3018,-1.3057,-1.3027,-1.3017,-1.3152,-1.3505,-1.3862,-1.4097,-1.434,-1.4514,-1.4422,-1.3967,-1.3379,-1.2783,-1.2666,-1.2657,-1.2559,-1.2461,-1.2666,-1.2881,-1.2852,-1.2783,-1.2598,-1.2334,-1.1777,-1.1445,-1.1191,-1.0928,-1.0538,-1.0322,-1.0322,-1.0322,-1.0322,-1.0322,-1.0312,-1.039,-1.0457,3.5955,3.5081,3.5641,3.5384,3.4597,3.4103,3.3429,3.2847,3.2944,3.2861,3.2791,3.3754,3.3772,3.261,3.0876,2.9646,2.8904,2.8543,2.8128,2.7853,2.7754,2.7455,2.6688,2.5954,2.4737,2.3375,2.2287,2.1004,2.0406,2.0167,2.0002,1.9602,1.9406,1.9047,1.8403,1.8841,1.8796,1.8712,1.8484,1.8569,1.8613,1.8222,1.7718,1.7383,1.6509,1.5712,1.4856,1.3851,1.3157,1.1422,1.117,0.9803,0.868,0.7548,0.6533,0.5425,0.493,0.3077,0.0223,-0.2802,-0.4048,-0.4497,-0.4595,-0.523,-0.6745,-0.8068,-0.8831,-0.8804,-0.8971,-0.9045,-0.9098,-0.946,-1.0201,-1.0824,-1.1481,-1.2286,-1.3001,-1.2968,-1.3057,-1.3076,-1.3152,-1.319,-1.3286,-1.3647,-1.3909,-1.3956,-1.4097,-1.419,-1.4014,-1.361,-1.2967,-1.2325,-1.2393,-1.255,-1.2452,-1.2353,-1.2666,-1.2881,-1.2881,-1.2793,-1.2598,-1.2246,-1.167,-1.1162,-1.085,-1.0576,-1.0361,-1.0322,-1.0322,-1.0322,-1.0322,-1.0361,-1.04,-1.0409,-1.0631,3.5666,3.5322,3.5445,3.4881,3.3869,3.3287,3.2555,3.1893,3.2198,3.2094,3.2066,3.2859,3.2488,3.0887,2.9595,2.8912,2.7963,2.7545,2.693,2.6443,2.6176,2.6,2.5493,2.4641,2.3332,2.1587,2.1166,1.9817,1.8637,1.8394,1.8754,1.8393,1.8531,1.8283,1.7894,1.7652,1.7537,1.7076,1.6941,1.7063,1.7167,1.6571,1.6037,1.5372,1.4642,1.3693,1.2715,1.1756,1.142,1.0424,0.903,0.7583,0.6582,0.608,0.5596,0.4843,0.4475,0.2464,-0.0391,-0.3028,-0.3999,-0.4535,-0.508,-0.5797,-0.6402,-0.7862,-0.8808,-0.8703,-0.9487,-0.9597,-0.9771,-1.0208,-1.0669,-1.1382,-1.1973,-1.2679,-1.3227,-1.321,-1.3126,-1.3056,-1.3238,-1.36,-1.3732,-1.392,-1.4003,-1.3862,-1.3862,-1.392,-1.3658,-1.3248,-1.2686,-1.208,-1.2129,-1.2286,-1.2187,-1.2246,-1.2559,-1.2871,-1.2881,-1.2754,-1.2539,-1.21,-1.1533,-1.1055,-1.0635,-1.043,-1.0322,-1.0322,-1.0322,-1.0322,-1.0322,-1.0428,-1.0467,-1.0564,-1.0937,3.5006,3.561,3.6044,3.4763,3.2595,3.2574,3.2096,3.107,3.1389,3.1451,3.1291,3.1983,3.08,2.9356,2.9181,2.8478,2.6654,2.6616,2.6122,2.5687,2.5453,2.5217,2.456,2.3599,2.2573,2.1562,2.0498,1.8906,1.7648,1.73,1.7577,1.7669,1.7433,1.6848,1.6136,1.5548,1.5321,1.5017,1.4931,1.5114,1.5052,1.453,1.3744,1.3273,1.2067,1.0848,1.0479,0.9834,0.9277,0.8218,0.6887,0.4924,0.3945,0.403,0.3887,0.3834,0.3732,0.1346,-0.1956,-0.3044,-0.33,-0.4653,-0.5806,-0.6334,-0.6262,-0.8329,-0.9061,-0.8755,-0.9717,-1.0521,-1.1046,-1.1752,-1.172,-1.1882,-1.2458,-1.323,-1.3576,-1.3404,-1.3302,-1.3125,-1.3382,-1.3873,-1.4179,-1.4411,-1.4097,-1.3956,-1.3684,-1.3742,-1.3334,-1.2968,-1.2442,-1.203,-1.1922,-1.1922,-1.1814,-1.208,-1.251,-1.2822,-1.2881,-1.2686,-1.2394,-1.1934,-1.1479,-1.1035,-1.0654,-1.0449,-1.0322,-1.0322,-1.0322,-1.0322,-1.0361,-1.0428,-1.0909,-1.1282,-1.1697,3.3498,3.3742,3.3561,3.2866,3.1882,3.1486,3.0198,2.8788,2.9623,2.9877,2.9456,2.8906,2.7943,2.7097,2.6982,2.6942,2.5865,2.5851,2.5287,2.4697,2.4284,2.3748,2.3025,2.214,2.0966,2.012,1.9225,1.8155,1.6654,1.6618,1.5959,1.5841,1.6201,1.5602,1.4721,1.3669,1.3273,1.329,1.3305,1.3507,1.3331,1.2467,1.1639,1.1138,1.0286,0.9253,0.872,0.8217,0.798,0.7465,0.6107,0.3725,-0.0,-0.0,-0.0,-0.0,0.196,0.0056,-0.2422,-0.348,-0.421,-0.467,-0.5771,-0.6362,-0.6094,-0.7849,-0.8604,-0.9026,-1.0107,-1.1201,-1.1383,-1.2206,-1.273,-1.2597,-1.2975,-1.3793,-1.3984,-1.3824,-1.3559,-1.3432,-1.3868,-1.4387,-1.4652,-1.4915,-1.4457,-1.4003,-1.3742,-1.3478,-1.3113,-1.2783,-1.2304,-1.2039,-1.199,-1.1625,-1.1466,-1.1931,-1.251,-1.2725,-1.2881,-1.2676,-1.2375,-1.1904,-1.1479,-1.1035,-1.0674,-1.0459,-1.0322,-1.0322,-1.0322,-1.0322,-1.039,-1.0457,-1.1099,-1.1889,-1.2437,3.2271,3.2191,3.1325,3.1118,3.1212,3.0595,2.907,2.7515,2.8292,2.8184,2.7216,2.605,2.5218,2.4784,2.4902,2.4607,2.4328,2.4103,2.3722,2.3132,2.2469,2.2003,2.1342,2.064,1.9812,1.8701,1.8191,1.7446,1.6258,1.6141,1.5514,1.5055,1.5115,1.4619,1.348,1.2221,1.1748,1.1774,1.1617,1.1545,1.131,1.045,0.9552,0.9011,0.823,0.7791,0.7282,0.6802,0.6766,0.6259,0.502,0.2559,-0.0,-0.0,-0.0,-0.0,-0.0525,-0.1239,-0.2452,-0.374,-0.483,-0.5078,-0.5786,-0.6046,-0.6335,-0.7492,-0.8725,-0.8926,-1.0516,-1.19,-1.2012,-1.3254,-1.396,-1.397,-1.3938,-1.4506,-1.4472,-1.4346,-1.4037,-1.3791,-1.4297,-1.4617,-1.456,-1.4687,-1.4272,-1.3826,-1.3467,-1.3248,-1.3065,-1.2676,-1.2206,-1.2049,-1.2049,-1.1584,-1.1174,-1.1999,-1.2676,-1.2774,-1.2861,-1.2734,-1.2432,-1.1904,-1.1469,-1.1016,-1.0674,-1.042,-1.0322,-1.0322,-1.0322,-1.0322,-1.0572,-1.0933,-1.1476,-1.2247,-1.2906,3.1486,3.1438,3.0094,2.994,3.0332,2.9897,2.9003,2.7736,2.734,2.6482,2.5209,2.4206,2.3394,2.3012,2.3299,2.2946,2.2104,2.1872,2.1599,2.1095,2.0778,2.0568,2.0182,1.9543,1.8861,1.8464,1.7819,1.7056,1.6141,1.597,1.5278,1.4268,1.3978,1.3535,1.2339,1.1042,1.0264,0.9859,0.9406,0.9284,0.9031,0.8442,0.7822,0.7305,0.6706,0.6409,0.596,0.475,0.4597,0.4421,0.2497,-0.0,-0.0,-0.0,-0.0,-0.0,-0.1727,-0.2405,-0.2872,-0.4168,-0.4846,-0.5171,-0.5834,-0.6092,-0.6155,-0.7455,-0.919,-0.9321,-1.1301,-1.2978,-1.393,-1.4669,-1.4923,-1.508,-1.4916,-1.4898,-1.4857,-1.5305,-1.511,-1.4572,-1.4553,-1.4709,-1.4479,-1.4283,-1.3967,-1.36,-1.319,-1.2968,-1.2929,-1.2725,-1.2314,-1.2098,-1.2098,-1.1891,-1.1633,-1.2314,-1.2832,-1.2891,-1.2822,-1.2695,-1.2383,-1.1865,-1.1416,-1.0986,-1.0645,-1.0361,-1.0322,-1.0322,-1.0322,-1.039,-1.1196,-1.1681,-1.213,-1.2645,-1.3289,2.9296,2.8916,2.8419,2.8106,2.808,2.8718,2.7992,2.6302,2.4654,2.3685,2.3319,2.2261,2.1187,2.0894,2.1141,2.1071,2.02,2.0028,1.976,1.9641,1.9073,1.8378,1.8054,1.8208,1.7839,1.7127,1.671,1.6619,1.6069,1.5794,1.4757,1.3639,1.2546,1.1715,1.1224,1.037,0.9702,0.9256,0.8896,0.8587,0.8019,0.741,0.6809,0.6358,0.5739,0.5284,0.483,0.3294,0.2565,0.2441,0.0444,-0.0,-0.0,-0.0,-0.0,-0.2628,-0.4232,-0.4302,-0.4482,-0.5043,-0.5098,-0.5359,-0.5705,-0.6137,-0.64,-0.7507,-0.8779,-1.0097,-1.1796,-1.3235,-1.4085,-1.4864,-1.5235,-1.5294,-1.5235,-1.5245,-1.5407,-1.6266,-1.6515,-1.5588,-1.5284,-1.4942,-1.4684,-1.4025,-1.3647,-1.343,-1.3065,-1.2978,-1.2939,-1.2832,-1.2569,-1.2295,-1.2138,-1.2039,-1.2138,-1.2559,-1.2832,-1.2891,-1.2793,-1.2646,-1.2266,-1.1822,-1.1283,-1.0723,-1.0528,-1.0322,-1.0322,-1.0322,-1.0322,-1.0572,-1.1308,-1.1791,-1.207,-1.2795,-1.3749,2.8203,2.759,2.756,2.736,2.706,2.7624,2.6763,2.4851,2.2822,2.1954,2.1725,2.0649,1.9444,1.8798,1.8808,1.8685,1.789,1.7812,1.7812,1.7755,1.7241,1.6693,1.6513,1.6573,1.6477,1.593,1.5928,1.6005,1.5798,1.5231,1.4189,1.2723,1.1373,1.1005,1.0607,1.0119,0.9435,0.9018,0.8745,0.8448,0.7882,0.7339,0.6849,0.6086,0.5424,0.4841,0.3973,0.2823,0.1523,0.1027,-0.0,-0.0,-0.0,-0.0,-0.0,-0.4261,-0.5396,-0.5348,-0.5276,-0.5246,-0.5305,-0.5397,-0.5686,-0.6203,-0.685,-0.7897,-0.9348,-1.0788,-1.2243,-1.3408,-1.4451,-1.5235,-1.5352,-1.542,-1.5468,-1.5468,-1.6016,-1.686,-1.697,-1.6104,-1.5345,-1.5056,-1.4625,-1.3936,-1.3276,-1.3104,-1.2939,-1.2891,-1.2891,-1.2832,-1.2725,-1.2403,-1.2295,-1.2236,-1.2295,-1.2501,-1.2725,-1.2881,-1.2783,-1.2656,-1.2109,-1.1665,-1.1077,-1.0577,-1.043,-1.0322,-1.0322,-1.0322,-1.0428,-1.0725,-1.1292,-1.1693,-1.1926,-1.2945,-1.4122,2.8158,2.7575,2.7509,2.7417,2.734,2.6592,2.5535,2.4124,2.2531,2.1365,2.0568,1.9683,1.8335,1.6904,1.6766,1.6341,1.5632,1.5421,1.5421,1.5342,1.5184,1.4996,1.4996,1.5114,1.5095,1.5195,1.5313,1.5536,1.5292,1.4542,1.3459,1.2352,1.1171,1.0739,1.0409,1.0082,0.9529,0.9145,0.8951,0.8584,0.799,0.7985,0.7177,0.6363,0.5506,0.5249,0.491,0.4641,0.3863,0.2864,-0.0,-0.0,-0.0,-0.0,-0.0,-0.3988,-0.4846,-0.5399,-0.5392,-0.5349,-0.538,-0.5554,-0.6593,-0.685,-0.7367,-0.8404,-1.0046,-1.1348,-1.2732,-1.3948,-1.505,-1.5235,-1.542,-1.5468,-1.5584,-1.5921,-1.6415,-1.6784,-1.6817,-1.6221,-1.535,-1.4742,-1.4142,-1.3467,-1.3104,-1.3017,-1.2891,-1.2891,-1.2891,-1.2891,-1.2725,-1.2412,-1.2344,-1.2452,-1.2559,-1.2666,-1.2725,-1.2891,-1.288,-1.2714,-1.2116,-1.1514,-1.1087,-1.0685,-1.043,-1.0361,-1.0505,-1.0572,-1.0601,-1.1046,-1.1645,-1.2034,-1.2435,-1.3446,-1.4526,2.6724,2.6119,2.6069,2.5891,2.5502,2.4699,2.4028,2.3433,2.1762,2.0613,1.9961,1.8843,1.7377,1.572,1.628,1.55,1.4657,1.4171,1.4171,1.3947,1.3484,1.3208,1.3346,1.3641,1.3693,1.4044,1.4447,1.4944,1.4492,1.3767,1.3038,1.2178,1.1185,1.0781,1.0479,1.0234,0.987,0.9512,0.9406,0.887,0.8425,0.8458,0.7491,0.6498,0.6057,0.5793,0.5491,0.5439,0.4857,0.4443,0.4051,-0.0,-0.0,-0.0,-0.106,-0.1566,-0.3496,-0.5394,-0.5391,-0.5408,-0.5428,-0.5818,-0.7051,-0.7827,-0.8275,-0.9157,-1.0801,-1.2112,-1.3158,-1.4314,-1.505,-1.5294,-1.5526,-1.5642,-1.5864,-1.6472,-1.7034,-1.7587,-1.7493,-1.6565,-1.5625,-1.4563,-1.3882,-1.3286,-1.2978,-1.2929,-1.2891,-1.2891,-1.2891,-1.2891,-1.2832,-1.2559,-1.251,-1.2666,-1.2725,-1.2832,-1.2881,-1.2881,-1.2774,-1.2512,-1.1911,-1.1397,-1.1074,-1.0753,-1.043,-1.0544,-1.0791,-1.0819,-1.0847,-1.1578,-1.2201,-1.2549,-1.3049,-1.4051,-1.4868,2.595,2.5123,2.5075,2.4611,2.3804,2.259,2.1979,2.1738,2.0878,2.0186,1.9432,1.8478,1.6778,1.5078,1.5325,1.4714,1.3042,1.3114,1.3171,1.2938,1.2104,1.189,1.1951,1.2198,1.2393,1.2797,1.3506,1.4219,1.3827,1.314,1.2375,1.1536,1.1017,1.0913,1.0733,1.0725,1.0573,1.0166,0.9786,0.9348,0.9117,0.8946,0.8052,0.6991,0.6716,0.6191,0.5554,0.5435,0.5372,0.5372,0.5393,-0.0,-0.0,-0.0,-0.0,-0.0,-0.1574,-0.387,-0.4891,-0.5372,-0.5372,-0.5822,-0.712,-0.7897,-0.8982,-0.9933,-1.1377,-1.2749,-1.3597,-1.4451,-1.4991,-1.541,-1.5642,-1.5816,-1.6425,-1.6978,-1.7743,-1.8513,-1.7979,-1.6983,-1.5884,-1.4722,-1.3903,-1.3302,-1.2891,-1.2891,-1.2891,-1.2891,-1.2891,-1.2891,-1.2891,-1.2774,-1.2774,-1.2881,-1.2891,-1.2881,-1.2774,-1.2618,-1.2335,-1.2043,-1.1562,-1.1223,-1.0828,-1.0601,-1.0361,-1.0611,-1.0905,-1.1035,-1.1153,-1.1999,-1.288,-1.3441,-1.3938,-1.4661,-1.5359,2.5523,2.4378,2.4242,2.3433,2.2258,2.0563,1.9725,1.9579,1.9816,1.9622,1.8806,1.8179,1.644,1.4638,1.4604,1.3785,1.2721,1.239,1.2519,1.2218,1.1162,1.0789,1.0932,1.0679,1.0937,1.1605,1.2416,1.323,1.3371,1.2863,1.1949,1.0715,1.1234,1.1199,1.0759,1.1044,1.0919,1.0471,1.0094,0.9774,0.9767,0.9669,0.9347,0.7874,0.726,0.6721,0.5826,0.5491,0.5428,0.5432,0.5213,0.4695,0.3396,-0.0,-0.0,-0.0,-0.0,-0.22,-0.4161,-0.5113,-0.5379,-0.576,-0.6531,-0.7767,-0.9046,-1.0508,-1.1888,-1.2879,-1.3726,-1.451,-1.5108,-1.5575,-1.5921,-1.6197,-1.6708,-1.709,-1.7479,-1.8035,-1.7794,-1.6874,-1.6014,-1.4807,-1.3811,-1.3203,-1.3018,-1.2959,-1.2891,-1.2891,-1.2891,-1.2891,-1.2891,-1.2891,-1.2891,-1.2891,-1.2891,-1.2832,-1.2559,-1.2344,-1.2129,-1.1916,-1.1788,-1.1242,-1.0585,-1.0438,-1.0322,-1.0687,-1.0971,-1.1249,-1.1805,-1.2785,-1.3611,-1.4342,-1.4948,-1.5474,-1.6034,2.3944,2.351,2.2283,2.1519,2.098,1.9431,1.8797,1.8797,1.7812,1.755,1.7529,1.7072,1.5935,1.4237,1.4228,1.3362,1.2219,1.2078,1.2265,1.1656,1.0599,1.0135,1.0243,0.9456,0.958,1.0611,1.1532,1.2193,1.2431,1.2276,1.1933,1.0796,1.1149,1.1148,1.0631,1.0989,1.0912,1.0598,1.0401,1.016,1.008,1.0104,0.9806,0.8747,0.7978,0.7316,0.6457,0.5749,0.5557,0.5428,0.5372,0.5219,0.4866,0.1789,-0.0,-0.0,-0.0,-0.0,-0.3082,-0.464,-0.5316,-0.609,-0.6924,-0.8027,-0.9372,-1.0885,-1.2081,-1.294,-1.3795,-1.4569,-1.5225,-1.568,-1.6197,-1.6585,-1.6933,-1.709,-1.7202,-1.7313,-1.7398,-1.6763,-1.5956,-1.4956,-1.3868,-1.3359,-1.3193,-1.3047,-1.293,-1.2891,-1.2891,-1.2891,-1.2891,-1.2891,-1.2891,-1.2891,-1.2891,-1.2832,-1.2618,-1.2501,-1.2393,-1.2196,-1.194,-1.1483,-1.0999,-1.0531,-1.04,-1.0843,-1.1362,-1.19,-1.2601,-1.3557,-1.4481,-1.5228,-1.5814,-1.6354,-1.6863,2.269,2.205,2.0945,2.0195,1.9658,1.8827,1.8151,1.7622,1.6866,1.6216,1.5851,1.5581,1.4827,1.3597,1.3515,1.2908,1.1722,1.1931,1.1924,1.1357,1.0234,0.9712,0.906,0.8421,0.8501,0.9364,1.0609,1.1365,1.1494,1.1943,1.1723,1.0962,1.1127,1.1166,1.0792,1.0863,1.0863,1.0624,1.0618,1.0454,1.0294,1.0365,1.0053,0.919,0.8642,0.7887,0.6972,0.6133,0.5815,0.5557,0.5432,0.5376,0.503,0.3682,0.1738,-0.0,-0.0,-0.0805,-0.2547,-0.4095,-0.5316,-0.609,-0.7447,-0.8613,-0.9831,-1.1288,-1.2143,-1.3,-1.4332,-1.5167,-1.5284,-1.5633,-1.6358,-1.6912,-1.6978,-1.7034,-1.7202,-1.7313,-1.7137,-1.6642,-1.5737,-1.4616,-1.374,-1.3262,-1.3105,-1.2998,-1.29,-1.2891,-1.2891,-1.2891,-1.2891,-1.2891,-1.2891,-1.2891,-1.2891,-1.2832,-1.2666,-1.2608,-1.2598,-1.209,-1.1705,-1.164,-1.1406,-1.093,-1.0805,-1.1208,-1.1733,-1.2354,-1.3272,-1.4233,-1.5227,-1.6176,-1.6659,-1.7076,-1.7412,2.1624,2.0461,1.9907,1.9214,1.8555,1.827,1.7577,1.6652,1.6379,1.5555,1.4419,1.4198,1.3545,1.287,1.2411,1.1625,1.1156,1.1255,1.1331,1.063,0.948,0.8905,0.8356,0.7843,0.7842,0.8412,0.967,1.0013,1.0126,1.0855,1.1322,1.1064,1.1288,1.1539,1.1073,1.1108,1.1163,1.0744,1.0555,1.0498,1.0491,1.0561,1.0155,0.9709,0.9204,0.8404,0.7353,0.658,0.6203,0.5752,0.5428,0.5435,0.5376,0.477,0.3151,-0.0,-0.0,-0.067,-0.221,-0.4097,-0.497,-0.5958,-0.7712,-0.9128,-1.0288,-1.1413,-1.2266,-1.3174,-1.4501,-1.5225,-1.5294,-1.5853,-1.6574,-1.6968,-1.6912,-1.6968,-1.7135,-1.7135,-1.6733,-1.6373,-1.5532,-1.4405,-1.3828,-1.334,-1.3076,-1.2959,-1.2891,-1.2891,-1.2891,-1.2891,-1.2891,-1.2891,-1.2891,-1.2891,-1.2891,-1.2832,-1.2725,-1.2618,-1.2521,-1.1927,-1.1535,-1.1738,-1.166,-1.1286,-1.1308,-1.163,-1.2235,-1.2883,-1.3841,-1.4807,-1.5849,-1.6733,-1.6986,-1.7399,-1.7788,2.0304,1.9083,1.8963,1.8489,1.7797,1.718,1.6698,1.6425,1.5874,1.505,1.4213,1.3433,1.2765,1.2042,1.2172,1.1458,1.0242,1.0454,0.9921,0.9157,0.8408,0.8006,0.756,0.713,0.7084,0.7742,0.8582,0.9023,0.9197,0.9953,1.0239,0.9769,1.0683,1.0907,1.0728,1.0667,1.0541,1.0301,1.0295,1.0238,0.9913,1.0047,1.0498,1.011,0.9658,0.8784,0.7867,0.7033,0.6264,0.5686,0.5428,0.5432,0.5369,0.5309,0.4025,0.248,0.1073,-0.0,-0.0,-0.0,-0.4564,-0.5561,-0.7251,-0.8935,-1.0275,-1.1841,-1.2512,-1.2948,-1.4094,-1.4864,-1.5274,-1.6348,-1.7135,-1.6856,-1.6754,-1.6968,-1.7135,-1.6631,-1.6063,-1.5776,-1.5351,-1.4533,-1.3951,-1.3555,-1.3154,-1.3027,-1.2891,-1.2891,-1.2891,-1.2891,-1.2881,-1.2891,-1.2891,-1.2891,-1.2891,-1.2881,-1.2774,-1.2666,-1.2521,-1.2156,-1.1978,-1.2089,-1.1959,-1.1784,-1.1799,-1.2034,-1.2663,-1.354,-1.4242,-1.5227,-1.6389,-1.7199,-1.7432,-1.7659,-1.8005]},{"header":{"parameterUnit":"m.s-1","parameterCategory":1,"la1":31.0,"la2":29.5877,"lo1":-88.7671,"lo2":-86.6584,"dy":0.0162,"dx":0.0185,"nx":115,"ny":88,"refTime":"2023-08-27T06:00:00:Z","depth":0,"parameterNumber":3,"parameterNumberName":"V-component_of_WINDS"},"data":[0.0,0.0,0.0,0.0,0.0,0.0,0.0,0.0,0.0,0.0,0.0,0.0,0.0,0.0,0.0,0.0,0.0,0.0,0.0,0.0,0.0,0.0,0.0,0.0,0.0,0.0,0.0,0.0,0.0,0.0,0.0,0.0,0.0,0.0,0.0,0.0,0.0,0.0,0.0,0.0,0.0,0.0,0.0,0.0,0.0,0.0,0.0,0.0,0.0,0.0,0.0,0.0,0.0,0.0,0.0,0.0,0.0,0.0,0.0,0.0,0.0,0.0,0.0,0.0,0.0,0.0,0.0,0.0,0.0,0.0,0.0,0.0,0.0,0.0,0.0,0.0,0.0,0.0,0.0,0.0,0.0,0.0,0.0,0.0,0.0,0.0,0.0,0.0,0.0,0.0,0.0,0.0,0.0,0.0,0.0,0.0,0.0,0.0,0.0,0.0,0.0,0.0,0.0,0.0,0.0,0.0,0.0,0.0,0.0,0.0,0.0,0.0,0.0,0.0,0.0,0.0,0.0,0.0,0.0,0.0,0.0,0.0,0.0,0.0,0.0,0.0,0.0,0.0,0.0,0.0,0.0,0.0,0.0,0.0,0.0,0.0,0.0,0.0,0.0,0.0,0.0,0.0,0.0,0.0,0.0,0.0,0.0,0.0,0.0,0.0,0.0,0.0,0.0,0.0,0.0,0.0,0.0,0.0,0.0,0.0,0.0,0.0,0.0,0.0,0.0,0.0,0.0,0.0,0.0,0.0,0.0,0.0,0.0,0.0,0.0,0.0,0.0,0.0,0.0,0.0,0.0,0.0,0.0,0.0,0.0,0.0,0.0,0.0,0.0,0.0,0.0,0.0,0.0,0.0,0.0,0.0,0.0,0.0,0.0,0.0,0.0,0.0,0.0,0.0,0.0,0.0,0.0,0.0,0.0,0.0,0.0,0.0,0.0,0.0,0.0,0.0,0.0,0.0,0.0,0.0,0.0,0.0,0.0,0.0,0.0,0.0,0.0,0.0,0.0,0.0,0.0,0.0,0.0,0.0,0.0,0.0,0.0,0.0,0.0,0.0,0.0,0.0,0.0,0.0,0.0,0.0,0.0,0.0,0.0,0.0,0.0,0.0,0.0,0.0,0.0,0.0,0.0,0.0,0.0,0.0,0.0,0.0,0.0,0.0,0.0,0.0,0.0,0.0,0.0,0.0,0.0,0.0,0.0,0.0,0.0,0.0,0.0,0.0,0.0,0.0,0.0,0.0,0.0,0.0,0.0,0.0,0.0,0.0,0.0,0.0,0.0,0.0,0.0,0.0,0.0,0.0,0.0,0.0,0.0,0.0,0.0,0.0,0.0,0.0,0.0,0.0,0.0,0.0,0.0,0.0,0.0,0.0,0.0,0.0,0.0,0.0,0.0,0.0,0.0,0.0,0.0,0.0,0.0,0.0,0.0,0.0,0.0,0.0,0.0,0.0,0.0,0.0,0.0,0.0,0.0,0.0,0.0,0.0,0.0,0.0,0.0,0.0,0.0,0.0,0.0,0.0,0.0,0.0,0.0,0.0,0.0,0.0,0.0,0.0,0.0,0.0,0.0,0.0,0.0,0.0,0.0,0.0,0.0,0.0,0.0,0.0,0.0,0.0,0.0,0.0,0.0,0.0,0.0,0.0,0.0,0.0,0.0,0.0,0.0,0.0,0.0,0.0,0.0,0.0,0.0,0.0,0.0,0.0,0.0,0.0,0.0,0.0,0.0,0.0,0.0,0.0,0.0,0.0,0.0,0.0,0.0,0.0,0.0,0.0,0.0,0.0,0.0,0.0,0.0,0.0,0.0,0.0,0.0,0.0,0.0,0.0,0.0,0.0,0.0,0.0,0.0,0.0,0.0,0.0,0.0,0.0,0.0,0.0,0.0,0.0,0.0,0.0,0.0,0.0,0.0,0.0,0.0,0.0,0.0,0.0,0.0,0.0,0.0,0.0,0.0,0.0,0.0,0.0,0.0,0.0,0.0,0.0,0.0,0.0,0.0,0.0,0.0,0.0,0.0,0.0,0.0,0.0,0.0,0.0,0.0,0.0,0.0,0.0,0.0,0.0,0.0,0.0,0.0,0.0,0.0,0.0,0.0,0.0,0.0,0.0,0.0,0.0,0.0,0.0,0.0,0.0,0.0,0.0,0.0,0.0,0.0,0.0,0.0,0.0,0.0,0.0,0.0,0.0,0.0,0.0,0.0,0.0,0.0,0.0,0.0,0.0,0.0,0.0,0.0,0.0,0.0,0.0,0.0,0.0,0.0,0.0,0.0,0.0,0.0,0.0,0.0,0.0,0.0,0.0,0.0,0.0,0.0,0.0,0.0,0.0,0.0,0.0,0.0,0.0,0.0,0.0,0.0,0.0,0.0,0.0,0.0,0.0,0.0,0.0,0.0,0.0,0.0,0.0,0.0,0.0,0.0,0.0,0.0,0.0,0.0,0.0,0.0,0.0,0.0,0.0,0.0,0.0,0.0,0.0,0.0,0.0,0.0,0.0,0.0,0.0,0.0,0.0,0.0,0.0,0.0,0.0,0.0,0.0,0.0,0.0,0.0,0.0,0.0,0.0,0.0,0.0,0.0,0.0,0.0,0.0,0.0,0.0,0.0,0.0,0.0,0.0,0.0,0.0,0.0,0.0,0.0,0.0,0.0,0.0,0.0,0.0,0.0,0.0,0.0,0.0,0.0,0.0,0.0,0.0,0.0,0.0,0.0,0.0,0.0,0.0,0.0,0.0,0.0,0.0,0.0,0.0,0.0,0.0,0.0,0.0,0.0,0.0,0.0,0.0,0.0,0.0,0.0,0.0,0.0,0.0,0.0,0.0,0.0,0.0,0.0,0.0,0.0,0.0,0.0,0.0,0.0,0.0,0.0,0.0,0.0,0.0,0.0,0.0,0.0,0.0,0.0,0.0,0.0,0.0,0.0,0.0,0.0,0.0,0.0,0.0,0.0,0.0,0.0,0.0,0.0,0.0,0.0,0.0,0.0,0.0,0.0,0.0,0.0,0.0,0.0,0.0,0.0,0.0,0.0,0.0,0.0,0.0,0.0,0.0,0.0,0.0,0.0,0.0,0.0,0.0,0.0,0.0,0.0,0.0,0.0,0.0,0.0,0.0,0.0,0.0,0.0,0.0,0.0,0.0,0.0,0.0,0.0,0.0,0.0,0.0,0.0,0.0,0.0,0.0,0.0,0.0,0.0,0.0,0.0,0.0,0.0,0.0,0.0,0.0,0.0,0.0,0.0,0.0,0.0,0.0,0.0,0.0,0.0,0.0,0.0,0.0,0.0,0.0,0.0,0.0,0.0,0.0,0.0,0.0,0.0,0.0,0.0,0.0,0.0,0.0,0.0,0.0,0.0,0.0,0.0,0.0,0.0,0.0,0.0,0.0,0.0,0.0,0.0,0.0,0.0,0.0,0.0,0.0,0.0,0.0,0.0,0.0,0.0,0.0,0.0,0.0,0.0,0.0,0.0,0.0,0.0,0.0,0.0,0.0,0.0,0.0,0.0,0.0,0.0,0.0,0.0,0.0,0.0,0.0,0.0,0.0,0.0,0.0,0.0,0.0,0.0,0.0,0.0,0.0,0.0,0.0,0.0,0.0,0.0,0.0,0.0,0.0,0.0,0.0,0.0,0.0,0.0,0.0,0.0,0.0,0.0,0.0,0.0,0.0,0.0,0.0,0.0,0.0,0.0,0.0,0.0,0.0,0.0,0.0,0.0,0.0,0.0,0.0,0.0,0.0,0.0,0.0,0.0,0.0,0.0,0.0,0.0,0.0,0.0,0.0,0.0,0.0,0.0,0.0,0.0,0.0,0.0,0.0,0.0,0.0,0.0,0.0,0.0,0.0,0.0,0.0,0.0,0.0,0.0,0.0,0.0,0.0,0.0,0.0,0.0,0.0,0.0,0.0,0.0,0.0,0.0,0.0,0.0,0.0,0.0,0.0,0.0,0.0,0.0,0.0,0.0,0.0,0.0,0.0,0.0,0.0,0.0,0.0,0.0,0.0,0.0,0.0,0.0,0.0,0.0,0.0,0.0,0.0,0.0,0.0,0.0,0.0,0.0,0.0,0.0,0.0,0.0,0.0,0.0,0.0,0.0,0.0,0.0,0.0,0.0,0.0,0.0,0.0,0.0,0.0,0.0,0.0,0.0,0.0,0.0,0.0,0.0,0.0,0.0,0.0,0.0,0.0,0.0,0.0,0.0,0.0,0.0,0.0,0.0,0.0,0.0,0.0,0.0,0.0,0.0,0.0,0.1819,0.0,0.0,0.0,0.0,0.0,0.0,0.0,0.0,0.0,0.0,0.0,0.0,0.0,0.0,0.0,0.0,0.0,0.0,0.0,0.0,0.0,0.0,0.0,0.0,0.0,0.0,0.0,0.0,0.0,0.0,0.0,0.0,0.0,0.0,0.0,0.0,0.0,0.0,0.0,0.0,0.0,0.0,0.0,0.0,0.0,0.0,0.0,0.0,0.0,0.0,0.0,0.0,0.0,0.0,0.0,0.0,0.0,0.0,0.0,0.0,0.0,0.0,0.0,0.0,0.0,0.0,0.0,0.0,0.0,0.0,0.0,0.0,0.0,0.0,0.0,0.0,0.0,0.0,0.0,0.0,0.0,0.0,0.0,0.0,0.0,0.0,0.0,0.0,0.0,0.0,0.0,0.0,0.0,0.0,0.0,0.0,0.0,0.0,0.0,0.0,0.0,0.0,0.0,0.0,0.0,0.0,0.0,0.0,0.0,0.0,0.105,0.1252,0.1363,0.1474,0.157,0.0,0.0,0.0,0.0,0.0,0.0,0.0,0.0,0.0,0.0,0.0,0.0,0.0,0.0,0.0,0.0,0.0,0.0,0.0,0.0,0.0,0.0,0.0,0.0,0.0,0.0,0.0,0.0,0.0,0.0,0.0,0.0,0.0,0.0,0.0,0.0,0.0,0.0,0.0,0.0,0.0,0.0,0.0,0.0,0.0,0.0,0.0,0.0,0.0,0.0,0.0,0.0,0.0,0.0,0.0,0.0,0.0,0.0,0.0,0.0,0.0,0.0,0.0,0.0,0.0,0.0,0.0,0.0,0.0,0.0,0.0,0.0,0.0,0.0,0.0,0.0,0.0,0.0,0.0,0.0,0.0,0.0,0.0,0.0,0.0,0.0,0.0,0.0,0.0,0.0,0.0,0.0,0.0,0.0,0.0,0.0,0.0,0.0,0.0,0.0,0.0,0.0,0.0,0.0,0.0,0.0,0.0,0.0,0.0,0.0,0.0,0.0,0.1174,0.1314,0.1428,0.0,0.0,0.0,0.0,0.0,0.0,0.0,0.0,0.0,0.0,0.0,0.0,0.0,0.0,0.0,0.0,0.0,0.0,0.0,0.0,0.0,0.0,0.0,0.0,0.0,0.0,0.0,0.0,0.0,0.0,0.0,0.0,0.0,0.0,0.0,0.0,0.0,0.0,0.0,0.0,0.0,0.0,0.0,0.0,0.0,0.0,0.0,0.0,0.0,0.0,0.0,0.0,0.0,0.0,0.0,0.0,0.0,0.0,0.0,0.0,0.0,0.0,0.0,0.0,0.0,0.0,0.0,0.0,0.0,0.0,0.0,0.0,0.0,0.0,0.0,0.0,0.0,0.0,0.0,0.0,0.0,0.0,0.0,0.0,0.0,0.0,0.0,0.0,0.0,0.0,0.0,0.0,0.0,0.0,0.0,0.0,0.0,0.0,0.0,0.0,0.0,0.0,0.0,0.0,0.0,0.0,0.0,0.0,0.0,0.0,0.0813,0.1017,0.1092,0.0,0.1481,0.0,0.0,0.0,0.0,0.0,0.0,0.0,0.0,0.0,0.0,0.0,0.0,0.0,0.0,0.0,0.0,0.0,0.0,0.0,0.0,0.0,0.0,0.0,0.0,0.0,0.0,0.0,0.0,0.0,0.0,0.0,0.0,0.0,0.0,0.0,0.0,0.0,0.0,0.0,0.0,0.0,0.0,0.0,0.0,0.0,0.0,0.0,0.0,0.0,0.0,0.0,0.0,0.0,0.0,0.0,0.0,0.0,0.0,0.0,0.0,0.0,0.0,0.0,0.0,0.0,0.0,0.0,0.0,0.0,0.0,0.0,0.0,0.0,0.0,0.0,0.0,0.0,0.0,0.0,0.0,0.0,0.0,0.0,0.0,0.0,0.0,0.0,0.0,0.0,0.0,0.0,0.0,0.0,0.0,0.0,0.0,0.0,0.0,0.0,0.0,0.0,0.0,0.0,0.0,0.0,0.0,0.0,0.0,0.0,0.0,0.0978,0.1182,0.141,0.1552,0.0,0.0,0.0,0.0,0.0,0.0,0.0,0.0,0.0,0.0,0.0,0.0,0.0,0.0,0.0,0.0,0.0,0.0,0.0,0.0,0.0,0.0,0.0,0.0,0.0,0.0,0.0,0.0,0.0,0.0,0.0,0.0,0.0,0.0,0.0,0.0,0.0,0.0,0.0,0.0,0.0,0.0,0.0,0.0,0.0,0.0,0.0,0.0,0.0,0.0,0.0,0.0,0.0,0.0,0.0,0.0,0.0,0.0,0.0,0.0,0.0,0.0,0.0,0.0,0.0,0.0,0.0,0.0,0.0,0.0,0.0,0.0,0.0,0.0,0.0,0.0,0.0,0.0,0.0,0.0,0.0,0.0,0.0,0.0,0.0,0.0,0.0,0.0,0.0,0.0,0.0,0.0,0.0,0.0,0.0,0.0,0.0,0.0,0.0,0.0,0.0,0.0,0.0,0.0,0.0,0.0,0.0,0.0,0.0,0.0,0.0678,0.1011,0.1313,0.1504,0.1589,0.1583,0.0,0.0,0.0,0.0,0.0,0.0,0.0,0.0,0.0,0.0,0.0,0.0,0.0,0.0,0.0,0.0,0.0,0.0,0.0,0.0,0.0,0.0,0.0,0.0,0.0,0.0,0.0,0.0,0.0,0.0,0.0,0.0,0.0,0.0,0.0,0.0,0.0,0.0,0.0,0.0,0.0,0.0,0.0,0.0,0.0,0.0,0.0,0.0,0.0,0.0,0.0,0.0,0.0,0.0,0.0,0.0,0.0,0.0,0.0,0.0,0.0,0.0,0.0,0.0,0.0,0.0,0.0,0.0,0.0,0.0,0.0,0.0,0.0,0.0,0.0,0.0,0.0,0.0,0.0,0.0,0.0,0.0,0.0,0.0,0.0,0.0,0.0,0.0,0.0,0.0,0.0,0.0,0.0,0.0,0.0,0.0,0.0,0.0,0.0,0.0,0.0,0.0,0.0,0.0,0.0,0.0,0.0,0.0,0.0373,0.0464,0.076,0.1284,0.1259,0.1218,0.0,0.0,0.0,0.0,0.0,0.0,0.0,0.0,0.0,0.0,0.0,0.0,0.0,0.0,0.0,0.0,0.0,0.0,0.0,0.0,0.0,0.0,0.0,0.0,0.0,0.0,0.0,0.0,0.0,0.0,0.0,0.0,0.0,0.0,0.0,0.0,0.0,0.0,0.0,0.0,0.0,0.0,0.0,0.0,0.0,0.0,0.0,0.0,0.0,0.0,0.0,0.0,0.0,0.0,0.0,0.0,0.0,0.0,0.0,0.0,0.0,0.0,0.0,0.0,0.0,0.0,0.0,0.0,0.0,0.0,0.0,0.0,0.0,0.0,0.0,0.0,0.0,0.0,0.0,0.0,0.0,0.0,0.0,0.0,0.0,0.0,0.0,0.0,0.0,0.0,0.0,0.0,0.0,0.0,0.0,0.0,0.0,0.0,0.0,0.0,0.0,0.0,0.0,0.0,0.0,0.0,0.0,0.0,0.0,0.0023,0.0501,0.0753,0.0784,0.1082,0.1254,0.0,0.0,0.0,0.0,0.0,0.0,0.0,0.0,0.0,0.0,0.0,0.0,0.0,0.0,0.0,0.0,0.0,0.0,0.0,0.0,0.0,0.0,0.0,0.0,0.0,0.0,0.0,0.0,0.0,0.0,0.0,0.0,0.0,0.0,0.0,0.0,0.0,0.0,0.0,0.0,0.0,0.0,0.0,0.0,0.0,0.0,0.0,0.0,0.0,0.0,0.0,0.0,0.0,0.0,0.0,0.0,0.0,0.0,0.0,0.0,0.0,0.0,0.0,0.0,0.0,0.0,0.0,0.0,0.0,0.0,0.0,0.0,0.0,0.0,0.0,0.0,0.0,0.0,0.0,0.0,0.0,0.0,0.0,0.0,0.0,0.0,0.0,0.0,0.0,0.0,0.0,0.0,0.0,0.0,0.0,0.0,0.0,0.0,0.0,0.0,0.0,0.0,0.0,0.0,0.0,0.0,0.0,0.0,0.0,-0.0135,0.0,0.0638,0.0493,0.0894,0.1111,0.0,0.0,0.0,0.0,0.0,0.0,0.0,0.0,0.0,0.0,0.0,0.0,0.0,0.0,0.0,0.0,0.0,0.0,0.0,0.0,0.0,0.0,0.0,0.0,0.0,0.0,0.0,0.0,0.0,0.0,0.0,0.0,0.0,0.0,0.0,0.0,0.0,0.0,0.0,0.0,0.0,0.0,0.0,0.0,0.0,0.0,0.0,0.0,0.0,0.0,0.0,0.0,0.0,0.0,0.0,0.0,0.0,0.0,0.0,0.0,0.0,0.0,0.0,0.0,0.0,0.0,0.0,0.0,0.0,0.0,0.0,0.0,0.0,0.0,0.0,0.0,0.0,0.0,0.0,0.0,0.0,0.0,0.0,0.0,0.0,0.0,0.0,0.0,0.0,0.0,0.0,0.0,0.0,0.0,0.0,0.0,0.0,0.0,0.0,0.0,0.0,0.0,0.0,0.0,0.0,0.0,0.0,0.0,-0.0541,-0.0044,0.0269,0.0428,0.0424,0.0717,0.0721,0.0,0.0,0.0,0.0,0.0,0.0,0.0,0.0,0.0,0.0,0.0,0.0,0.0,0.0,0.0,0.0,0.0,0.0,0.0,0.0,0.0,0.0,0.0,0.0,0.0,0.0,0.0,0.0,0.0,0.0,0.0,0.0,0.0,0.0,0.0,0.0,0.0,0.0,0.0,0.0,0.0,0.0,0.0,0.0,0.0,0.0,0.0,0.0,0.0,0.0,0.0,0.0,0.0,0.0,0.0,0.0,0.0,0.0,0.0,0.0,0.0,0.0,0.0,0.0,0.0,0.0,0.0,0.0,0.0,0.0,0.0,0.0,0.0,0.0,0.0,0.0,0.0,0.0,0.0,0.0,0.0,0.0,0.0,0.0,0.0,0.0,0.0,0.0,0.0,0.0,0.0,0.0,0.0,0.0,0.0,0.0,0.0,0.0,0.0,0.0,0.0,0.0,0.0,0.0,0.0,0.0,0.0,0.0,0.0,-0.047,0.009,0.0738,0.1456,0.1175,0.1082,0.0,0.0,0.0,0.0,0.0,0.0,0.0,0.0,0.0,0.0,0.0,0.0,0.0,0.0,0.0,0.0,0.0,0.0,0.0,0.0,0.0,0.0,0.0,0.0,0.0,0.0,0.0,0.0,0.0,0.0,0.0,0.0,0.0,0.0,0.0,0.0,0.0,0.0,0.0,0.0,0.0,0.0,0.0,0.0,0.0,0.0,0.0,0.0,0.0,0.0,0.0,0.0,0.0,0.0,0.0,0.0,0.0,0.0,0.0,0.0,0.0,0.0,0.0,0.0,0.0,0.0,0.0,0.0,0.0,0.0,0.0,0.0,0.0,0.0,0.0,0.0,0.0,0.0,0.0,0.0,0.0,0.0,0.0,0.0,0.0,0.0,0.0,0.0,0.0,0.0,0.0,0.0,0.0,0.0,0.0,0.0,0.0,0.0,0.0,0.0,0.0,0.0,0.0,0.0,0.0,0.0,0.0,0.0,0.0,0.0505,0.074,0.1233,0.2028,0.1798,0.1669,0.1696,0.0,0.0,0.0,0.0,0.0,0.0,0.0,0.0,0.0,0.0,0.0,0.0,0.0,0.0,0.0,0.0,0.0,0.0,0.0,0.0,0.0,0.0,0.0,0.0,0.0,0.0,0.0,0.0,0.0,0.0,0.0,0.0,0.0,0.0,0.0,0.0,0.0,0.0,0.0,0.0,0.0,0.0,0.0,0.0,0.0,0.0,0.0,0.0,0.0,0.0,0.0,0.0,0.0,0.0,0.0,0.0,0.0,0.0,0.0,0.0,0.0,0.0,0.0,0.0,0.0,0.0,0.0,0.0,0.0,0.0,0.0,0.0,0.0,0.0,0.0,0.0,0.0,0.0,0.0,0.0,0.0,0.0,0.0,0.0,0.0,0.0,0.0,0.0,0.0,0.0,0.0,0.0,0.0,0.0,0.0,0.0,0.0,0.0,0.0,0.0,0.0,0.0,0.0,0.0,0.0,0.0,0.0,0.0,0.2819,0.2116,0.1916,0.2284,0.2532,0.245,0.0,0.0,0.0,0.0,0.0,0.0,0.0,0.0,0.0,0.0,0.0,0.0,0.0,0.0,0.0,0.0,0.0,0.0,0.0,0.0,0.0,0.0,0.0,0.0,0.0,0.0,0.0,0.0,0.0,0.0,0.0,0.0,0.0,0.0,0.0,0.0,0.0,0.0,0.0,0.0,0.0,0.0,0.0,0.0,0.0,0.0,0.0,0.0,0.0,0.0,0.0,0.0,0.0,0.0,0.0,0.0,0.0,0.0,0.0,0.0,0.0,0.0,0.0,0.0,0.0,0.0,0.0,0.0,0.0,0.0,0.0,0.0,0.0,0.0,0.0,0.0,0.0,0.0,0.0,0.0,0.0,0.0,0.0,0.0,0.0,0.0,0.0,0.0,0.0,0.0,0.0,0.0,0.0,0.0,0.0,0.0,0.0,0.0,0.0,0.0,0.0,0.0,0.0,0.0,0.0,0.0,0.0,0.0,0.0,0.5623,0.4177,0.3657,0.4326,0.3639,0.3086,0.0,0.0,0.0,0.0,0.0,0.0,0.0,0.0,0.0,0.0,0.0,0.0,0.0,0.0,0.0,0.0,0.0,0.0,0.0,0.0,0.0,0.0,0.0,0.0,0.0,0.0,0.0,0.0,0.0,0.0,0.0,0.0,0.0,0.0,0.0,0.0,0.0,0.0,0.0,0.0,0.0,0.0,0.0,0.0,0.0,0.0,0.0,0.0,0.0,0.0,0.0,0.0,0.0,0.0,0.0,0.0,0.0,0.0,0.0,0.0,0.0,0.0,0.0,0.0,0.0,0.0,0.0,0.0,0.0,0.0,0.0,0.0,0.0,0.0,0.0,0.0,0.0,0.0,0.0,0.0,0.0,0.0,0.0,0.0,0.0,0.0,0.0,0.0,0.0,0.0,0.0,0.0,0.0,0.0,0.0,0.0,0.0,0.0,0.0,0.0,0.0,0.0,0.0,0.0,0.0,0.0,0.0,0.0,0.2834,0.5855,0.494,0.4814,0.5636,0.4745,0.394,0.0,0.0,0.0,0.0,0.0,0.0,0.0,0.0,0.0,0.0,0.0,0.0,0.0,0.0,0.0,0.0,0.0,0.0,0.0,0.0,0.0,0.0,0.0,0.0,0.0,0.0,0.0,0.0,0.0,0.0,0.0,0.0,0.0,0.0,0.0,0.0,0.0,0.0,0.0,0.0,0.0,0.0,0.0,0.0,0.0,0.0,0.0,0.0,0.0,0.0,0.0,0.0,0.0,0.0,0.0,0.0,0.0,0.0,0.0,0.0,0.0,0.0,0.0,0.0,0.0,0.0,0.0,0.0,0.0,0.0,0.0,0.0,0.0,0.0,0.0,0.0,0.0,0.0,0.0,0.0,0.0,0.0,0.0,0.0,0.0,0.0,0.0,0.0,0.0,0.0,0.0,0.0,0.0,0.0,0.0,0.0,0.0,0.0,0.0,0.0,0.0,0.0,0.0,0.0,0.0,0.0,0.0,0.0,0.2624,0.4552,0.4911,0.5493,0.626,0.5723,0.4825,0.0,0.0,0.0,0.0,0.0,0.0,0.0,0.0,0.0,0.0,0.0,0.0,0.0,0.0,0.0,0.0,0.0,0.0,0.0,0.0,0.0,0.0,0.0,0.0,0.0,0.0,0.0,0.0,0.0,0.0,0.0,0.0,0.0,0.0,0.0,0.0,0.0,0.0,0.0,0.0,0.0,0.0,0.0,0.0,0.0,0.0,0.0,0.0,0.0,0.0,0.0,0.0,0.0,0.0,0.0,0.0,0.0,0.0,0.0,0.0,0.0,0.0,0.0,0.0,0.0,0.0,0.0,0.0,0.0,0.0,0.0,0.0,0.0,0.0,0.0,0.0,0.0,0.0,0.0,0.0,0.0,0.0,0.0,0.0,0.0,0.0,0.0,0.0,0.0,0.0,0.0,0.0,0.0,0.0,0.0,0.0,0.0,0.0,0.0,0.0,0.0,0.0,0.0,0.0,0.0,0.0,0.0,0.0,0.3168,0.5059,0.5221,0.561,0.626,0.5651,0.5155,0.0,0.0,0.0,0.0,0.0,0.0,0.0,0.0,0.0,0.0,0.0,0.0,0.0,0.0,0.0,0.0,0.0,0.0,0.0,0.0,0.0,0.0,0.0,0.0,0.0,0.0,0.0,0.0,0.0,0.0,0.0,0.0,0.0,0.0,0.0,0.0,0.0,0.0,0.0,0.0,0.0,0.0,0.0,0.0,0.0,0.0,0.0,0.0,0.2794,0.0,0.0,0.0,0.0,0.0,0.0,0.0,0.0,0.0,0.0,0.0,0.0,0.0,0.0,0.0,0.0,0.0,0.0,0.0,0.0,0.0,0.0,0.0,0.0,0.0,0.0,0.0,0.0,0.0,0.0,0.0,0.0,0.0,0.0,0.0,0.0,0.0,0.0,0.0,0.0,0.0,0.0,0.0,0.0,0.0,0.0,0.0,0.0,0.0,0.0,0.0,0.0,0.0,0.0,0.0,0.0,0.0,0.0,0.0,0.3344,0.4826,0.5135,0.5609,0.6321,0.5687,0.5269,0.0,0.0,0.0,0.0,0.0,0.0,0.0,0.0,0.0,0.0,0.0,0.0,0.0,0.0,0.0,0.0,0.0,0.0,0.0,0.0,0.0,0.0,0.0,0.0,0.0,0.0,0.0,0.0,0.0,0.0,0.0,0.0,0.0,0.0,0.0,0.0,0.0,0.0,0.0,0.0,0.0,0.0,0.0,0.0,0.0,0.0,0.0,0.0,0.0,0.0,0.0,0.0,0.0,0.0,0.0,0.0,0.0,0.0,0.0,0.0,0.0,0.0,0.0,0.0,0.0,0.0,0.0,0.0,0.0,0.0,0.0,0.0,0.0,0.0,0.0,0.0,0.0,0.0,0.0,0.0,0.0,0.0,0.0,0.0,0.0,0.0,0.0,0.0,0.0,0.0,0.0,0.0,0.0,0.0,0.0,0.0,0.0,0.0,0.0,0.0,0.0,0.0,0.0,0.0,0.0,0.0,0.0,0.2037,0.3273,0.437,0.4878,0.5537,0.6358,0.5685,0.5357,0.5498,0.0,0.0,0.0,0.0,0.0,0.0,0.0,0.0,0.0,0.0,0.0,0.0,0.0,0.0,0.0,0.0,0.0,0.0,0.0,0.0,0.0,0.0,0.0,0.0,0.0,0.0,0.0,0.0,0.0,0.0,0.0,0.0,0.0,0.0,0.0,0.0,0.0,0.0,0.3962,0.1969,0.0,0.0,0.0,0.0,0.0,0.0,0.0,0.0,0.2824,0.0,0.0,0.0,0.0,0.0,0.0,0.0,0.0,0.0,0.0,0.0,0.0,0.0,0.0,0.0,0.0,0.0,0.0,0.0,0.0,0.0,0.0,0.0,0.0,0.0,0.0,0.0,0.0,0.0,0.0,0.0,0.0,0.0,0.0,0.0,0.0,0.0,0.0,0.0,0.0,0.0,0.0,0.0,0.0,0.0,0.0,0.0,0.0,0.0,0.0,0.0,0.0,0.0,0.0,0.0,0.0,0.0772,0.1953,0.3162,0.4364,0.4697,0.5195,0.5862,0.5462,0.5466,0.5936,0.0,0.0,0.0,0.0,0.0,0.0,0.0,0.0,0.0,0.0,0.0,0.0,0.0,0.0,0.0,0.0,0.0,0.0,0.0,0.0,0.0,0.0,0.0,0.0,0.0,0.0,0.0,0.0,0.0,0.0,0.0,0.0,0.0,0.0,0.0,0.0,0.0,0.0,0.0,0.0604,-0.1045,0.0,0.0,0.0,0.0,0.0,0.0,0.0,0.0,0.3503,0.0,0.0,0.0,0.0,0.0,0.0,0.0,0.0,0.0,0.0,0.0,0.0,0.0,0.0,0.0,0.0,0.0,0.0,0.0,0.0,0.0,0.0,0.0,0.0,0.0,0.0,0.0,0.0,0.0,0.0,0.0,0.0,0.0,0.0,0.0,0.0,0.0,0.0,0.0,0.0,0.0,0.0,0.0,0.0,0.0,0.0,0.0,0.0,0.0,0.0,0.0,0.0,0.0,0.0,0.0,0.1209,0.275,0.3948,0.4696,0.4901,0.5245,0.5764,0.547,0.546,0.0,0.0,0.0,0.0,0.0,0.0,0.0,0.0,0.0,0.0,0.0,0.0,0.0,0.0,0.0,0.0,0.0,0.0,0.0,0.0,0.0,0.0,0.0,0.0,0.0,0.0,0.0,0.0,0.0,0.0,0.0,0.0,0.0,0.0,0.0,0.0,0.0,0.0,0.0,0.0,-0.0413,-0.137,-0.1668,0.0,0.0,0.0,0.0,0.0,0.0,0.3002,0.275,0.0,0.0,0.0,0.0,0.0,0.0,0.0,0.0,0.0,0.0,0.0,0.0,0.0,0.0,0.0,0.0,0.0,0.0,0.0,0.0,0.0,0.0,0.0,0.0,0.0,0.0,0.0,0.0,0.0,0.0,0.0,0.0,0.0,0.0,0.0,0.0,0.0,0.0,0.0,0.0,0.0,0.0,0.0,0.0,0.0,0.0,0.0,0.0,0.0,0.0,0.0,0.0,0.0,0.0,0.0,0.1622,0.343,0.4516,0.4855,0.5006,0.5269,0.5623,0.5432,0.5407,0.0,0.0,0.0,0.0,0.0,0.0,0.0,0.0,0.0,0.0,0.0,0.0,0.0,0.0,0.0,0.0,0.0,0.0,0.0,0.0,0.0,0.0,0.0,0.0,0.0,0.0,0.0,0.0,0.0,0.0,0.0,0.0,0.0,0.0,0.0,0.0,0.0,0.0,0.0,0.0,0.0,-0.1552,-0.1157,-0.2813,0.0,0.0,0.0,0.0,0.1952,0.2052,0.0,0.0,0.0,0.0,0.0,0.0,0.0,0.0,0.0,0.0,0.0,0.0,0.0,0.0,0.0,0.0,0.0,0.0,0.0,0.0,0.0,0.0,0.0,0.0,0.0,0.0,0.0,0.0,0.0,0.0,0.0,0.0,0.0,0.0,0.0,0.0,0.0,0.0,0.0,0.0,0.0,0.0,0.0,0.0,0.0,0.0,0.0,0.0,0.0,0.0,0.0,0.0,0.0,0.0,0.0,0.0,0.1953,0.2983,0.3798,0.4346,0.4616,0.4907,0.5166,0.5088,0.5224,0.0,0.0,0.0,0.0,0.0,0.0,0.0,0.0,0.0,0.0,0.0,0.0,0.0,0.0,0.0,0.0,0.0,0.0,0.0,0.0,0.0,0.0,0.0,0.0,0.0,0.0,0.0,0.0,0.0,0.0,0.0,0.0,0.0,0.0,0.0,0.0,0.0,0.0,0.0,0.0,0.0,-0.2312,-0.3279,-0.3795,-0.3982,0.0,0.0,-0.0024,0.188,0.223,0.0,0.0,0.0,0.0,0.0,0.0,0.0,0.0,0.0,0.0,0.0,0.0,0.0,0.0,0.0,0.0,0.0,0.0,0.0,0.0,0.0,0.0,0.0,0.0,0.0,0.0,0.0,0.0,0.0,0.0,0.0,0.0,0.0,0.0,0.0,0.0,0.0,0.0,0.0,0.0,0.0,0.0,0.0,0.0,0.0,0.0,0.0,0.0,0.0,0.0,0.0,0.0,0.0,0.0,0.0,0.1325,0.238,0.3389,0.4129,0.4515,0.4794,0.4991,0.5098,0.5069,0.5204,0.0,0.0,0.0,0.0,0.0,0.0,0.0,0.0,0.0,0.0,0.0,0.0,0.0,0.0,0.0,0.0,0.0,0.0,0.0,0.0,0.0,0.0,0.0,0.0,0.0,0.0,0.0,0.0,0.0,0.0,0.0,0.0,0.0,0.0,0.0,0.0,0.0,0.0,0.0,0.0,0.0,0.0,-0.2604,-0.3001,0.0,0.0,0.0,-0.0277,0.068,0.0,0.0,0.0,0.0,0.0,0.0,0.0,0.0,0.0,0.0,0.0,0.0,0.0,0.0,0.0,0.0,0.0,0.0,0.0,0.0,0.0,0.0,0.0,0.0,0.0,0.0,0.0,0.0,0.0,0.0,0.0,0.0,0.0,0.0,0.0,0.0,0.0,0.0,0.0,0.0,0.0,0.0,0.0,0.0,0.0,0.0,0.0,0.0,0.0,0.0,0.0,0.0,0.0,0.0,0.0,0.0,0.0,0.2627,0.3745,0.4435,0.4686,0.4952,0.5098,0.5098,0.5069,0.0,0.0,0.0,0.0,0.0,0.0,0.0,0.0,0.0,0.0,0.0,0.0,0.0,0.0,0.0,0.0,0.0,0.0,0.0,0.0,0.0,0.0,0.0,0.0,0.0,0.0,0.0,0.4511,0.0,0.0,0.0,0.0,0.0,0.0,0.0,0.0,0.0,0.0,0.0,0.0,0.0,0.0,-0.2047,-0.1487,-0.2022,-0.282,0.0,0.0,-0.0296,0.0421,0.1283,0.138,0.0,0.0,0.0,0.0,0.0,0.0,0.0,0.0,0.0,0.0,0.0,0.0,0.0,0.0,0.0,0.0,0.0,0.0,0.0,0.0,0.0,0.0,0.0,0.0,0.0,0.0,0.0,0.0,0.0,0.0,0.0,0.0,0.0,0.0,0.0,0.0,0.0,0.0,0.0,0.0,0.0,0.0,0.0,0.0,0.0,0.0,0.0,0.0,0.0,0.0,0.0,0.0,0.0,0.0,0.1531,0.2512,0.3693,0.4426,0.4686,0.4952,0.5098,0.5098,0.4971,0.5049,0.0,0.0,0.0,0.0,0.0,0.0,0.0,0.0,0.0,0.0,0.0,0.0,0.0,0.0,0.0,0.0,0.0,0.0,0.0,0.0,0.0,0.0,0.0,0.0,0.0,0.0,0.0,0.0,0.0,0.0,0.0,0.0,0.0,0.0,0.0,0.0,0.0,0.0,0.0,0.0,0.0,-0.2085,-0.0531,-0.1401,-0.2035,0.0,-0.116,-0.016,0.2147,0.2699,0.241,0.0924,0.0,0.0,0.0,0.0,0.0,0.0,0.0,0.0,0.0,0.0,0.0,0.0,0.0,0.0,0.0,0.0,0.0,0.0,0.0,0.0,0.0,0.0,0.0,0.0,0.0,0.0,0.0,0.0,0.0,0.0,0.0,0.0,0.0,0.0,0.0,0.0,0.0,0.0,0.0,0.0,0.0,0.0,0.0,0.0,0.0,0.0,0.0,0.0,0.0,0.0,0.0,0.0,0.0,0.1913,0.3574,0.4066,0.4515,0.4923,0.5049,0.5098,0.5098,0.5049,0.4612,0.0,0.0,0.0,0.0,0.0,0.0,0.0,0.0,0.0,0.0,0.0,0.0,0.0,0.0,0.0,0.0,0.0,0.0,0.0,0.0,0.0,0.0,0.0,0.0,0.0,0.0,0.0,0.0,0.2682,0.1031,-0.1151,0.0,0.0,0.0,0.0,0.0,0.0,0.0,0.0,0.0,0.0,-0.1985,-0.1937,-0.1004,0.0,0.0,0.0595,0.1199,0.0998,0.1868,0.1676,-0.0926,-0.1537,0.0,0.0,0.0,0.0,0.0,0.0,0.0,0.0,0.0,0.0,0.0,0.0,0.0,0.0,0.0,0.0,0.0,0.0,0.0,0.0,0.0,0.0,0.0,0.0,0.0,0.0,0.0,0.0,0.0,0.0,0.0,0.0,0.0,0.0,0.0,0.0,0.0,0.0,0.0,0.0,0.0,0.0,0.0,0.0,0.0,0.0,0.0,0.0,0.0,0.0,0.0,0.0,0.2022,0.3924,0.417,0.4507,0.4971,0.5069,0.5098,0.5098,0.5088,0.4546,0.0,0.0,0.0,0.0,0.0,0.0,0.0,0.0,0.0,0.0,0.0,0.0,0.0,0.0,0.0,0.0,0.0,0.0,0.0,0.0,0.0,0.0,0.0,0.0,0.0,0.0,0.0,0.0,0.1366,-0.0513,-0.2688,0.0,0.0,0.0,0.0,0.0,0.0,0.0,0.0,0.0,0.0,-0.2264,-0.2301,-0.0781,0.0392,0.0501,0.0566,0.0299,-0.0638,0.0243,0.0317,-0.1786,0.0,0.0,0.0,0.0,0.0,0.0,0.0,0.0,0.0,0.0,0.0,0.0,0.0,0.0,0.0,0.0,0.0,0.0,0.0,0.0,0.0,0.0,0.0,0.0,0.0,0.0,0.0,0.0474,0.0,0.0,0.0202,0.0,0.0,0.0,0.0,0.0,0.0,0.0,0.0,0.0,0.0,0.0,0.0,0.0,0.0,0.0,0.0,0.0,0.0,0.0,0.0,0.0,0.0,0.1778,0.3112,0.3901,0.4435,0.4706,0.4971,0.5098,0.5098,0.5098,0.5069,0.4991,0.0,0.0,0.0,0.0,0.0,0.0,0.0,0.0,0.0,0.0,0.0,0.0,0.0,0.0,0.0,0.0,0.0,0.0,0.0,0.0,0.0,0.0,0.0,0.0,0.0,0.0,-0.1062,-0.2049,-0.3021,0.0,0.0,0.0,0.0,0.0,0.0,0.0,0.0,0.0,-0.4393,-0.3998,-0.3025,-0.1035,-0.0804,-0.0393,0.0797,-0.1804,-0.3566,-0.2426,-0.2006,-0.1589,0.0,0.0,0.0,0.0,0.0,0.0,0.0,0.0,0.0,0.0,0.0,0.0,0.0,0.0,0.0,0.0,0.0,0.0,0.0,0.0,0.0,0.0,0.0,0.0,0.0,0.0,0.0,-0.0416,-0.0715,0.0,0.0,0.0,0.0,0.0,0.0,0.0,0.0,0.0,0.0,0.0,-0.098,-0.1539,0.0,0.0,0.0,0.0,0.0,0.0,0.0,0.0,0.0,0.0,0.0,0.0,0.1835,0.313,0.3923,0.4435,0.4686,0.4971,0.5098,0.5098,0.5098,0.5001,0.4786,0.0,0.0,0.0,0.0,0.0,0.0,0.0,0.0,0.0,0.0,0.0,0.0,0.0,0.0,0.0,0.0,0.0,0.0,0.0,0.0,0.0,0.0,0.0,0.0,0.0,-0.1386,0.0,0.0,0.0,0.0,0.0,0.0,0.0,0.0,0.0,0.0,-0.3938,-0.3634,-0.4601,-0.3929,-0.2584,-0.0522,-0.0462,-0.0343,0.0,0.0,0.0,0.0,0.0,0.0,0.0,0.0,0.0,0.0,0.0,0.0,0.0,0.0,-0.8969,-0.8831,-0.9229,-0.9603,-0.9768,0.0,0.0,0.0,0.0,0.0,0.0,0.0,0.0,0.0,0.0,0.0,0.0,0.0,0.0,-0.0989,-0.0976,-0.108,0.0,0.0,0.0,0.0,0.0,0.0,0.0,0.0,-0.1143,-0.1067,-0.0962,-0.0889,-0.1142,-0.1603,-0.0889,-0.0938,0.0,0.0,0.0,0.0,0.0,0.0,0.0,0.0,0.181,0.2851,0.3713,0.4305,0.4547,0.4911,0.5088,0.5098,0.5098,0.5049,0.4963,0.4628,0.3976,0.0,0.0,0.0,0.0,0.0,0.0,0.0,0.0,0.0,0.0,0.0,0.0,0.0,0.0,0.0,0.0,0.0,0.0,0.0,0.0,0.0,0.0,0.0,-0.2636,0.0,0.0,0.0,0.0,0.0,0.0,0.0,0.0,0.0,-0.5616,-0.4389,-0.3869,-0.4774,-0.3375,-0.2124,-0.1752,0.0,0.0,0.0,0.0,0.0,0.0,0.0,-0.572,-0.5241,-0.5254,-0.5102,-0.4412,-0.5773,-0.7457,-0.8819,0.0,0.0,-1.0833,-1.1441,-1.2091,-1.2251,-1.2395,-1.2666,-1.3093,-1.3097,-1.3058,0.0,0.0,0.0,0.0,0.1367,0.0,0.0,0.0,-0.0889,-0.1085,0.0,-0.1565,0.0,0.0,0.0,0.0,-0.0858,-0.0909,0.0,0.0,-0.0389,-0.0602,-0.1512,-0.0454,0.0671,0.1667,0.0718,0.0273,0.0271,-0.0348,-0.1328,0.0,0.0,0.0,0.0,0.0,0.1759,0.2303,0.3341,0.4007,0.4285,0.48,0.5087,0.5098,0.5098,0.5243,0.5555,0.4856,0.429,0.399,0.4256,0.0,0.0,0.0,0.0,0.0,0.0,0.0,0.0,0.0,0.0,0.0,0.0,0.0,0.0,0.0,0.0,0.0,0.0,0.0,0.0,-0.415,0.0,0.0,0.0,0.0,0.0,0.0,0.0,0.0,0.0,-0.4883,-0.6495,-0.5687,-0.5023,-0.4979,0.0,0.0,0.0,0.0,-0.4504,-0.7004,-0.797,-0.8305,-0.8158,-0.8182,-0.7265,-0.459,0.0,0.0,-0.4036,-0.6921,-0.9826,-1.1252,-1.2824,-1.3617,-1.2956,-1.3645,-1.4292,-1.4272,-1.4433,-1.4433,-1.4163,-1.4138,-1.3728,0.1915,0.0,0.0,0.0,0.0,0.2372,0.1819,0.083,0.0046,-0.0784,-0.1641,-0.2288,0.0,0.0,0.0,0.0,0.0,0.0,0.0941,0.0423,0.0607,0.0724,0.0776,0.1124,0.1467,0.18,0.234,0.2623,0.2629,0.229,0.141,0.0108,0.0,0.0,0.0,0.0,0.1944,0.2968,0.3576,0.3952,0.4014,0.472,0.5087,0.5098,0.5098,0.5319,0.5789,0.615,0.6132,0.5669,0.7079,0.0,0.0,0.0,0.0,0.0,0.0,0.0,0.0,0.0,0.0,0.0,0.0,0.0,0.0,0.0,0.0,0.0,0.0,0.0,-0.3142,-0.2435,-0.218,0.0,0.0,0.0,0.0,0.0,0.0,0.0,0.0,0.0,-0.7302,-0.5139,-0.4202,0.0,0.0,-0.4005,-0.2166,-0.4114,-0.6556,-0.8715,-0.7765,0.0,-0.4537,-0.5909,-0.6929,-0.6302,-0.7512,-0.8499,-0.8376,-1.1226,-1.366,-1.3827,-1.5612,-1.6973,-1.6515,-1.6606,-1.6856,-1.696,-1.726,-1.7597,-1.7695,-1.7327,-1.6835,0.2595,0.2803,0.2578,0.2711,0.2947,0.3083,0.2155,0.0524,0.032,-0.0373,-0.1367,-0.1707,-0.1728,-0.1426,-0.0766,0.0,0.0,0.0,0.2884,0.2509,0.2438,0.2476,0.2669,0.2541,0.253,0.2542,0.3268,0.3581,0.3584,0.307,0.2691,0.2268,0.0,0.0883,0.1553,0.2068,0.2705,0.3468,0.3892,0.4229,0.4486,0.4893,0.5096,0.51,0.5097,0.5349,0.5889,0.6613,0.7098,0.7293,0.8482,0.7268,0.0,0.0,0.0,0.0,0.0,0.0,0.0,0.0,0.0,0.0,0.0,0.0081,-0.4347,0.0,0.0,0.0,-0.4526,-0.4327,-0.3941,-0.3865,0.0,0.0,0.0,0.0,0.0,0.0,0.0,-0.5906,-0.7452,-0.8056,-0.6399,-0.4166,-0.3508,-0.5574,-0.506,-0.4196,-0.3532,0.0,-0.5664,-0.6482,-0.6802,-0.654,-0.5305,-0.623,-0.7427,-0.8336,-0.9895,-1.1307,-1.2088,-1.4371,-1.6185,-1.6639,-1.7794,-1.877,-1.8598,-1.8639,-1.8705,-1.8664,-1.8881,-1.9006,-1.8793,-1.8186,-1.7638,0.3429,0.4827,0.3806,0.3374,0.3465,0.373,0.254,0.0393,0.0116,0.0,0.0,-0.029,-0.0329,-0.0,0.1489,0.0,0.1655,0.363,0.4455,0.4508,0.4483,0.4278,0.3866,0.3726,0.3635,0.3598,0.3598,0.3592,0.3565,0.2789,0.2742,0.3436,0.3067,0.2581,0.2172,0.3038,0.359,0.3737,0.4086,0.4618,0.5398,0.5267,0.5196,0.5284,0.5268,0.5529,0.6034,0.659,0.7452,0.8718,0.8943,0.8176,0.6402,0.0,0.0,0.0,0.0,0.0,0.0,0.0,0.0,0.0,0.0,0.0,0.0,0.0,0.0,-0.4612,-0.6338,0.0,-0.5162,-0.6873,0.0,0.0,0.0,-0.8331,-0.9172,-0.9488,-0.7394,-0.1576,0.0,0.0,-0.4854,-0.3311,-0.2913,-0.406,-0.2847,-0.3217,-0.6874,-0.5216,-0.3328,-0.3468,-0.6065,-0.8558,-0.8716,-0.8642,-0.9025,-1.0527,-1.1954,-1.3604,-1.5081,-1.6808,-1.8215,-1.8996,-1.941,-1.9488,-1.9628,-1.9725,-1.9879,-1.9485,-1.9381,-1.9031,-1.809,-1.7361,-1.6613,0.4794,0.5012,0.4753,0.4549,0.4448,0.4363,0.4131,0.355,0.1052,0.0,0.0,-0.0116,0.1142,0.3307,0.3714,0.3862,0.3747,0.4261,0.4494,0.448,0.447,0.3815,0.27,0.3585,0.387,0.3622,0.3698,0.3687,0.3619,0.3674,0.2033,-0.0969,0.1595,0.2702,0.2063,0.204,0.2431,0.3271,0.3161,0.3911,0.5482,0.5701,0.6146,0.6893,0.6687,0.6815,0.7396,0.7938,0.8473,0.9024,1.0248,1.0358,0.9081,0.6452,0.0,0.0,0.0,0.0,0.0,0.0,0.0,0.0,0.0,-0.5648,-0.5327,0.0,-0.4662,0.0,-0.6245,-0.5213,-0.4492,-0.4489,0.0,0.0,-0.4243,-0.2928,-0.129,-0.2869,-0.4189,-0.4419,-0.3618,-0.45,-0.8226,-0.5113,-0.2529,-0.2454,-0.3085,-0.4061,-0.5499,-0.5959,-0.7028,-0.9417,-0.9712,-0.9863,-1.0469,-1.1345,-1.2039,-1.2514,-1.5618,-1.81,-1.7991,-2.0213,-2.1642,-2.0714,-2.0733,-2.0683,-2.001,-1.9799,-1.9588,-1.9319,-1.8904,-1.843,-1.7831,-1.7027,-1.6349,0.5314,0.5248,0.5114,0.5047,0.4965,0.4837,0.4779,0.4665,0.226,0.109,0.1014,0.1003,0.2308,0.4445,0.4497,0.449,0.4484,0.4473,0.4473,0.448,0.3799,0.3348,0.3086,0.2552,0.2841,0.3862,0.3785,0.3662,0.3618,0.3751,0.2738,0.0822,0.2531,0.3065,0.2332,0.1823,0.1933,0.2585,0.333,0.4429,0.5949,0.6331,0.6332,0.5948,0.6335,0.5991,0.48,0.5775,0.6059,0.5436,0.6765,0.7747,0.8119,0.456,0.0263,0.0,0.0,0.0,0.0,0.0,0.0,0.0,0.0,0.0,0.0,0.0,-0.3731,-0.5209,-0.4005,-0.3192,-0.3203,-0.3249,-0.33,-0.3276,-0.2279,-0.0509,0.2271,0.1304,-0.0109,-0.1335,-0.0897,-0.135,-0.3736,-0.3727,-0.3314,-0.3035,-0.4129,-0.5093,-0.5505,-0.6719,-0.8712,-1.1141,-1.1018,-1.1101,-1.2498,-1.3678,-1.4503,-1.5072,-1.7363,-1.9408,-1.9734,-2.1113,-2.1941,-2.1235,-2.0937,-2.0626,-1.9964,-1.9712,-1.9464,-1.8941,-1.8217,-1.7425,-1.6712,-1.6209,-1.5748,0.5061,0.5077,0.4922,0.498,0.5115,0.5165,0.5024,0.482,0.3528,0.2817,0.2485,0.2527,0.3228,0.448,0.4477,0.4473,0.4463,0.4463,0.4463,0.4411,0.3123,0.3025,0.3862,0.1659,0.1837,0.4117,0.383,0.3643,0.3594,0.3527,0.4035,0.4993,0.4152,0.3254,0.2449,0.187,0.1731,0.2014,0.3887,0.5404,0.6463,0.6684,0.577,0.378,0.498,0.4188,0.1061,0.2159,0.2251,0.0938,0.1943,0.3602,0.5694,0.1656,-0.1628,0.0,-0.3811,0.0,0.0,0.0,0.0,0.0,0.0,0.0,0.0,-0.2502,-0.1991,-0.1706,-0.1239,-0.1019,-0.1052,-0.1796,-0.1777,-0.0567,-0.0323,0.0767,0.3246,0.3605,0.3516,0.3372,0.1658,0.1259,0.2301,-0.1301,-0.4377,-0.4587,-0.5701,-0.6416,-0.6398,-0.7829,-0.941,-1.016,-1.1005,-1.2569,-1.4674,-1.5817,-1.6568,-1.7274,-1.8392,-1.9391,-2.0622,-2.0974,-2.1068,-2.11,-2.054,-1.9934,-1.9648,-1.9578,-1.932,-1.8717,-1.7822,-1.6839,-1.5879,-1.5526,-1.4924,0.3207,0.3259,0.3718,0.4455,0.5335,0.5325,0.5322,0.5279,0.4823,0.4445,0.41,0.4071,0.4219,0.4484,0.4477,0.4473,0.4463,0.4463,0.4473,0.4487,0.4196,0.3564,0.2654,0.3322,0.3812,0.4174,0.413,0.3933,0.3598,0.4145,0.4235,0.3887,0.3358,0.2414,0.1147,0.0,0.0,0.0,0.3839,0.5311,0.641,0.5597,0.3955,0.1562,0.3332,0.0,0.1156,0.013,0.012,0.1235,0.2407,0.0,0.0,0.0,0.0,0.0,0.0,0.0,0.0,0.0,0.0,0.0,0.1541,0.0219,-0.0618,-0.1265,-0.1445,-0.1033,-0.094,0.0403,0.3602,0.3479,0.3066,0.2785,0.3261,0.3637,0.366,0.3592,0.3236,0.2235,0.2561,0.2279,0.0656,-0.1991,-0.4169,-0.5376,-0.7173,-0.8186,-0.8057,-0.9156,-1.0299,-1.1393,-1.3097,-1.4818,-1.6378,-1.7699,-1.8547,-1.9246,-2.0423,-2.1079,-2.0939,-2.1405,-2.1346,-2.0622,-2.0063,-1.9798,-1.9634,-1.9489,-1.9206,-1.868,-1.8259,-1.7687,-1.6702,-1.6022,-1.5575,0.2408,0.3971,0.34,0.4004,0.0,0.5432,0.5387,0.538,0.531,0.5074,0.4809,0.4657,0.4602,0.4582,0.4504,0.4467,0.4463,0.4463,0.4467,0.448,0.4477,0.4082,0.335,0.4144,0.4446,0.4314,0.4241,0.4123,0.4069,0.4233,0.4062,0.3589,0.3363,0.2852,0.2156,0.2438,0.2745,0.3097,0.4332,0.4842,0.4715,0.5617,0.4756,0.2141,0.4469,0.0,0.0,0.0,0.0,0.0,0.0,0.0,0.0,0.3133,0.2831,0.3248,0.2386,0.1741,0.1578,0.2701,0.4176,0.5838,0.4643,0.3037,0.1338,0.151,0.1696,0.1588,0.1863,0.2858,0.4741,0.5096,0.4866,0.412,0.4408,0.4403,0.3759,0.3592,0.3353,0.2715,0.2139,0.0912,-0.1472,-0.2158,-0.3681,-0.579,-0.7225,-0.8612,-0.9949,-1.0836,-1.1941,-1.3836,-1.5399,-1.7106,-1.864,-1.9203,-1.9832,-2.0443,-2.0708,-2.0772,-2.0639,-2.0975,-2.0963,-2.0135,-1.9826,-1.9643,-1.936,-1.9292,-1.9113,-1.8497,-1.7846,-1.7374,-1.701,-1.6486,-1.5858,0.176,0.44,0.3597,0.4061,0.5382,0.5463,0.5452,0.5418,0.5373,0.0,0.0,0.4889,0.4738,0.4684,0.4615,0.4543,0.4463,0.4463,0.4463,0.4463,0.4473,0.4477,0.4477,0.4487,0.4487,0.4477,0.4304,0.434,0.4467,0.4124,0.3873,0.3762,0.3648,0.3582,0.3633,0.4136,0.4393,0.4341,0.4755,0.4525,0.3617,0.5592,0.5928,0.441,0.6811,0.6479,0.2926,0.1855,0.1453,0.1696,0.2317,0.2861,0.322,0.3254,0.3213,0.3103,0.3591,0.419,0.488,0.5598,0.6607,0.7947,0.6974,0.5334,0.3148,0.4276,0.4898,0.4409,0.48,0.5022,0.4927,0.538,0.55,0.4898,0.4836,0.4504,0.3712,0.3152,0.2976,0.3195,0.0979,-0.1482,-0.3357,-0.2979,-0.3369,-0.5991,-0.734,-0.8849,-1.1806,-1.3123,-1.4221,-1.6211,-1.7212,-1.8544,-2.0094,-2.0208,-2.0276,-2.0809,-2.0372,-1.9968,-2.0165,-2.0288,-2.0183,-1.987,-1.9645,-1.9415,-1.915,-1.9099,-1.8981,-1.8393,-1.7431,-1.6807,-1.7186,-1.6804,-1.6114,0.0,0.1012,0.4092,0.5395,0.5399,0.5508,0.5484,0.5428,0.5408,0.5312,0.5101,0.5077,0.4928,0.4687,0.4667,0.4589,0.4519,0.4463,0.4463,0.4463,0.4463,0.447,0.4477,0.448,0.4487,0.449,0.446,0.4494,0.4492,0.4295,0.4245,0.4234,0.3852,0.3589,0.3636,0.4136,0.4635,0.5114,0.4542,0.4953,0.6327,0.4499,0.5384,0.9085,0.9655,0.7248,0.1825,0.3492,0.3635,0.1753,0.2247,0.3563,0.5604,0.5777,0.6412,0.777,0.848,0.8673,0.8074,0.8551,0.8781,0.8592,0.7334,0.6174,0.5396,0.5053,0.5148,0.5639,0.5309,0.5278,0.5726,0.5716,0.5949,0.6365,0.5761,0.4785,0.3705,0.1669,0.1163,0.2879,-0.0871,-0.3817,-0.4226,-0.4466,-0.518,-0.6913,-0.8505,-1.0578,-1.3994,-1.6057,-1.6825,-1.7497,-1.793,-1.8583,-1.9636,-1.9685,-1.9899,-2.021,-2.0293,-2.0133,-2.0131,-2.0088,-1.9958,-1.9688,-1.9495,-1.935,-1.923,-1.893,-1.8717,-1.8508,-1.7913,-1.7611,-1.7642,-1.6905,-1.6265,0.0,0.0,0.4257,0.5825,0.5696,0.5634,0.5545,0.5484,0.5484,0.5399,0.5254,0.5169,0.5057,0.4928,0.4847,0.4775,0.4711,0.4711,0.4663,0.4592,0.4585,0.4548,0.4484,0.4477,0.4082,0.3299,0.3239,0.3663,0.4453,0.4392,0.3594,0.2254,0.3061,0.3608,0.3629,0.3836,0.4096,0.4355,0.4929,0.5791,0.6948,0.6344,0.7388,1.0256,1.0304,0.9104,0.6334,0.6942,0.7034,0.6348,0.6522,0.7324,0.8654,0.869,0.8857,0.931,0.9557,0.9372,0.8731,0.9084,0.8941,0.8075,0.7435,0.661,0.567,0.5397,0.5245,0.5193,0.5245,0.5349,0.5507,0.5804,0.5963,0.5857,0.5519,0.4848,0.3393,-0.015,-0.1931,-0.116,-0.2879,-0.458,-0.5032,-0.6121,-0.7101,-0.825,-1.0247,-1.2872,-1.5248,-1.6955,-1.8042,-1.832,-1.8665,-1.9314,-2.0144,-2.0262,-2.0423,-2.0834,-2.046,-2.0175,-2.0041,-1.9909,-1.9738,-1.9623,-1.9442,-1.9277,-1.9164,-1.9048,-1.8825,-1.843,-1.8263,-1.7935,-1.7322,-1.6521,-1.5923,0.0,0.0,0.3346,0.5195,0.6054,0.579,0.5689,0.5637,0.5637,0.5552,0.5406,0.5284,0.5199,0.5121,0.5016,0.4948,0.4921,0.4918,0.4853,0.4748,0.4711,0.464,0.4482,0.4504,0.3522,0.1899,0.1729,0.2681,0.4271,0.4501,0.2976,0.0502,0.1861,0.2912,0.3173,0.3486,0.3595,0.3753,0.5203,0.6228,0.6761,0.8016,0.9114,0.9986,1.0244,1.0235,1.0088,0.9612,0.9578,0.9993,0.9983,1.0184,1.0671,1.0615,1.0274,0.9886,0.98,0.9518,0.8971,0.877,0.84,0.7686,0.7072,0.647,0.5869,0.5433,0.5164,0.4838,0.5202,0.5421,0.5409,0.5751,0.546,0.4093,0.4521,0.4007,0.214,-0.2805,-0.6033,-0.5691,-0.5722,-0.6326,-0.6951,-0.8085,-0.9407,-1.0772,-1.2773,-1.4613,-1.6036,-1.7667,-1.8622,-1.8961,-1.9351,-1.9956,-2.0916,-2.0802,-2.0756,-2.1211,-2.0573,-2.0088,-1.9905,-1.9719,-1.958,-1.9527,-1.9413,-1.9149,-1.8917,-1.8802,-1.8634,-1.8178,-1.8087,-1.7677,-1.6098,-1.5855,-1.5559,0.0,0.0,0.0,0.278,0.5929,0.6009,0.5926,0.5789,0.5783,0.5701,0.5562,0.5555,0.5389,0.5152,0.5055,0.5047,0.4938,0.4921,0.486,0.4773,0.4769,0.4707,0.4516,0.4459,0.2977,0.0,0.0,0.1677,0.411,0.4333,0.2929,0.0302,0.0233,0.0939,0.1966,0.3043,0.3684,0.389,0.4874,0.5588,0.6102,0.7762,0.8869,0.9275,0.9952,1.0079,0.9692,0.973,0.9614,0.9273,0.9456,0.9793,1.0223,1.0258,1.0205,1.0132,1.0428,1.042,0.9665,0.7905,0.7446,0.833,0.6288,0.5386,0.6263,0.5336,0.4842,0.5222,0.5433,0.5483,0.581,0.5672,0.4118,0.1256,0.2377,0.2357,-0.1537,-0.7901,-1.1198,-0.8558,-0.9597,-1.0679,-1.059,-1.0945,-1.2067,-1.4225,-1.4992,-1.6103,-1.7857,-1.8599,-1.9096,-1.9312,-1.9789,-2.0304,-2.0695,-2.0457,-2.0305,-2.0243,-2.0139,-1.9922,-1.9713,-1.9617,-1.9541,-1.935,-1.9335,-1.9072,-1.8544,-1.8045,-1.7957,-1.7836,-1.7558,-1.6974,-1.4741,-1.4649,-1.5284,0.0,0.0,0.0,0.099,0.2768,0.514,0.6143,0.6099,0.5939,0.5806,0.563,0.5769,0.5633,0.5274,0.5267,0.5233,0.5182,0.5189,0.5142,0.4925,0.4044,0.3898,0.4432,0.4469,0.2921,0.0,0.0,0.0,0.162,0.0,0.1178,0.0,0.0,0.0,0.0788,0.2083,0.3407,0.4726,0.5362,0.6016,0.6651,0.7737,0.8977,1.0162,1.0149,1.0054,1.007,0.9548,0.9257,0.9326,0.9416,0.9667,1.0188,1.0047,0.9977,0.9932,0.9725,0.9517,0.9204,0.8362,0.8156,0.8752,0.6907,0.6046,0.648,0.5332,0.4629,0.4853,0.4908,0.4967,0.4904,0.4184,0.2389,-0.0108,-0.0159,-0.0988,-0.3868,-0.8949,-1.1977,-1.2044,-1.2837,-1.3357,-1.3454,-1.4332,-1.553,-1.6836,-1.7173,-1.7849,-1.8712,-1.8836,-1.9101,-1.9476,-1.9876,-2.0149,-2.0345,-2.0238,-2.0104,-2.0046,-1.9912,-1.9688,-1.9476,-1.9423,-1.9368,-1.9184,-1.9246,-1.9216,-1.8959,-1.8687,-1.8514,-1.7896,-1.6478,-1.5558,-1.4454,-1.4292,-1.4294,0.0,0.0,0.0,0.0,0.0,0.3824,0.5733,0.6273,0.6173,0.5928,0.5765,0.5925,0.5813,0.5542,0.5531,0.5549,0.5481,0.5454,0.5109,0.4463,0.3682,0.3385,0.3347,0.3242,0.2149,0.0,0.0,0.0,0.0,0.0,0.0,0.0,0.0,0.0388,0.1207,0.1915,0.3069,0.4939,0.5654,0.6272,0.7044,0.7877,0.8962,1.0252,1.0175,1.004,1.0049,0.9245,0.8922,0.9165,0.9242,0.942,0.9761,0.9636,0.951,0.9517,0.9113,0.8699,0.8533,0.8427,0.8421,0.8374,0.7182,0.6475,0.6372,0.534,0.4525,0.4418,0.3398,0.2552,0.2554,0.1664,-0.0275,-0.3157,-0.3926,-0.491,-0.7176,-1.1334,-1.4602,-1.4906,-1.562,-1.624,-1.6393,-1.7391,-1.8321,-1.8724,-1.8812,-1.9041,-1.8943,-1.9042,-1.9189,-1.9635,-1.9903,-2.0115,-2.0142,-2.0095,-2.0082,-1.9964,-1.9794,-1.955,-1.928,-1.9286,-1.9308,-1.923,-1.9277,-1.9036,-1.8629,-1.865,-1.8337,-1.7289,-1.6176,-1.5228,-1.4837,-1.4142,-1.3462,0.0,0.0,0.0,0.0,0.0,0.2339,0.4448,0.6254,0.6325,0.616,0.5999,0.5909,0.5888,0.5637,0.559,0.5779,0.5759,0.5713,0.4732,0.3376,0.4361,0.3369,0.0308,0.0179,0.0,0.0,0.0,0.0,0.0,0.0,0.0,0.0,0.0,0.1312,0.3224,0.2386,0.271,0.4441,0.533,0.6155,0.7034,0.8085,0.8704,0.9067,0.9905,0.9967,0.9089,0.9059,0.8976,0.845,0.8721,0.8869,0.8883,0.8896,0.891,0.8857,0.8804,0.848,0.7937,0.7616,0.7616,0.761,0.6794,0.6145,0.6431,0.5058,0.4128,0.4304,0.0493,-0.1693,-0.224,-0.2627,-0.4462,-0.8508,-0.8765,-0.9394,-1.1444,-1.6192,-1.8532,-1.7407,-1.8216,-1.9415,-2.0082,-1.9892,-2.0067,-2.0244,-1.9687,-1.9151,-1.973,-1.9752,-1.9682,-1.9737,-2.0009,-2.0273,-2.0273,-2.0122,-1.9949,-1.9827,-1.9688,-1.9495,-1.9394,-1.9289,-1.9274,-1.9222,-1.9097,-1.88,-1.8229,-1.7603,-1.6994,-1.6448,-1.6494,-1.5917,-1.5046,-1.4074,-1.3429,0.0,0.0,0.0,0.0,0.0,0.0865,0.3051,0.6224,0.6291,0.6252,0.5959,0.4741,0.4018,0.3827,0.3991,0.4715,0.5682,0.5617,0.5129,0.4253,0.2784,0.1208,0.0,0.0,0.0,0.0,0.0,0.0,0.0,0.0,0.0,0.0,-0.1969,-0.1353,0.1084,0.1635,0.2448,0.4094,0.5115,0.6194,0.7315,0.8286,0.889,0.9398,0.962,0.966,0.9413,0.914,0.8851,0.8651,0.8758,0.8804,0.8804,0.8804,0.8804,0.8804,0.8804,0.8699,0.8374,0.7456,0.7348,0.8156,0.7122,0.6376,0.6059,0.403,0.176,-0.0,-0.2613,-0.5563,-0.8552,-0.9054,-0.994,-1.2138,-1.1995,-1.2512,-1.5385,-1.8135,-1.9602,-2.0246,-2.1557,-2.2319,-2.2099,-2.1977,-2.1533,-2.0838,-2.0393,-2.023,-2.0025,-1.9951,-1.9931,-1.992,-2.0012,-2.0094,-2.0068,-2.0011,-1.9888,-1.9707,-1.9527,-1.9353,-1.9198,-1.9274,-1.9292,-1.9109,-1.8963,-1.8605,-1.8053,-1.7351,-1.6601,-1.6701,-1.6687,-1.5887,-1.5043,-1.4226,-1.3562,0.0,0.0,0.0,0.0,0.0,0.0,0.1565,0.4247,0.5023,0.5662,0.5901,0.4737,0.3635,0.2892,0.2944,0.3685,0.4958,0.5418,0.5691,0.5193,0.0601,-0.174,-0.1627,-0.1031,-0.0705,0.0,-0.0169,0.0,0.0,-0.1008,-0.1457,0.0,-0.3177,-0.2698,-0.0695,0.0159,0.1304,0.2972,0.4121,0.523,0.6597,0.7753,0.8554,0.9096,0.9422,0.9657,0.9806,0.9361,0.9008,0.8804,0.8804,0.8804,0.8804,0.8804,0.8705,0.848,0.8699,0.8421,0.7877,0.745,0.745,0.783,0.7538,0.6846,0.5074,0.1525,-0.1566,-0.4177,-0.7139,-1.0646,-1.4061,-1.4834,-1.4823,-1.544,-1.4462,-1.5301,-1.8991,-2.0379,-2.1682,-2.2903,-2.374,-2.4011,-2.3708,-2.3424,-2.2731,-2.1563,-2.1504,-2.1162,-2.0661,-2.0377,-2.0205,-2.0045,-1.9948,-1.9903,-1.985,-1.9804,-1.9757,-1.9609,-1.9467,-1.9261,-1.9166,-1.9261,-1.9225,-1.9006,-1.8717,-1.8362,-1.7836,-1.7152,-1.7034,-1.7135,-1.6554,-1.5731,-1.5047,-1.4461,-1.3797,0.0,0.0,0.0,0.0,0.0,0.0,0.0,0.0,0.2344,0.4028,0.5296,0.5712,0.4124,0.2913,0.2647,0.2948,0.2717,0.4047,0.4893,0.4348,-0.1831,-0.4916,-0.4842,-0.3049,-0.2222,-0.2148,-0.0736,0.0,0.0,-0.2745,-0.4278,-0.4051,-0.3125,-0.2595,-0.1552,-0.1505,-0.059,0.1139,0.2193,0.3268,0.4515,0.6199,0.7295,0.7812,0.9127,0.9813,0.9718,0.9718,0.9361,0.8857,0.8804,0.8804,0.8699,0.8699,0.8427,0.7943,0.8374,0.7664,0.6367,0.7622,0.78,0.6799,0.7421,0.5031,0.0053,-0.2673,-0.5596,-0.8907,-1.2246,-1.5917,-1.8579,-1.8782,-1.8194,-1.8037,-1.6791,-1.7777,-2.1395,-2.4036,-2.5133,-2.4929,-2.5012,-2.5078,-2.4723,-2.4099,-2.3434,-2.2972,-2.2526,-2.195,-2.1426,-2.1149,-2.0769,-2.0139,-1.9988,-2.0024,-1.9794,-1.9582,-1.9569,-1.9509,-1.9409,-1.9259,-1.9243,-1.9289,-1.9289,-1.9104,-1.8812,-1.8437,-1.7694,-1.7122,-1.7234,-1.717,-1.6378,-1.5725,-1.5252,-1.4697,-1.4022,0.0,0.0,0.0,0.0,0.0,0.0,0.0,0.0,0.0705,0.1327,0.1868,0.1957,0.1486,0.1012,0.094,-0.062,-0.3102,-0.221,-0.172,-0.2094,-0.43,-0.5397,-0.5172,-0.4448,-0.3963,-0.355,-0.2245,-0.1003,-0.0946,-0.4021,-0.5512,-0.4661,-0.4695,-0.4331,-0.3537,-0.2593,-0.1468,-0.0642,0.0324,0.1636,0.3247,0.3966,0.4938,0.644,0.7635,0.8488,0.9015,0.9061,0.9008,0.8752,0.8804,0.8586,0.815,0.8049,0.7901,0.7603,0.7711,0.8015,0.7901,0.819,0.8273,0.6869,0.313,-0.3498,-0.9249,-0.9011,-1.0178,-1.3759,-1.6701,-1.8744,-1.9316,-2.1137,-2.1429,-2.059,-1.9762,-2.0247,-2.3026,-2.4573,-2.5043,-2.5091,-2.513,-2.483,-2.4187,-2.3728,-2.3484,-2.2897,-2.2584,-2.2287,-2.1687,-2.1815,-2.123,-1.9948,-2.0057,-1.9968,-1.9497,-1.9212,-1.9196,-1.9193,-1.9162,-1.9146,-1.9162,-1.9259,-1.9259,-1.9198,-1.8871,-1.8456,-1.7678,-1.7349,-1.7471,-1.7046,-1.6268,-1.5822,-1.5552,-1.4919,-1.4107,-0.0662,0.0,0.0,0.0,0.0,-0.1579,0.0,-0.2199,-0.1489,-0.1175,-0.1175,-0.1175,-0.1175,-0.1175,-0.1175,-0.2537,-0.4869,-0.5304,-0.5529,-0.5418,-0.5386,-0.538,-0.5276,-0.5009,-0.4738,-0.4419,-0.3522,-0.2615,-0.1883,-0.4677,-0.6215,-0.6211,-0.6182,-0.5873,-0.5295,-0.4358,-0.3493,-0.2692,-0.2019,-0.0715,0.0826,0.1267,0.2189,0.3908,0.4731,0.573,0.6913,0.7127,0.7522,0.8055,0.8109,0.783,0.7622,0.758,0.7376,0.6712,0.5734,0.5108,0.5066,0.4271,0.4085,0.2216,-0.4143,-1.0828,-1.5727,-1.4697,-1.5658,-1.7841,-1.9423,-2.0465,-2.115,-2.2498,-2.3439,-2.2895,-2.2276,-2.2765,-2.4138,-2.471,-2.4957,-2.4976,-2.4989,-2.4606,-2.4148,-2.388,-2.3652,-2.3082,-2.3049,-2.3121,-2.2551,-2.2347,-2.1213,-2.0181,-1.9803,-1.9512,-1.9003,-1.8843,-1.8789,-1.8825,-1.886,-1.8877,-1.893,-1.9066,-1.915,-1.9175,-1.899,-1.8919,-1.8281,-1.7844,-1.7706,-1.6943,-1.6367,-1.5831,-1.546,-1.4749,-1.4022,-0.2149,-0.0405,0.0,0.0,-0.0787,-0.4101,-0.5617,-0.5764,-0.4169,-0.3292,-0.3285,-0.3283,-0.3283,-0.3281,-0.3595,-0.3899,-0.3528,-0.5495,-0.6227,-0.592,-0.5796,-0.5683,-0.5161,-0.4847,-0.4697,-0.4608,-0.4529,-0.4398,-0.4088,-0.5584,-0.6986,-0.8329,-0.7329,-0.6652,-0.6406,-0.6529,-0.5688,-0.4627,-0.4474,-0.3479,-0.1824,-0.1716,-0.0991,0.0653,0.1034,0.2069,0.3812,0.3974,0.4989,0.6933,0.675,0.6392,0.6902,0.7095,0.6253,0.5299,0.2776,-0.0591,-0.2039,-0.3468,-0.4576,-0.7104,-1.2192,-1.7391,-1.8714,-1.9371,-1.9664,-2.0449,-2.1123,-2.2125,-2.3481,-2.4081,-2.4235,-2.4646,-2.4039,-2.3984,-2.4159,-2.4547,-2.4741,-2.4776,-2.4775,-2.4682,-2.442,-2.4385,-2.4244,-2.4118,-2.4026,-2.3984,-2.365,-2.2767,-2.1643,-2.0807,-2.012,-1.9827,-1.9578,-1.8988,-1.8949,-1.874,-1.8682,-1.8603,-1.8734,-1.8895,-1.8983,-1.9013,-1.9043,-1.9043,-1.8906,-1.8376,-1.8046,-1.7642,-1.6933,-1.6075,-1.5325,-1.4716,-1.409,-0.5301,-0.4458,-0.3,-0.2266,-0.243,-0.3828,-0.5108,-0.6169,-0.5765,-0.5334,-0.5433,-0.5494,-0.5413,-0.5572,-0.6976,-0.7383,-0.7088,-0.8088,-0.8418,-0.7826,-0.7679,-0.6514,-0.5239,-0.4789,-0.4958,-0.5207,-0.5313,-0.498,-0.4678,-0.6563,-0.8175,-0.9332,-0.8324,-0.7483,-0.7032,-0.6812,-0.6426,-0.6086,-0.6081,-0.5684,-0.4852,-0.4627,-0.4171,-0.3054,-0.1912,-0.0599,0.0868,0.0109,0.1961,0.6204,0.4877,0.3938,0.389,0.3227,0.2943,0.2707,-0.0752,-0.7147,-1.376,-1.3678,-1.3952,-1.6705,-1.8067,-2.0174,-2.1377,-2.1235,-2.16,-2.2204,-2.2972,-2.3437,-2.3994,-2.4322,-2.4574,-2.4638,-2.4476,-2.4331,-2.4273,-2.443,-2.4564,-2.4594,-2.4575,-2.4478,-2.4339,-2.4266,-2.4228,-2.419,-2.4173,-2.4082,-2.3584,-2.3345,-2.2333,-2.1491,-2.0859,-2.0582,-2.0206,-1.953,-1.9091,-1.879,-1.8577,-1.8298,-1.8487,-1.8735,-1.8753,-1.8753,-1.8789,-1.8789,-1.8842,-1.8645,-1.8431,-1.7999,-1.7355,-1.6404,-1.562,-1.4936,-1.4259,-0.6572,-0.6182,-0.5066,-0.4564,-0.4626,-0.4885,-0.5526,-0.6334,-0.6378,-0.6337,-0.6383,-0.6817,-0.6891,-0.7126,-0.8525,-0.9003,-0.8806,-0.9353,-0.9159,-0.8506,-0.8168,-0.7269,-0.6284,-0.5977,-0.6058,-0.6303,-0.6337,-0.6005,-0.5853,-0.7445,-0.8745,-0.9417,-0.8987,-0.8497,-0.8329,-0.8057,-0.7953,-0.7888,-0.7629,-0.7197,-0.6651,-0.6338,-0.5901,-0.5275,-0.445,-0.3613,-0.3268,-0.3724,-0.1691,0.1801,0.1907,0.0815,-0.0109,-0.0757,-0.0429,0.0794,-0.3335,-1.0638,-1.7733,-1.7427,-1.6918,-1.9466,-2.0801,-2.2081,-2.292,-2.2914,-2.3246,-2.3846,-2.4241,-2.418,-2.4005,-2.4139,-2.4301,-2.4391,-2.4432,-2.4356,-2.419,-2.4303,-2.4357,-2.4375,-2.4357,-2.4284,-2.4036,-2.3996,-2.3917,-2.3837,-2.3783,-2.3562,-2.3226,-2.3229,-2.3055,-2.2144,-2.122,-2.0749,-2.047,-1.9934,-1.959,-1.9277,-1.8865,-1.8483,-1.8485,-1.8704,-1.8619,-1.8619,-1.8585,-1.8587,-1.866,-1.8533,-1.8058,-1.7622,-1.723,-1.6686,-1.5846,-1.5325,-1.4597,-0.6668,-0.6322,-0.6498,-0.6627,-0.6623,-0.6754,-0.6558,-0.6596,-0.6542,-0.6596,-0.668,-0.7423,-0.7821,-0.8012,-0.9079,-0.942,-0.9312,-0.9704,-0.9384,-0.914,-0.8879,-0.8559,-0.8526,-0.7696,-0.7608,-0.7799,-0.7806,-0.7554,-0.7573,-0.8485,-0.9315,-0.9945,-0.9722,-0.9663,-0.9744,-0.9799,-0.9828,-0.96,-0.9141,-0.8672,-0.8128,-0.7611,-0.7287,-0.7127,-0.6785,-0.6854,-0.7036,-0.7063,-0.5425,-0.2398,-0.2016,-0.304,-0.4656,-0.4896,-0.3813,-0.2911,-0.6724,-1.2815,-1.792,-1.7349,-1.6218,-1.9601,-2.1897,-2.317,-2.4127,-2.4453,-2.4622,-2.4793,-2.4836,-2.4376,-2.3952,-2.3676,-2.3749,-2.4019,-2.4132,-2.4151,-2.4208,-2.417,-2.4133,-2.4094,-2.4074,-2.3955,-2.3774,-2.361,-2.3526,-2.35,-2.3464,-2.333,-2.3061,-2.2927,-2.287,-2.2613,-2.166,-2.0727,-2.0534,-2.0289,-2.0094,-1.9833,-1.9401,-1.9052,-1.8802,-1.8832,-1.8659,-1.8575,-1.8739,-1.8665,-1.8489,-1.8193,-1.778,-1.7638,-1.7524,-1.6713,-1.5852,-1.5629,-1.5122,-0.6624,-0.6437,-0.6495,-0.6508,-0.661,-0.6759,-0.6729,-0.6502,-0.6729,-0.7082,-0.743,-0.7848,-0.844,-0.9074,-1.004,-1.045,-1.0609,-1.1169,-1.1462,-1.1259,-1.1625,-1.1772,-1.1251,-0.9775,-0.8968,-0.9376,-1.0001,-0.9769,-0.9629,-1.0603,-1.1555,-1.132,-1.1296,-1.1208,-1.0963,-1.0759,-1.0559,-1.0543,-1.0399,-1.0281,-1.001,-0.957,-0.9299,-0.924,-0.87,-0.8765,-0.943,-0.9769,-0.92,-0.8124,-0.743,-0.7518,-0.83,-0.8832,-0.8173,-0.8146,-1.1221,-1.6637,-2.1038,-2.1098,-2.09,-2.2612,-2.3668,-2.4752,-2.5093,-2.4943,-2.4935,-2.491,-2.4604,-2.4211,-2.3746,-2.3446,-2.3441,-2.3671,-2.3795,-2.3917,-2.4074,-2.3958,-2.3756,-2.3566,-2.3459,-2.3392,-2.3323,-2.33,-2.3236,-2.3189,-2.3117,-2.3117,-2.2909,-2.2638,-2.2565,-2.2517,-2.22,-2.1377,-2.1274,-2.1075,-2.0839,-2.0591,-2.0146,-1.9965,-1.9714,-1.9328,-1.9286,-1.9149,-1.9018,-1.8812,-1.8405,-1.827,-1.7927,-1.7883,-1.7745,-1.7069,-1.6452,-1.6126,-1.5578,-0.7605,-0.7803,-0.8116,-0.7805,-0.7343,-0.7609,-0.7319,-0.682,-0.7373,-0.773,-0.8065,-0.8902,-0.9725,-1.0126,-1.1452,-1.2191,-1.2371,-1.2978,-1.3375,-1.3262,-1.3444,-1.3486,-1.3679,-1.2955,-1.2458,-1.2118,-1.2062,-1.1827,-1.1826,-1.2572,-1.3441,-1.3584,-1.2914,-1.2219,-1.2031,-1.1805,-1.1823,-1.1922,-1.2033,-1.1926,-1.1349,-1.1065,-1.0923,-1.0864,-1.0374,-1.0416,-1.1245,-1.151,-1.1434,-1.128,-1.1447,-1.1456,-1.1376,-1.2054,-1.2108,-1.224,-1.5314,-1.9634,-2.3047,-2.4064,-2.3914,-2.479,-2.5168,-2.5173,-2.5197,-2.4955,-2.485,-2.4752,-2.4491,-2.4154,-2.3548,-2.3239,-2.3141,-2.3105,-2.3455,-2.371,-2.3714,-2.3692,-2.3631,-2.3437,-2.3346,-2.3028,-2.2905,-2.2923,-2.253,-2.2272,-2.2317,-2.2334,-2.252,-2.23,-2.2279,-2.226,-2.2321,-2.2141,-2.209,-2.1921,-2.1634,-2.1378,-2.1055,-2.1094,-2.1107,-2.0581,-2.0099,-1.969,-1.9154,-1.8619,-1.8249,-1.8151,-1.8035,-1.7885,-1.7654,-1.7343,-1.6999,-1.6563,-1.5933,-0.8918,-0.9397,-0.9902,-0.9456,-0.855,-0.8883,-0.8383,-0.7384,-0.8338,-0.8657,-0.8672,-1.0412,-1.0952,-1.1446,-1.2861,-1.3725,-1.4014,-1.4371,-1.4541,-1.4489,-1.473,-1.4923,-1.52,-1.5919,-1.6132,-1.5145,-1.4764,-1.4221,-1.3705,-1.4231,-1.5315,-1.592,-1.4343,-1.3384,-1.3105,-1.3062,-1.3082,-1.3208,-1.3443,-1.3328,-1.2445,-1.2115,-1.2029,-1.2667,-1.2589,-1.2483,-1.2966,-1.322,-1.3278,-1.3252,-1.4606,-1.4593,-1.4327,-1.4803,-1.58,-1.5483,-1.8806,-2.1865,-2.4366,-2.526,-2.5324,-2.5521,-2.5497,-2.526,-2.4962,-2.4883,-2.4795,-2.4604,-2.441,-2.4117,-2.3397,-2.3199,-2.2933,-2.2815,-2.3271,-2.341,-2.33,-2.3392,-2.3414,-2.3341,-2.3032,-2.2712,-2.2556,-2.2476,-2.1874,-2.1444,-2.1535,-2.1612,-2.1823,-2.2032,-2.2044,-2.2163,-2.2282,-2.2327,-2.2276,-2.2243,-2.204,-2.1877,-2.1678,-2.1769,-2.1916,-2.1406,-2.0633,-1.9723,-1.9113,-1.8663,-1.8223,-1.7963,-1.7861,-1.7789,-1.7693,-1.7466,-1.7207,-1.6948,-1.6323,-0.9667,-0.9673,-0.9878,-0.9968,-1.0005,-1.0045,-0.9751,-0.9361,-0.9399,-0.981,-1.0296,-1.1114,-1.1772,-1.2302,-1.3457,-1.4394,-1.5035,-1.554,-1.5504,-1.5634,-1.6047,-1.6649,-1.7387,-1.8226,-1.868,-1.8655,-1.7899,-1.6748,-1.5618,-1.5935,-1.693,-1.8032,-1.6321,-1.4768,-1.4215,-1.4171,-1.4337,-1.4276,-1.449,-1.4343,-1.3871,-1.3351,-1.36,-1.4887,-1.4978,-1.4875,-1.468,-1.5291,-1.5635,-1.5235,-1.6187,-1.7103,-1.7707,-1.8511,-1.9242,-2.0053,-2.1591,-2.3692,-2.5164,-2.5533,-2.5535,-2.5525,-2.5514,-2.5284,-2.4942,-2.4799,-2.4712,-2.4526,-2.4339,-2.4056,-2.3692,-2.3472,-2.3392,-2.331,-2.3206,-2.3206,-2.3007,-2.2933,-2.2857,-2.2764,-2.2571,-2.2392,-2.2265,-2.2079,-2.1715,-2.1383,-2.1352,-2.1259,-2.1213,-2.1568,-2.1899,-2.2077,-2.2282,-2.2327,-2.231,-2.231,-2.2198,-2.2091,-2.1948,-2.1903,-2.1965,-2.1761,-2.1142,-2.0168,-1.9502,-1.9096,-1.8606,-1.7957,-1.7789,-1.7789,-1.771,-1.7608,-1.7405,-1.7151,-1.672,-1.1242,-1.2113,-1.2374,-1.224,-1.1954,-1.1934,-1.1044,-0.9977,-1.037,-1.0639,-1.1065,-1.1852,-1.2614,-1.3237,-1.437,-1.5715,-1.7005,-1.7832,-1.7994,-1.8125,-1.8491,-1.8839,-1.9293,-1.9962,-2.0426,-2.0582,-2.0258,-1.9077,-1.7378,-1.7444,-1.8032,-1.7713,-1.7122,-1.6468,-1.5556,-1.5476,-1.5372,-1.5302,-1.5393,-1.5287,-1.4835,-1.4282,-1.5129,-1.5608,-1.6365,-1.6304,-1.6467,-1.7324,-1.7708,-1.7611,-1.8534,-1.9568,-2.0413,-2.1323,-2.2005,-2.2511,-2.3506,-2.4554,-2.5362,-2.5582,-2.557,-2.5514,-2.5503,-2.5252,-2.4896,-2.4718,-2.4654,-2.4411,-2.43,-2.4062,-2.371,-2.3768,-2.3678,-2.3392,-2.3253,-2.3025,-2.2712,-2.2554,-2.246,-2.2372,-2.2349,-2.226,-2.1924,-2.1748,-2.1538,-2.1368,-2.1228,-2.1039,-2.0781,-2.1244,-2.1764,-2.2089,-2.231,-2.2338,-2.2338,-2.2349,-2.231,-2.2209,-2.2147,-2.2118,-2.1905,-2.169,-2.1267,-2.0584,-2.0018,-1.935,-1.8549,-1.7789,-1.7789,-1.7789,-1.7738,-1.7676,-1.7557,-1.7299,-1.6934,-1.3209,-1.4811,-1.4834,-1.4521,-1.3924,-1.3971,-1.2916,-1.1331,-1.1992,-1.2318,-1.2016,-1.3187,-1.399,-1.4533,-1.5719,-1.7437,-1.9543,-2.0235,-2.0298,-2.0242,-2.0309,-2.0515,-2.09,-2.1254,-2.164,-2.175,-2.199,-2.1067,-1.9613,-1.9105,-1.8547,-1.8776,-1.9119,-1.8363,-1.7368,-1.6935,-1.6471,-1.6212,-1.6308,-1.6051,-1.5466,-1.5576,-1.5928,-1.591,-1.6523,-1.7219,-1.8018,-1.9333,-1.9849,-2.002,-2.0779,-2.1731,-2.2167,-2.3353,-2.3914,-2.3802,-2.44,-2.4996,-2.5415,-2.5605,-2.5566,-2.552,-2.5488,-2.5166,-2.4776,-2.4601,-2.4528,-2.4265,-2.4182,-2.4135,-2.393,-2.3937,-2.3833,-2.3643,-2.3395,-2.3142,-2.2654,-2.2468,-2.2547,-2.2462,-2.2361,-2.218,-2.1957,-2.1688,-2.1521,-2.1385,-2.1244,-2.1118,-2.0959,-2.1259,-2.1748,-2.2118,-2.2349,-2.236,-2.2388,-2.2426,-2.2377,-2.2282,-2.2186,-2.2136,-2.1832,-2.1528,-2.1008,-2.0382,-1.9891,-1.9164,-1.8346,-1.7789,-1.7789,-1.7789,-1.7789,-1.7738,-1.7636,-1.7597,-1.7384,-1.5341,-1.5967,-1.5481,-1.5372,-1.5718,-1.5819,-1.5527,-1.4895,-1.4993,-1.5266,-1.487,-1.5554,-1.5851,-1.6393,-1.7617,-1.9015,-2.0151,-2.0696,-2.0939,-2.1095,-2.1066,-2.1393,-2.1842,-2.2445,-2.261,-2.2801,-2.3158,-2.2485,-2.1309,-2.0705,-2.1393,-2.1773,-2.0237,-1.914,-1.9223,-1.8352,-1.7638,-1.7196,-1.7199,-1.6896,-1.6416,-1.6731,-1.7253,-1.78,-1.808,-1.8655,-1.9804,-2.1202,-2.2054,-2.2027,-2.2634,-2.3146,-2.3476,-2.4116,-2.4701,-2.4903,-2.5099,-2.5255,-2.5499,-2.5574,-2.5568,-2.5498,-2.5434,-2.5118,-2.4756,-2.4425,-2.4303,-2.4247,-2.4243,-2.4296,-2.4218,-2.3948,-2.3876,-2.3876,-2.385,-2.3285,-2.2728,-2.2479,-2.2547,-2.2389,-2.2225,-2.2209,-2.2106,-2.1823,-2.1552,-2.1399,-2.126,-2.1118,-2.1181,-2.1507,-2.1832,-2.2254,-2.2388,-2.2371,-2.2426,-2.248,-2.2388,-2.231,-2.226,-2.2141,-2.182,-2.1363,-2.0399,-1.9824,-1.9384,-1.8927,-1.816,-1.7789,-1.7789,-1.7789,-1.7789,-1.7789,-1.7772,-1.7726,-1.7664,-1.7439,-1.7491,-1.7191,-1.745,-1.801,-1.7942,-1.7588,-1.7099,-1.6696,-1.6384,-1.626,-1.6737,-1.7394,-1.8356,-1.9765,-2.0758,-2.1388,-2.1803,-2.2274,-2.2555,-2.2676,-2.3037,-2.3716,-2.3887,-2.3784,-2.41,-2.4321,-2.395,-2.2863,-2.2105,-2.2411,-2.3885,-2.2621,-2.1247,-2.0801,-1.9682,-1.9044,-1.8549,-1.8085,-1.7316,-1.6981,-1.7597,-1.8835,-2.0085,-1.9675,-2.002,-2.1118,-2.3167,-2.3613,-2.3418,-2.3819,-2.4729,-2.4856,-2.508,-2.5263,-2.6082,-2.5663,-2.5518,-2.5604,-2.5589,-2.556,-2.5505,-2.5408,-2.5145,-2.4741,-2.4466,-2.4263,-2.419,-2.4649,-2.485,-2.4997,-2.5134,-2.4779,-2.4599,-2.4343,-2.3727,-2.3096,-2.2688,-2.2502,-2.231,-2.2106,-2.2061,-2.2003,-2.1735,-2.1521,-2.1491,-2.1399,-2.1337,-2.1477,-2.1781,-2.2124,-2.2466,-2.2473,-2.2409,-2.2463,-2.2517,-2.2388,-2.231,-2.231,-2.2158,-2.182,-2.1211,-2.0213,-1.9333,-1.8792,-1.8318,-1.7856,-1.7789,-1.7789,-1.7789,-1.7789,-1.7766,-1.7743,-1.776,-1.7606,-1.9164,-1.8979,-1.8747,-1.9136,-1.9851,-1.9608,-1.9464,-1.9163,-1.8684,-1.8158,-1.805,-1.8591,-1.9424,-2.025,-2.1502,-2.2285,-2.2543,-2.3113,-2.3826,-2.4337,-2.4624,-2.4781,-2.5052,-2.5075,-2.5351,-2.5612,-2.6138,-2.571,-2.462,-2.365,-2.379,-2.5433,-2.448,-2.3191,-2.1901,-2.1036,-2.0442,-1.973,-1.9148,-1.8218,-1.7469,-1.8404,-2.0161,-2.1254,-2.1504,-2.1289,-2.2473,-2.4102,-2.463,-2.5321,-2.5499,-2.623,-2.6399,-2.6078,-2.6046,-2.6455,-2.6044,-2.5585,-2.5583,-2.5583,-2.5608,-2.5717,-2.5833,-2.5882,-2.5679,-2.5127,-2.4873,-2.5096,-2.5207,-2.55,-2.5622,-2.5914,-2.56,-2.512,-2.4822,-2.4227,-2.3619,-2.3112,-2.262,-2.2276,-2.2032,-2.1764,-2.1658,-2.1538,-2.146,-2.1552,-2.1552,-2.1538,-2.1751,-2.2049,-2.2309,-2.2599,-2.2573,-2.251,-2.2563,-2.2554,-2.2426,-2.2293,-2.231,-2.209,-2.1718,-2.0957,-1.9976,-1.9147,-1.842,-1.8065,-1.7789,-1.7789,-1.7789,-1.7789,-1.7789,-1.7704,-1.7681,-1.7669,-1.7417,-2.0109,-2.0353,-1.9367,-1.9668,-2.0665,-2.0552,-2.1043,-2.1756,-2.1674,-2.1515,-2.1506,-2.1981,-2.1868,-2.2121,-2.2799,-2.358,-2.4105,-2.4176,-2.4681,-2.5133,-2.5342,-2.555,-2.5994,-2.6557,-2.6901,-2.6746,-2.7326,-2.7508,-2.6918,-2.5648,-2.5815,-2.6318,-2.5724,-2.4514,-2.3369,-2.2517,-2.1579,-2.086,-2.027,-1.952,-1.8923,-1.9547,-2.1163,-2.276,-2.318,-2.3667,-2.5298,-2.5619,-2.6199,-2.7306,-2.7369,-2.7572,-2.763,-2.6966,-2.6809,-2.6857,-2.6141,-2.5687,-2.557,-2.5719,-2.5943,-2.639,-2.674,-2.6901,-2.6858,-2.6618,-2.6502,-2.6357,-2.6164,-2.6041,-2.5865,-2.5638,-2.6017,-2.5922,-2.5542,-2.4752,-2.4117,-2.3451,-2.2924,-2.2394,-2.1945,-2.1568,-2.1321,-2.1165,-2.1399,-2.1491,-2.1688,-2.1675,-2.1974,-2.2237,-2.2446,-2.2625,-2.266,-2.266,-2.2695,-2.2599,-2.2453,-2.2321,-2.231,-2.1972,-2.1576,-2.067,-1.9782,-1.9113,-1.8454,-1.8099,-1.7789,-1.7789,-1.7789,-1.7789,-1.7766,-1.7704,-1.7458,-1.7289,-1.694,-2.1754,-2.1808,-2.1073,-2.1039,-2.1505,-2.2047,-2.2756,-2.3416,-2.3563,-2.3872,-2.4174,-2.3828,-2.3761,-2.4079,-2.4295,-2.4688,-2.4978,-2.4964,-2.5508,-2.6026,-2.6385,-2.6842,-2.744,-2.7959,-2.8463,-2.8208,-2.8637,-2.8774,-2.8272,-2.752,-2.7366,-2.7299,-2.6699,-2.5966,-2.4991,-2.3795,-2.2647,-2.1795,-2.1396,-2.0898,-2.0825,-2.1059,-2.272,-2.5464,-2.4087,-2.4586,-2.5689,-2.606,-2.6725,-2.738,-2.7834,-2.8291,-2.8496,-2.7598,-2.7285,-2.7363,-2.6373,-2.5742,-2.5746,-2.5998,-2.6583,-2.718,-2.7447,-2.7556,-2.7777,-2.715,-2.6879,-2.6782,-2.6852,-2.6711,-2.6655,-2.6783,-2.6992,-2.6861,-2.6311,-2.5403,-2.4717,-2.4066,-2.3249,-2.2689,-2.1873,-2.1229,-2.1023,-2.0813,-2.1134,-2.146,-2.1675,-2.1886,-2.2152,-2.2366,-2.2544,-2.2643,-2.2669,-2.2815,-2.2873,-2.2678,-2.2453,-2.2377,-2.231,-2.1955,-2.1542,-2.0619,-1.9782,-1.9113,-1.8488,-1.8025,-1.7789,-1.7789,-1.7789,-1.7789,-1.7726,-1.7664,-1.7338,-1.6901,-1.6429,-2.2492,-2.2436,-2.2241,-2.2196,-2.2366,-2.2846,-2.3751,-2.4666,-2.4702,-2.5266,-2.6053,-2.5488,-2.5439,-2.5889,-2.6127,-2.6272,-2.6318,-2.6419,-2.6813,-2.7324,-2.7871,-2.829,-2.8841,-2.9204,-2.9372,-2.9354,-2.9397,-2.9324,-2.8883,-2.8971,-2.8425,-2.7873,-2.7552,-2.7066,-2.6033,-2.4918,-2.3562,-2.2738,-2.2555,-2.2416,-2.2317,-2.2668,-2.4094,-2.6931,-2.6505,-2.6516,-2.6943,-2.7028,-2.7138,-2.766,-2.811,-2.8538,-2.8437,-2.8086,-2.7519,-2.7207,-2.6714,-2.5791,-2.6057,-2.6613,-2.739,-2.808,-2.8441,-2.8446,-2.8284,-2.7959,-2.7885,-2.7678,-2.7575,-2.7368,-2.7298,-2.7174,-2.7105,-2.6835,-2.6632,-2.5902,-2.545,-2.4847,-2.3829,-2.2953,-2.2015,-2.1071,-2.1086,-2.0975,-2.1259,-2.1598,-2.1869,-2.2049,-2.218,-2.2405,-2.2598,-2.266,-2.266,-2.2857,-2.3038,-2.2686,-2.2405,-2.2349,-2.2276,-2.2057,-2.1532,-2.0619,-1.9765,-1.908,-1.8488,-1.7957,-1.7789,-1.7789,-1.7789,-1.7789,-1.7595,-1.7327,-1.6855,-1.6401,-1.5938,-2.2047,-2.2013,-2.2472,-2.287,-2.3065,-2.2734,-2.3802,-2.5527,-2.5495,-2.6024,-2.7152,-2.748,-2.7512,-2.7425,-2.7643,-2.7836,-2.8038,-2.8121,-2.8404,-2.8902,-2.913,-2.9374,-2.9641,-2.995,-3.0038,-2.9549,-2.951,-2.9394,-2.8971,-2.8664,-2.8286,-2.8307,-2.8189,-2.7906,-2.6765,-2.5548,-2.4478,-2.3801,-2.3878,-2.3569,-2.3375,-2.3676,-2.5385,-2.7261,-2.876,-2.8907,-2.8345,-2.7642,-2.7846,-2.8724,-2.8543,-2.8652,-2.8535,-2.7793,-2.7285,-2.709,-2.635,-2.6179,-2.676,-2.7479,-2.82,-2.8956,-2.9328,-2.9614,-2.992,-2.9623,-2.8927,-2.8474,-2.8148,-2.7674,-2.7339,-2.7017,-2.6922,-2.679,-2.6635,-2.6466,-2.5995,-2.5347,-2.4298,-2.3207,-2.1987,-2.1007,-2.1166,-2.1275,-2.1507,-2.1764,-2.2061,-2.2237,-2.2282,-2.2377,-2.2561,-2.2634,-2.2634,-2.2721,-2.2832,-2.2561,-2.2338,-2.2327,-2.2209,-2.1989,-2.1448,-2.0551,-1.9773,-1.9029,-1.8437,-1.7856,-1.7789,-1.7789,-1.7789,-1.7726,-1.7158,-1.6761,-1.6318,-1.5897,-1.5491,-2.3095,-2.2693,-2.2911,-2.2862,-2.2739,-2.3255,-2.4333,-2.5622,-2.6788,-2.7854,-2.8541,-2.8881,-2.9028,-2.9023,-2.8965,-2.9136,-2.9392,-2.9415,-2.9713,-2.9815,-3.0228,-3.0587,-3.0802,-3.0757,-3.0588,-3.0119,-2.9839,-2.9374,-2.8989,-2.8203,-2.79,-2.7964,-2.8514,-2.7936,-2.6765,-2.5828,-2.5439,-2.4271,-2.4114,-2.4081,-2.3967,-2.4428,-2.5635,-2.7818,-2.9525,-2.9967,-2.9252,-2.8364,-2.8596,-2.9371,-2.904,-2.9023,-2.8809,-2.8105,-2.7598,-2.7296,-2.6718,-2.7161,-2.7904,-2.8602,-2.8909,-2.9636,-3.0049,-3.0163,-3.0109,-2.9832,-2.9401,-2.8913,-2.8304,-2.7747,-2.7348,-2.6954,-2.6791,-2.6758,-2.6656,-2.6673,-2.6286,-2.5532,-2.46,-2.3551,-2.2343,-2.1439,-2.1167,-2.1493,-2.1735,-2.1915,-2.218,-2.2254,-2.2299,-2.2338,-2.2443,-2.2527,-2.259,-2.2643,-2.259,-2.2426,-2.2338,-2.2327,-2.2158,-2.1904,-2.1245,-2.0373,-1.9444,-1.8572,-1.8143,-1.7789,-1.7789,-1.7789,-1.7789,-1.7595,-1.7085,-1.6684,-1.6386,-1.5801,-1.5137,-2.3665,-2.315,-2.3125,-2.3059,-2.3111,-2.3803,-2.4739,-2.596,-2.7685,-2.8871,-2.936,-2.9627,-3.0084,-3.0377,-3.0393,-3.0492,-3.083,-3.0852,-3.0852,-3.0908,-3.1264,-3.156,-3.1721,-3.1668,-3.0989,-3.0439,-2.9644,-2.9024,-2.8066,-2.7197,-2.7404,-2.8243,-2.8687,-2.8118,-2.71,-2.6534,-2.5748,-2.4611,-2.419,-2.4192,-2.4259,-2.4776,-2.5786,-2.7739,-2.9267,-3.0141,-2.9677,-2.9317,-2.9062,-2.9416,-2.9492,-2.9277,-2.8809,-2.8223,-2.7656,-2.7286,-2.7762,-2.8169,-2.8818,-2.9379,-2.9706,-3.0225,-3.0311,-3.015,-2.9969,-2.9731,-2.9204,-2.8662,-2.8157,-2.7643,-2.7178,-2.6791,-2.6725,-2.6708,-2.6657,-2.6657,-2.6264,-2.5473,-2.4692,-2.3651,-2.275,-2.1907,-2.1279,-2.1667,-2.1986,-2.2135,-2.2299,-2.2327,-2.2327,-2.2338,-2.2377,-2.249,-2.2527,-2.2537,-2.2527,-2.2436,-2.2377,-2.231,-2.2141,-2.1921,-2.0974,-2.0103,-1.9089,-1.8228,-1.7974,-1.7789,-1.7789,-1.7789,-1.7704,-1.7502,-1.7142,-1.6777,-1.6491,-1.5704,-1.4817,-2.3627,-2.3138,-2.3185,-2.3624,-2.4188,-2.4261,-2.5093,-2.6558,-2.7947,-2.8873,-2.9374,-3.0021,-3.0818,-3.1625,-3.1699,-3.1898,-3.2229,-3.2331,-3.2331,-3.2347,-3.2378,-3.253,-3.253,-3.2411,-3.1469,-3.0311,-2.9417,-2.8613,-2.7029,-2.7063,-2.7748,-2.8578,-2.8913,-2.8346,-2.7657,-2.6966,-2.6004,-2.5126,-2.476,-2.4579,-2.4409,-2.476,-2.6101,-2.7837,-2.9351,-3.0152,-3.015,-3.0153,-2.9849,-2.9745,-2.957,-2.8555,-2.7754,-2.7129,-2.707,-2.7505,-2.8576,-2.9133,-2.9452,-2.9956,-3.0129,-3.0336,-3.0047,-2.9969,-2.9826,-2.9551,-2.8972,-2.8445,-2.7939,-2.7374,-2.6873,-2.6791,-2.6708,-2.6657,-2.659,-2.6367,-2.6016,-2.5359,-2.4583,-2.3713,-2.2864,-2.2167,-2.1673,-2.1869,-2.2135,-2.2209,-2.2327,-2.2327,-2.2327,-2.2327,-2.2377,-2.2508,-2.25,-2.2463,-2.2426,-2.2388,-2.2377,-2.2327,-2.2198,-2.191,-2.088,-1.9942,-1.9106,-1.8414,-1.7974,-1.7766,-1.7658,-1.7595,-1.7555,-1.7256,-1.6786,-1.6412,-1.5987,-1.5199,-1.4337,-2.3852,-2.3415,-2.4309,-2.4356,-2.3886,-2.4272,-2.499,-2.6025,-2.8106,-2.9032,-2.8774,-3.0303,-3.1189,-3.223,-3.1951,-3.2315,-3.2727,-3.2983,-3.2983,-3.3057,-3.3164,-3.3317,-3.3241,-3.2931,-3.187,-3.0818,-2.9787,-2.886,-2.74,-2.7313,-2.812,-2.8864,-2.8949,-2.8456,-2.8027,-2.7555,-2.6753,-2.6135,-2.5841,-2.5224,-2.482,-2.5097,-2.6561,-2.8146,-2.9442,-3.0152,-3.0367,-3.0456,-3.0237,-3.0182,-3.0257,-2.9687,-2.8965,-2.8652,-2.8574,-2.8688,-2.954,-3.0206,-3.0186,-3.0283,-3.0398,-3.0286,-2.9943,-2.9729,-2.9587,-2.9265,-2.8699,-2.8192,-2.7741,-2.7206,-2.6873,-2.6758,-2.6624,-2.6556,-2.6401,-2.598,-2.5615,-2.5,-2.43,-2.3879,-2.3056,-2.2425,-2.2002,-2.2003,-2.2254,-2.2282,-2.2327,-2.2327,-2.2327,-2.2327,-2.2338,-2.2426,-2.2453,-2.2388,-2.2377,-2.2338,-2.231,-2.231,-2.2237,-2.1891,-2.084,-1.9941,-1.9181,-1.8532,-1.7974,-1.7635,-1.7439,-1.7399,-1.7358,-1.669,-1.6191,-1.5848,-1.5414,-1.4614,-1.3925,-2.4093,-2.3946,-2.4641,-2.4611,-2.4118,-2.4653,-2.5173,-2.5792,-2.7456,-2.804,-2.8142,-2.9287,-3.0583,-3.1434,-3.1597,-3.2101,-3.29,-3.3291,-3.3437,-3.3486,-3.3713,-3.381,-3.3747,-3.3513,-3.2711,-3.1673,-3.0695,-2.981,-2.8351,-2.8504,-2.9332,-2.8916,-2.8888,-2.8615,-2.8328,-2.8122,-2.7908,-2.7372,-2.6888,-2.6215,-2.5924,-2.5798,-2.6968,-2.8571,-2.9679,-3.0092,-3.0336,-3.0436,-3.0467,-3.0467,-3.0583,-3.0215,-2.9551,-2.9277,-2.9277,-2.9394,-3.0037,-3.0419,-3.0449,-3.0467,-3.0467,-3.0305,-2.9946,-2.9731,-2.938,-2.9052,-2.8517,-2.7974,-2.7572,-2.7178,-2.6906,-2.6691,-2.6556,-2.6453,-2.6033,-2.5652,-2.5105,-2.4567,-2.4186,-2.392,-2.3329,-2.267,-2.2358,-2.2358,-2.2327,-2.2327,-2.2327,-2.2327,-2.2327,-2.2327,-2.2327,-2.2349,-2.2349,-2.231,-2.2327,-2.231,-2.2349,-2.2415,-2.2483,-2.1952,-2.0858,-2.004,-1.9433,-1.8642,-1.7856,-1.7572,-1.7368,-1.7239,-1.7093,-1.6365,-1.5555,-1.4994,-1.456,-1.3974,-1.3352,-2.4433,-2.4484,-2.4454,-2.4478,-2.4612,-2.5168,-2.5361,-2.54,-2.6178,-2.6761,-2.7364,-2.7994,-2.9206,-3.0518,-3.114,-3.1894,-3.2711,-3.3359,-3.3707,-3.3797,-3.4099,-3.4218,-3.4152,-3.413,-3.3412,-3.2771,-3.1928,-3.0794,-2.9857,-2.9761,-2.9761,-2.9044,-2.8889,-2.8798,-2.8777,-2.8585,-2.8445,-2.8384,-2.7732,-2.7037,-2.7019,-2.693,-2.7147,-2.913,-2.9953,-3.0318,-3.0324,-3.0367,-3.0398,-3.0417,-3.0337,-3.0065,-2.9807,-2.9609,-2.9668,-2.9805,-3.0371,-3.0507,-3.0577,-3.0552,-3.0506,-3.0337,-3.008,-2.9765,-2.936,-2.887,-2.835,-2.7936,-2.753,-2.7147,-2.6841,-2.6573,-2.6367,-2.6175,-2.5852,-2.5577,-2.5313,-2.4823,-2.4492,-2.4211,-2.3854,-2.3243,-2.2872,-2.2868,-2.2547,-2.2446,-2.2327,-2.2327,-2.2327,-2.2327,-2.2327,-2.2327,-2.2327,-2.2327,-2.2327,-2.2338,-2.2426,-2.25,-2.2573,-2.2177,-2.1156,-2.0387,-1.97,-1.8734,-1.7789,-1.7526,-1.7304,-1.7077,-1.6626,-1.5859,-1.5051,-1.4218,-1.3638,-1.3158,-1.2471,-2.5232,-2.5212,-2.4747,-2.4538,-2.4565,-2.4648,-2.472,-2.472,-2.5676,-2.6515,-2.7252,-2.8273,-2.9196,-3.0017,-3.0863,-3.1672,-3.2464,-3.3183,-3.3697,-3.385,-3.4134,-3.4214,-3.4304,-3.4388,-3.3968,-3.3148,-3.2341,-3.1764,-3.0767,-3.0577,-3.0293,-2.9263,-2.9235,-2.9424,-2.9012,-2.8815,-2.8803,-2.892,-2.8576,-2.7915,-2.7695,-2.8143,-2.8682,-2.9064,-2.9264,-2.9899,-3.0056,-3.0279,-3.0355,-3.0398,-3.0467,-3.0375,-3.0295,-3.0338,-3.0391,-3.0449,-3.0547,-3.0625,-3.0607,-3.0588,-3.0537,-3.0272,-2.9992,-2.9696,-2.9279,-2.873,-2.829,-2.7908,-2.7517,-2.7115,-2.6774,-2.6488,-2.6175,-2.5908,-2.5705,-2.5577,-2.5503,-2.5191,-2.4846,-2.462,-2.4337,-2.3934,-2.3543,-2.3139,-2.2852,-2.2598,-2.2395,-2.2327,-2.2327,-2.2327,-2.2327,-2.2327,-2.2327,-2.2327,-2.2327,-2.2338,-2.2415,-2.2436,-2.2473,-2.2002,-2.1429,-2.0611,-1.974,-1.8614,-1.7743,-1.7522,-1.7166,-1.6606,-1.6056,-1.5257,-1.4355,-1.3472,-1.2749,-1.2212,-1.1428,-2.509,-2.5033,-2.4415,-2.4282,-2.4493,-2.4426,-2.4642,-2.5166,-2.5726,-2.6462,-2.718,-2.7964,-2.8635,-2.9325,-3.0178,-3.0972,-3.1774,-3.2779,-3.2761,-3.2982,-3.3736,-3.3869,-3.411,-3.4414,-3.4415,-3.3765,-3.3394,-3.2773,-3.1795,-3.1524,-3.1148,-3.0118,-3.0161,-2.9667,-2.9057,-2.8863,-2.8863,-2.8994,-2.8975,-2.8723,-2.8282,-2.8672,-2.899,-2.8927,-2.9177,-2.9693,-2.9901,-3.0144,-3.0267,-3.0355,-3.0417,-3.0487,-3.0466,-3.054,-3.0615,-3.0664,-3.0703,-3.0732,-3.0656,-3.0586,-3.0537,-3.0272,-2.9867,-2.9551,-2.9169,-2.8658,-2.8264,-2.788,-2.7241,-2.6808,-2.6741,-2.6539,-2.6052,-2.5672,-2.5652,-2.5615,-2.5503,-2.5309,-2.5287,-2.5383,-2.4942,-2.4325,-2.3799,-2.297,-2.2699,-2.2513,-2.2344,-2.2327,-2.2327,-2.2327,-2.2327,-2.2327,-2.2327,-2.2327,-2.2327,-2.2338,-2.2388,-2.2398,-2.2381,-2.2038,-2.1558,-2.0679,-1.9756,-1.8836,-1.8071,-1.7593,-1.7152,-1.6394,-1.5403,-1.4547,-1.3591,-1.2638,-1.1993,-1.1356,-1.0723,-2.4549,-2.4492,-2.3936,-2.4048,-2.4511,-2.4578,-2.5102,-2.5888,-2.6085,-2.6539,-2.7261,-2.7421,-2.7619,-2.8241,-2.9062,-2.9701,-3.065,-3.2004,-3.1998,-3.2238,-3.3062,-3.3525,-3.3827,-3.397,-3.431,-3.4376,-3.4003,-3.3802,-3.3381,-3.2678,-3.1753,-3.1243,-3.0393,-2.9482,-2.9034,-2.8749,-2.8707,-2.8929,-2.8998,-2.904,-2.9021,-2.9017,-2.9079,-2.923,-2.9414,-2.9551,-2.9769,-2.999,-3.015,-3.0299,-3.0398,-3.0436,-3.0487,-3.0548,-3.062,-3.0684,-3.0742,-3.0715,-3.0643,-3.0606,-3.0516,-3.0299,-2.982,-2.9397,-2.9052,-2.8608,-2.821,-2.7776,-2.7129,-2.6774,-2.6758,-2.6385,-2.5892,-2.5635,-2.5672,-2.5635,-2.5524,-2.5524,-2.5766,-2.595,-2.5346,-2.47,-2.3951,-2.3105,-2.2649,-2.2446,-2.2327,-2.2327,-2.2327,-2.2327,-2.2327,-2.2327,-2.2327,-2.2327,-2.2327,-2.2338,-2.2377,-2.2415,-2.2358,-2.2082,-2.1694,-2.096,-2.0196,-1.9352,-1.8634,-1.7995,-1.6918,-1.5981,-1.4973,-1.399,-1.2891,-1.1991,-1.1457,-1.0819,-1.0167,-2.4521,-2.4425,-2.4271,-2.4536,-2.5067,-2.547,-2.5835,-2.6033,-2.6418,-2.6873,-2.7303,-2.7695,-2.801,-2.837,-2.9206,-2.9849,-3.0391,-3.1473,-3.1952,-3.22,-3.2807,-3.3349,-3.3753,-3.3907,-3.4435,-3.4213,-3.379,-3.3675,-3.3446,-3.2555,-3.1749,-3.1222,-3.0591,-2.9764,-2.908,-2.8915,-2.8962,-2.9089,-2.9071,-2.9112,-2.9203,-2.9178,-2.904,-2.9156,-2.9289,-2.942,-2.9618,-2.9867,-3.0117,-3.0311,-3.0398,-3.0417,-3.0448,-3.0498,-3.0576,-3.0661,-3.0723,-3.0742,-3.0703,-3.0644,-3.054,-3.0374,-2.9915,-2.9456,-2.9016,-2.8412,-2.8102,-2.7926,-2.7365,-2.6954,-2.6724,-2.6035,-2.5524,-2.5709,-2.5799,-2.5635,-2.5524,-2.5855,-2.6212,-2.5998,-2.5548,-2.492,-2.4286,-2.3477,-2.2784,-2.2564,-2.2327,-2.2327,-2.2327,-2.2327,-2.231,-2.2327,-2.2327,-2.2327,-2.2327,-2.231,-2.2349,-2.2388,-2.2358,-2.2158,-2.1832,-2.1368,-2.061,-1.9807,-1.8974,-1.8268,-1.7113,-1.5714,-1.462,-1.3591,-1.2294,-1.1384,-1.084,-1.035,-0.9776]}]]